<?xml version="1.0" encoding="UTF-8" standalone="no" ?>
<gpx xmlns="http://www.topografix.com/GPX/1/1" xmlns:xsi="http://www.w3.org/2001/XMLSchema-instance" xsi:schemaLocation="http://www.topografix.com/GPX/1/1 http://www.topografix.com/GPX/1/1/gpx.xsd" version="1.1" creator="VisuGPX - https://www.visugpx.com">
  <metadata>
    <name>Activité de Randonnée TwoNav</name>
    <desc><![CDATA[2021-12-18_130149.trk]]></desc>
  </metadata>
  <trk>
    <name><![CDATA[Activité de Randonnée TwoNav_1]]></name>
    <trkseg>
      <trkpt lat="49.16084" lon="6.85308">
        <ele>206.9</ele>
        <time>2021-12-18T12:01:49Z</time>
      </trkpt>
      <trkpt lat="49.16084" lon="6.85308">
        <ele>206.9</ele>
        <time>2021-12-18T12:01:49Z</time>
      </trkpt>
      <trkpt lat="49.16084" lon="6.85308">
        <ele>206.9</ele>
        <time>2021-12-18T12:01:50Z</time>
      </trkpt>
      <trkpt lat="49.16083" lon="6.85293">
        <ele>207</ele>
        <time>2021-12-18T12:02:07Z</time>
      </trkpt>
      <trkpt lat="49.16092" lon="6.85289">
        <ele>207</ele>
        <time>2021-12-18T12:02:21Z</time>
      </trkpt>
      <trkpt lat="49.16101" lon="6.85288">
        <ele>207</ele>
        <time>2021-12-18T12:02:27Z</time>
      </trkpt>
      <trkpt lat="49.1611" lon="6.85279">
        <ele>207</ele>
        <time>2021-12-18T12:02:37Z</time>
      </trkpt>
      <trkpt lat="49.16118" lon="6.85288">
        <ele>206.4</ele>
        <time>2021-12-18T12:02:48Z</time>
      </trkpt>
      <trkpt lat="49.16123" lon="6.85299">
        <ele>206</ele>
        <time>2021-12-18T12:02:55Z</time>
      </trkpt>
      <trkpt lat="49.16128" lon="6.85312">
        <ele>205.5</ele>
        <time>2021-12-18T12:03:03Z</time>
      </trkpt>
      <trkpt lat="49.16133" lon="6.85326">
        <ele>204.9</ele>
        <time>2021-12-18T12:03:12Z</time>
      </trkpt>
      <trkpt lat="49.16136" lon="6.8534">
        <ele>204.3</ele>
        <time>2021-12-18T12:03:19Z</time>
      </trkpt>
      <trkpt lat="49.1614" lon="6.85353">
        <ele>203.7</ele>
        <time>2021-12-18T12:03:26Z</time>
      </trkpt>
      <trkpt lat="49.16145" lon="6.85365">
        <ele>203.2</ele>
        <time>2021-12-18T12:03:33Z</time>
      </trkpt>
      <trkpt lat="49.16151" lon="6.85378">
        <ele>202.7</ele>
        <time>2021-12-18T12:03:42Z</time>
      </trkpt>
      <trkpt lat="49.16153" lon="6.85392">
        <ele>202.5</ele>
        <time>2021-12-18T12:03:48Z</time>
      </trkpt>
      <trkpt lat="49.16157" lon="6.85405">
        <ele>202.4</ele>
        <time>2021-12-18T12:03:55Z</time>
      </trkpt>
      <trkpt lat="49.16164" lon="6.85415">
        <ele>202.6</ele>
        <time>2021-12-18T12:04:04Z</time>
      </trkpt>
      <trkpt lat="49.16174" lon="6.8542">
        <ele>202.8</ele>
        <time>2021-12-18T12:04:11Z</time>
      </trkpt>
      <trkpt lat="49.16183" lon="6.85415">
        <ele>203</ele>
        <time>2021-12-18T12:04:19Z</time>
      </trkpt>
      <trkpt lat="49.16191" lon="6.85406">
        <ele>203.1</ele>
        <time>2021-12-18T12:04:26Z</time>
      </trkpt>
      <trkpt lat="49.16197" lon="6.85394">
        <ele>203.1</ele>
        <time>2021-12-18T12:04:33Z</time>
      </trkpt>
      <trkpt lat="49.16199" lon="6.85381">
        <ele>203</ele>
        <time>2021-12-18T12:04:38Z</time>
      </trkpt>
      <trkpt lat="49.16204" lon="6.85369">
        <ele>203</ele>
        <time>2021-12-18T12:04:46Z</time>
      </trkpt>
      <trkpt lat="49.16208" lon="6.85355">
        <ele>203</ele>
        <time>2021-12-18T12:04:54Z</time>
      </trkpt>
      <trkpt lat="49.16211" lon="6.8534">
        <ele>203.1</ele>
        <time>2021-12-18T12:05:00Z</time>
      </trkpt>
      <trkpt lat="49.16216" lon="6.85328">
        <ele>203.1</ele>
        <time>2021-12-18T12:05:09Z</time>
      </trkpt>
      <trkpt lat="49.1622" lon="6.85315">
        <ele>203.1</ele>
        <time>2021-12-18T12:05:16Z</time>
      </trkpt>
      <trkpt lat="49.16224" lon="6.85301">
        <ele>203.1</ele>
        <time>2021-12-18T12:05:25Z</time>
      </trkpt>
      <trkpt lat="49.16233" lon="6.85299">
        <ele>203.1</ele>
        <time>2021-12-18T12:05:33Z</time>
      </trkpt>
      <trkpt lat="49.16242" lon="6.85297">
        <ele>203.1</ele>
        <time>2021-12-18T12:05:42Z</time>
      </trkpt>
      <trkpt lat="49.16252" lon="6.85297">
        <ele>203</ele>
        <time>2021-12-18T12:05:50Z</time>
      </trkpt>
      <trkpt lat="49.16261" lon="6.85294">
        <ele>203</ele>
        <time>2021-12-18T12:05:56Z</time>
      </trkpt>
      <trkpt lat="49.16271" lon="6.85294">
        <ele>203</ele>
        <time>2021-12-18T12:06:02Z</time>
      </trkpt>
      <trkpt lat="49.1628" lon="6.85293">
        <ele>203</ele>
        <time>2021-12-18T12:06:10Z</time>
      </trkpt>
      <trkpt lat="49.16289" lon="6.85291">
        <ele>203</ele>
        <time>2021-12-18T12:06:17Z</time>
      </trkpt>
      <trkpt lat="49.16299" lon="6.85288">
        <ele>202.9</ele>
        <time>2021-12-18T12:06:24Z</time>
      </trkpt>
      <trkpt lat="49.16306" lon="6.8528">
        <ele>202.8</ele>
        <time>2021-12-18T12:06:30Z</time>
      </trkpt>
      <trkpt lat="49.16314" lon="6.85269">
        <ele>202.7</ele>
        <time>2021-12-18T12:06:36Z</time>
      </trkpt>
      <trkpt lat="49.1632" lon="6.85257">
        <ele>202.6</ele>
        <time>2021-12-18T12:06:44Z</time>
      </trkpt>
      <trkpt lat="49.16328" lon="6.8525">
        <ele>202.6</ele>
        <time>2021-12-18T12:06:51Z</time>
      </trkpt>
      <trkpt lat="49.16337" lon="6.85244">
        <ele>202.7</ele>
        <time>2021-12-18T12:06:57Z</time>
      </trkpt>
      <trkpt lat="49.16341" lon="6.85231">
        <ele>202.8</ele>
        <time>2021-12-18T12:07:05Z</time>
      </trkpt>
      <trkpt lat="49.16346" lon="6.8522">
        <ele>203</ele>
        <time>2021-12-18T12:07:13Z</time>
      </trkpt>
      <trkpt lat="49.16352" lon="6.85207">
        <ele>203.1</ele>
        <time>2021-12-18T12:07:20Z</time>
      </trkpt>
      <trkpt lat="49.16357" lon="6.85195">
        <ele>203.2</ele>
        <time>2021-12-18T12:07:27Z</time>
      </trkpt>
      <trkpt lat="49.16364" lon="6.85184">
        <ele>203.4</ele>
        <time>2021-12-18T12:07:33Z</time>
      </trkpt>
      <trkpt lat="49.16371" lon="6.85173">
        <ele>203.7</ele>
        <time>2021-12-18T12:07:40Z</time>
      </trkpt>
      <trkpt lat="49.16374" lon="6.85159">
        <ele>204.1</ele>
        <time>2021-12-18T12:07:47Z</time>
      </trkpt>
      <trkpt lat="49.16375" lon="6.85145">
        <ele>204.3</ele>
        <time>2021-12-18T12:07:59Z</time>
      </trkpt>
      <trkpt lat="49.16367" lon="6.85136">
        <ele>204.2</ele>
        <time>2021-12-18T12:08:06Z</time>
      </trkpt>
      <trkpt lat="49.16359" lon="6.85127">
        <ele>204.1</ele>
        <time>2021-12-18T12:08:14Z</time>
      </trkpt>
      <trkpt lat="49.16351" lon="6.85117">
        <ele>204</ele>
        <time>2021-12-18T12:08:21Z</time>
      </trkpt>
      <trkpt lat="49.16342" lon="6.85114">
        <ele>204</ele>
        <time>2021-12-18T12:08:27Z</time>
      </trkpt>
      <trkpt lat="49.16332" lon="6.8511">
        <ele>203.9</ele>
        <time>2021-12-18T12:08:34Z</time>
      </trkpt>
      <trkpt lat="49.16323" lon="6.85102">
        <ele>203.8</ele>
        <time>2021-12-18T12:08:42Z</time>
      </trkpt>
      <trkpt lat="49.16315" lon="6.85094">
        <ele>203.7</ele>
        <time>2021-12-18T12:08:49Z</time>
      </trkpt>
      <trkpt lat="49.16306" lon="6.85088">
        <ele>203.5</ele>
        <time>2021-12-18T12:08:57Z</time>
      </trkpt>
      <trkpt lat="49.16298" lon="6.85081">
        <ele>203.3</ele>
        <time>2021-12-18T12:09:03Z</time>
      </trkpt>
      <trkpt lat="49.16289" lon="6.85074">
        <ele>202.8</ele>
        <time>2021-12-18T12:09:10Z</time>
      </trkpt>
      <trkpt lat="49.1629" lon="6.8506">
        <ele>202.9</ele>
        <time>2021-12-18T12:09:25Z</time>
      </trkpt>
      <trkpt lat="49.16294" lon="6.85047">
        <ele>203</ele>
        <time>2021-12-18T12:09:33Z</time>
      </trkpt>
      <trkpt lat="49.16301" lon="6.85037">
        <ele>203</ele>
        <time>2021-12-18T12:09:43Z</time>
      </trkpt>
      <trkpt lat="49.16309" lon="6.85029">
        <ele>203.2</ele>
        <time>2021-12-18T12:09:54Z</time>
      </trkpt>
      <trkpt lat="49.1631" lon="6.85026">
        <ele>203.2</ele>
        <time>2021-12-18T12:09:57Z</time>
      </trkpt>
      <trkpt lat="49.16311" lon="6.85024">
        <ele>203.2</ele>
        <time>2021-12-18T12:09:58Z</time>
      </trkpt>
      <trkpt lat="49.16311" lon="6.85019">
        <ele>203.3</ele>
        <time>2021-12-18T12:10:04Z</time>
      </trkpt>
      <trkpt lat="49.16311" lon="6.85018">
        <ele>203.3</ele>
        <time>2021-12-18T12:10:05Z</time>
      </trkpt>
      <trkpt lat="49.16317" lon="6.85006">
        <ele>203.5</ele>
        <time>2021-12-18T12:10:15Z</time>
      </trkpt>
      <trkpt lat="49.16325" lon="6.84999">
        <ele>203.7</ele>
        <time>2021-12-18T12:10:28Z</time>
      </trkpt>
      <trkpt lat="49.16333" lon="6.84991">
        <ele>204</ele>
        <time>2021-12-18T12:10:36Z</time>
      </trkpt>
      <trkpt lat="49.16341" lon="6.84982">
        <ele>204.2</ele>
        <time>2021-12-18T12:10:47Z</time>
      </trkpt>
      <trkpt lat="49.16349" lon="6.84974">
        <ele>204.5</ele>
        <time>2021-12-18T12:10:57Z</time>
      </trkpt>
      <trkpt lat="49.16358" lon="6.84965">
        <ele>204.9</ele>
        <time>2021-12-18T12:11:09Z</time>
      </trkpt>
      <trkpt lat="49.16366" lon="6.84959">
        <ele>205.3</ele>
        <time>2021-12-18T12:11:16Z</time>
      </trkpt>
      <trkpt lat="49.1637" lon="6.84958">
        <ele>205.4</ele>
        <time>2021-12-18T12:11:28Z</time>
      </trkpt>
      <trkpt lat="49.1637" lon="6.84957">
        <ele>205.5</ele>
        <time>2021-12-18T12:11:29Z</time>
      </trkpt>
      <trkpt lat="49.1637" lon="6.84943">
        <ele>205.9</ele>
        <time>2021-12-18T12:11:36Z</time>
      </trkpt>
      <trkpt lat="49.16375" lon="6.8493">
        <ele>206.3</ele>
        <time>2021-12-18T12:11:44Z</time>
      </trkpt>
      <trkpt lat="49.16384" lon="6.84924">
        <ele>206.7</ele>
        <time>2021-12-18T12:11:49Z</time>
      </trkpt>
      <trkpt lat="49.16391" lon="6.84915">
        <ele>207.2</ele>
        <time>2021-12-18T12:11:58Z</time>
      </trkpt>
      <trkpt lat="49.16399" lon="6.8491">
        <ele>207.7</ele>
        <time>2021-12-18T12:12:05Z</time>
      </trkpt>
      <trkpt lat="49.16405" lon="6.84896">
        <ele>208.3</ele>
        <time>2021-12-18T12:12:12Z</time>
      </trkpt>
      <trkpt lat="49.16406" lon="6.84882">
        <ele>208.8</ele>
        <time>2021-12-18T12:12:18Z</time>
      </trkpt>
      <trkpt lat="49.16412" lon="6.8487">
        <ele>209.4</ele>
        <time>2021-12-18T12:12:25Z</time>
      </trkpt>
      <trkpt lat="49.16418" lon="6.84856">
        <ele>209.9</ele>
        <time>2021-12-18T12:12:30Z</time>
      </trkpt>
      <trkpt lat="49.16422" lon="6.84843">
        <ele>210.2</ele>
        <time>2021-12-18T12:12:36Z</time>
      </trkpt>
      <trkpt lat="49.16423" lon="6.84829">
        <ele>210.5</ele>
        <time>2021-12-18T12:12:43Z</time>
      </trkpt>
      <trkpt lat="49.1642" lon="6.84815">
        <ele>210.7</ele>
        <time>2021-12-18T12:12:54Z</time>
      </trkpt>
      <trkpt lat="49.16426" lon="6.84805">
        <ele>210.9</ele>
        <time>2021-12-18T12:13:00Z</time>
      </trkpt>
      <trkpt lat="49.16434" lon="6.84795">
        <ele>211.1</ele>
        <time>2021-12-18T12:13:07Z</time>
      </trkpt>
      <trkpt lat="49.16441" lon="6.84786">
        <ele>211.3</ele>
        <time>2021-12-18T12:13:17Z</time>
      </trkpt>
      <trkpt lat="49.1645" lon="6.84782">
        <ele>211.6</ele>
        <time>2021-12-18T12:13:28Z</time>
      </trkpt>
      <trkpt lat="49.16458" lon="6.84771">
        <ele>211.9</ele>
        <time>2021-12-18T12:13:39Z</time>
      </trkpt>
      <trkpt lat="49.16462" lon="6.84765">
        <ele>212.1</ele>
        <time>2021-12-18T12:13:48Z</time>
      </trkpt>
      <trkpt lat="49.16461" lon="6.84764">
        <ele>212.1</ele>
        <time>2021-12-18T12:13:49Z</time>
      </trkpt>
      <trkpt lat="49.16468" lon="6.84752">
        <ele>212.4</ele>
        <time>2021-12-18T12:13:56Z</time>
      </trkpt>
      <trkpt lat="49.16465" lon="6.84739">
        <ele>212.7</ele>
        <time>2021-12-18T12:14:06Z</time>
      </trkpt>
      <trkpt lat="49.16472" lon="6.84729">
        <ele>213.2</ele>
        <time>2021-12-18T12:14:12Z</time>
      </trkpt>
      <trkpt lat="49.1648" lon="6.8472">
        <ele>213.4</ele>
        <time>2021-12-18T12:14:22Z</time>
      </trkpt>
      <trkpt lat="49.16487" lon="6.8471">
        <ele>213.5</ele>
        <time>2021-12-18T12:14:29Z</time>
      </trkpt>
      <trkpt lat="49.16495" lon="6.84701">
        <ele>213.6</ele>
        <time>2021-12-18T12:14:40Z</time>
      </trkpt>
      <trkpt lat="49.16502" lon="6.84691">
        <ele>213.8</ele>
        <time>2021-12-18T12:14:49Z</time>
      </trkpt>
      <trkpt lat="49.16509" lon="6.84682">
        <ele>214</ele>
        <time>2021-12-18T12:14:55Z</time>
      </trkpt>
      <trkpt lat="49.16515" lon="6.84669">
        <ele>214.2</ele>
        <time>2021-12-18T12:15:04Z</time>
      </trkpt>
      <trkpt lat="49.16519" lon="6.84655">
        <ele>214.4</ele>
        <time>2021-12-18T12:15:13Z</time>
      </trkpt>
      <trkpt lat="49.16522" lon="6.8464">
        <ele>214.6</ele>
        <time>2021-12-18T12:15:21Z</time>
      </trkpt>
      <trkpt lat="49.16529" lon="6.84629">
        <ele>214.9</ele>
        <time>2021-12-18T12:15:31Z</time>
      </trkpt>
      <trkpt lat="49.16536" lon="6.84621">
        <ele>215.1</ele>
        <time>2021-12-18T12:15:39Z</time>
      </trkpt>
      <trkpt lat="49.1654" lon="6.84608">
        <ele>215.4</ele>
        <time>2021-12-18T12:15:50Z</time>
      </trkpt>
      <trkpt lat="49.16544" lon="6.84595">
        <ele>215.6</ele>
        <time>2021-12-18T12:15:57Z</time>
      </trkpt>
      <trkpt lat="49.16549" lon="6.84584">
        <ele>216</ele>
        <time>2021-12-18T12:16:01Z</time>
      </trkpt>
      <trkpt lat="49.16553" lon="6.84571">
        <ele>216.3</ele>
        <time>2021-12-18T12:16:07Z</time>
      </trkpt>
      <trkpt lat="49.16557" lon="6.84558">
        <ele>216.8</ele>
        <time>2021-12-18T12:16:14Z</time>
      </trkpt>
      <trkpt lat="49.16559" lon="6.84543">
        <ele>217.3</ele>
        <time>2021-12-18T12:16:25Z</time>
      </trkpt>
      <trkpt lat="49.16564" lon="6.84531">
        <ele>217.9</ele>
        <time>2021-12-18T12:16:35Z</time>
      </trkpt>
      <trkpt lat="49.16568" lon="6.84518">
        <ele>218.6</ele>
        <time>2021-12-18T12:16:49Z</time>
      </trkpt>
      <trkpt lat="49.16575" lon="6.84509">
        <ele>219.3</ele>
        <time>2021-12-18T12:16:55Z</time>
      </trkpt>
      <trkpt lat="49.16584" lon="6.8451">
        <ele>220.5</ele>
        <time>2021-12-18T12:17:02Z</time>
      </trkpt>
      <trkpt lat="49.16591" lon="6.84503">
        <ele>221.1</ele>
        <time>2021-12-18T12:17:14Z</time>
      </trkpt>
      <trkpt lat="49.16591" lon="6.84504">
        <ele>221.1</ele>
        <time>2021-12-18T12:17:15Z</time>
      </trkpt>
      <trkpt lat="49.166" lon="6.84508">
        <ele>221.8</ele>
        <time>2021-12-18T12:17:28Z</time>
      </trkpt>
      <trkpt lat="49.16609" lon="6.84513">
        <ele>222.3</ele>
        <time>2021-12-18T12:17:40Z</time>
      </trkpt>
      <trkpt lat="49.16617" lon="6.8452">
        <ele>223</ele>
        <time>2021-12-18T12:17:48Z</time>
      </trkpt>
      <trkpt lat="49.16626" lon="6.84526">
        <ele>223.8</ele>
        <time>2021-12-18T12:18:01Z</time>
      </trkpt>
      <trkpt lat="49.16636" lon="6.84529">
        <ele>224.5</ele>
        <time>2021-12-18T12:18:08Z</time>
      </trkpt>
      <trkpt lat="49.16645" lon="6.8453">
        <ele>225.4</ele>
        <time>2021-12-18T12:18:20Z</time>
      </trkpt>
      <trkpt lat="49.16653" lon="6.84538">
        <ele>226.3</ele>
        <time>2021-12-18T12:18:26Z</time>
      </trkpt>
      <trkpt lat="49.16662" lon="6.84542">
        <ele>227.3</ele>
        <time>2021-12-18T12:18:36Z</time>
      </trkpt>
      <trkpt lat="49.16671" lon="6.84547">
        <ele>228.5</ele>
        <time>2021-12-18T12:18:44Z</time>
      </trkpt>
      <trkpt lat="49.1668" lon="6.8455">
        <ele>229.8</ele>
        <time>2021-12-18T12:18:53Z</time>
      </trkpt>
      <trkpt lat="49.16689" lon="6.84557">
        <ele>231.5</ele>
        <time>2021-12-18T12:19:04Z</time>
      </trkpt>
      <trkpt lat="49.16697" lon="6.84566">
        <ele>233.2</ele>
        <time>2021-12-18T12:19:11Z</time>
      </trkpt>
      <trkpt lat="49.16705" lon="6.84574">
        <ele>234.8</ele>
        <time>2021-12-18T12:19:23Z</time>
      </trkpt>
      <trkpt lat="49.16713" lon="6.84581">
        <ele>236.4</ele>
        <time>2021-12-18T12:19:36Z</time>
      </trkpt>
      <trkpt lat="49.16718" lon="6.84595">
        <ele>237.9</ele>
        <time>2021-12-18T12:19:43Z</time>
      </trkpt>
      <trkpt lat="49.16724" lon="6.84607">
        <ele>239.3</ele>
        <time>2021-12-18T12:19:50Z</time>
      </trkpt>
      <trkpt lat="49.16732" lon="6.84618">
        <ele>240.9</ele>
        <time>2021-12-18T12:19:59Z</time>
      </trkpt>
      <trkpt lat="49.16741" lon="6.84625">
        <ele>242.2</ele>
        <time>2021-12-18T12:20:05Z</time>
      </trkpt>
      <trkpt lat="49.1675" lon="6.84631">
        <ele>243.3</ele>
        <time>2021-12-18T12:20:17Z</time>
      </trkpt>
      <trkpt lat="49.16756" lon="6.84641">
        <ele>244</ele>
        <time>2021-12-18T12:20:31Z</time>
      </trkpt>
      <trkpt lat="49.16764" lon="6.84633">
        <ele>244.4</ele>
        <time>2021-12-18T12:20:40Z</time>
      </trkpt>
      <trkpt lat="49.16772" lon="6.84625">
        <ele>244.8</ele>
        <time>2021-12-18T12:20:47Z</time>
      </trkpt>
      <trkpt lat="49.16779" lon="6.84617">
        <ele>245.2</ele>
        <time>2021-12-18T12:20:52Z</time>
      </trkpt>
      <trkpt lat="49.16786" lon="6.84608">
        <ele>245.5</ele>
        <time>2021-12-18T12:20:58Z</time>
      </trkpt>
      <trkpt lat="49.16794" lon="6.846">
        <ele>245.8</ele>
        <time>2021-12-18T12:21:07Z</time>
      </trkpt>
      <trkpt lat="49.168" lon="6.84589">
        <ele>246.3</ele>
        <time>2021-12-18T12:21:18Z</time>
      </trkpt>
      <trkpt lat="49.16809" lon="6.84584">
        <ele>246.8</ele>
        <time>2021-12-18T12:21:26Z</time>
      </trkpt>
      <trkpt lat="49.16815" lon="6.84574">
        <ele>247.3</ele>
        <time>2021-12-18T12:21:31Z</time>
      </trkpt>
      <trkpt lat="49.1682" lon="6.84561">
        <ele>247.9</ele>
        <time>2021-12-18T12:21:37Z</time>
      </trkpt>
      <trkpt lat="49.16824" lon="6.84547">
        <ele>248.5</ele>
        <time>2021-12-18T12:21:45Z</time>
      </trkpt>
      <trkpt lat="49.16831" lon="6.84538">
        <ele>249.6</ele>
        <time>2021-12-18T12:21:52Z</time>
      </trkpt>
      <trkpt lat="49.16839" lon="6.84534">
        <ele>249.5</ele>
        <time>2021-12-18T12:22:03Z</time>
      </trkpt>
      <trkpt lat="49.16838" lon="6.84533">
        <ele>249.5</ele>
        <time>2021-12-18T12:22:04Z</time>
      </trkpt>
      <trkpt lat="49.16836" lon="6.84528">
        <ele>249.5</ele>
        <time>2021-12-18T12:22:11Z</time>
      </trkpt>
      <trkpt lat="49.16836" lon="6.84528">
        <ele>249.4</ele>
        <time>2021-12-18T12:22:13Z</time>
      </trkpt>
      <trkpt lat="49.16834" lon="6.84529">
        <ele>249.4</ele>
        <time>2021-12-18T12:22:22Z</time>
      </trkpt>
      <trkpt lat="49.16834" lon="6.8453">
        <ele>249.4</ele>
        <time>2021-12-18T12:22:24Z</time>
      </trkpt>
      <trkpt lat="49.16836" lon="6.84532">
        <ele>249.4</ele>
        <time>2021-12-18T12:22:50Z</time>
      </trkpt>
      <trkpt lat="49.16836" lon="6.84532">
        <ele>249.4</ele>
        <time>2021-12-18T12:22:52Z</time>
      </trkpt>
      <trkpt lat="49.16836" lon="6.84532">
        <ele>249.4</ele>
        <time>2021-12-18T12:22:53Z</time>
      </trkpt>
      <trkpt lat="49.16836" lon="6.8453">
        <ele>249.4</ele>
        <time>2021-12-18T12:22:57Z</time>
      </trkpt>
      <trkpt lat="49.16836" lon="6.8453">
        <ele>249.4</ele>
        <time>2021-12-18T12:23:00Z</time>
      </trkpt>
      <trkpt lat="49.16836" lon="6.8453">
        <ele>249.4</ele>
        <time>2021-12-18T12:23:02Z</time>
      </trkpt>
      <trkpt lat="49.16837" lon="6.84529">
        <ele>249.4</ele>
        <time>2021-12-18T12:23:07Z</time>
      </trkpt>
      <trkpt lat="49.16836" lon="6.84529">
        <ele>249.3</ele>
        <time>2021-12-18T12:23:08Z</time>
      </trkpt>
      <trkpt lat="49.16847" lon="6.84534">
        <ele>249.1</ele>
        <time>2021-12-18T12:23:28Z</time>
      </trkpt>
      <trkpt lat="49.16836" lon="6.84534">
        <ele>248.9</ele>
        <time>2021-12-18T12:23:31Z</time>
      </trkpt>
      <trkpt lat="49.16845" lon="6.84529">
        <ele>248.7</ele>
        <time>2021-12-18T12:24:08Z</time>
      </trkpt>
      <trkpt lat="49.16845" lon="6.84529">
        <ele>248.7</ele>
        <time>2021-12-18T12:24:10Z</time>
      </trkpt>
      <trkpt lat="49.16845" lon="6.84528">
        <ele>248.7</ele>
        <time>2021-12-18T12:24:11Z</time>
      </trkpt>
      <trkpt lat="49.16835" lon="6.84529">
        <ele>248.5</ele>
        <time>2021-12-18T12:24:44Z</time>
      </trkpt>
      <trkpt lat="49.16844" lon="6.84528">
        <ele>248.4</ele>
        <time>2021-12-18T12:25:07Z</time>
      </trkpt>
      <trkpt lat="49.16854" lon="6.84527">
        <ele>248.2</ele>
        <time>2021-12-18T12:25:14Z</time>
      </trkpt>
      <trkpt lat="49.16863" lon="6.84524">
        <ele>248.1</ele>
        <time>2021-12-18T12:25:21Z</time>
      </trkpt>
      <trkpt lat="49.16872" lon="6.8452">
        <ele>248</ele>
        <time>2021-12-18T12:25:28Z</time>
      </trkpt>
      <trkpt lat="49.16881" lon="6.84513">
        <ele>247.9</ele>
        <time>2021-12-18T12:25:36Z</time>
      </trkpt>
      <trkpt lat="49.1689" lon="6.84511">
        <ele>247.8</ele>
        <time>2021-12-18T12:25:43Z</time>
      </trkpt>
      <trkpt lat="49.169" lon="6.84509">
        <ele>247.7</ele>
        <time>2021-12-18T12:25:51Z</time>
      </trkpt>
      <trkpt lat="49.16909" lon="6.84507">
        <ele>247.6</ele>
        <time>2021-12-18T12:25:59Z</time>
      </trkpt>
      <trkpt lat="49.16918" lon="6.84506">
        <ele>247.4</ele>
        <time>2021-12-18T12:26:08Z</time>
      </trkpt>
      <trkpt lat="49.16927" lon="6.84503">
        <ele>247.2</ele>
        <time>2021-12-18T12:26:15Z</time>
      </trkpt>
      <trkpt lat="49.16938" lon="6.84501">
        <ele>246.9</ele>
        <time>2021-12-18T12:26:22Z</time>
      </trkpt>
      <trkpt lat="49.16947" lon="6.84498">
        <ele>246.6</ele>
        <time>2021-12-18T12:26:29Z</time>
      </trkpt>
      <trkpt lat="49.16957" lon="6.84496">
        <ele>246.2</ele>
        <time>2021-12-18T12:26:38Z</time>
      </trkpt>
      <trkpt lat="49.16967" lon="6.84492">
        <ele>246</ele>
        <time>2021-12-18T12:26:46Z</time>
      </trkpt>
      <trkpt lat="49.16977" lon="6.84489">
        <ele>245.8</ele>
        <time>2021-12-18T12:26:52Z</time>
      </trkpt>
      <trkpt lat="49.16987" lon="6.84488">
        <ele>245.6</ele>
        <time>2021-12-18T12:26:58Z</time>
      </trkpt>
      <trkpt lat="49.16997" lon="6.84487">
        <ele>245.5</ele>
        <time>2021-12-18T12:27:06Z</time>
      </trkpt>
      <trkpt lat="49.17005" lon="6.84481">
        <ele>245.5</ele>
        <time>2021-12-18T12:27:12Z</time>
      </trkpt>
      <trkpt lat="49.17014" lon="6.84481">
        <ele>245.5</ele>
        <time>2021-12-18T12:27:19Z</time>
      </trkpt>
      <trkpt lat="49.17024" lon="6.8448">
        <ele>245.6</ele>
        <time>2021-12-18T12:27:27Z</time>
      </trkpt>
      <trkpt lat="49.17033" lon="6.84476">
        <ele>245.7</ele>
        <time>2021-12-18T12:27:33Z</time>
      </trkpt>
      <trkpt lat="49.17043" lon="6.84475">
        <ele>245.8</ele>
        <time>2021-12-18T12:27:42Z</time>
      </trkpt>
      <trkpt lat="49.17053" lon="6.84477">
        <ele>245.9</ele>
        <time>2021-12-18T12:27:50Z</time>
      </trkpt>
      <trkpt lat="49.17062" lon="6.84477">
        <ele>246</ele>
        <time>2021-12-18T12:27:58Z</time>
      </trkpt>
      <trkpt lat="49.17071" lon="6.84482">
        <ele>246.1</ele>
        <time>2021-12-18T12:28:11Z</time>
      </trkpt>
      <trkpt lat="49.17074" lon="6.84496">
        <ele>244.1</ele>
        <time>2021-12-18T12:28:19Z</time>
      </trkpt>
      <trkpt lat="49.17073" lon="6.8451">
        <ele>243.3</ele>
        <time>2021-12-18T12:28:27Z</time>
      </trkpt>
      <trkpt lat="49.17074" lon="6.84525">
        <ele>242.4</ele>
        <time>2021-12-18T12:28:33Z</time>
      </trkpt>
      <trkpt lat="49.17076" lon="6.84541">
        <ele>241.4</ele>
        <time>2021-12-18T12:28:39Z</time>
      </trkpt>
      <trkpt lat="49.17081" lon="6.84553">
        <ele>240.4</ele>
        <time>2021-12-18T12:28:46Z</time>
      </trkpt>
      <trkpt lat="49.17084" lon="6.84569">
        <ele>239.5</ele>
        <time>2021-12-18T12:28:52Z</time>
      </trkpt>
      <trkpt lat="49.17084" lon="6.84584">
        <ele>238.6</ele>
        <time>2021-12-18T12:28:59Z</time>
      </trkpt>
      <trkpt lat="49.17084" lon="6.846">
        <ele>237.8</ele>
        <time>2021-12-18T12:29:05Z</time>
      </trkpt>
      <trkpt lat="49.17083" lon="6.84613">
        <ele>237.1</ele>
        <time>2021-12-18T12:29:12Z</time>
      </trkpt>
      <trkpt lat="49.17087" lon="6.84626">
        <ele>236.3</ele>
        <time>2021-12-18T12:29:20Z</time>
      </trkpt>
      <trkpt lat="49.17091" lon="6.84639">
        <ele>235.6</ele>
        <time>2021-12-18T12:29:26Z</time>
      </trkpt>
      <trkpt lat="49.17092" lon="6.84653">
        <ele>235</ele>
        <time>2021-12-18T12:29:32Z</time>
      </trkpt>
      <trkpt lat="49.17093" lon="6.84667">
        <ele>234.4</ele>
        <time>2021-12-18T12:29:39Z</time>
      </trkpt>
      <trkpt lat="49.17093" lon="6.84684">
        <ele>233.8</ele>
        <time>2021-12-18T12:29:46Z</time>
      </trkpt>
      <trkpt lat="49.17095" lon="6.84698">
        <ele>233.3</ele>
        <time>2021-12-18T12:29:52Z</time>
      </trkpt>
      <trkpt lat="49.17099" lon="6.84712">
        <ele>232.8</ele>
        <time>2021-12-18T12:29:59Z</time>
      </trkpt>
      <trkpt lat="49.17101" lon="6.84726">
        <ele>232.5</ele>
        <time>2021-12-18T12:30:05Z</time>
      </trkpt>
      <trkpt lat="49.171" lon="6.8474">
        <ele>232.1</ele>
        <time>2021-12-18T12:30:12Z</time>
      </trkpt>
      <trkpt lat="49.17102" lon="6.84755">
        <ele>231.7</ele>
        <time>2021-12-18T12:30:19Z</time>
      </trkpt>
      <trkpt lat="49.17104" lon="6.84769">
        <ele>231.3</ele>
        <time>2021-12-18T12:30:27Z</time>
      </trkpt>
      <trkpt lat="49.17104" lon="6.84784">
        <ele>230.9</ele>
        <time>2021-12-18T12:30:34Z</time>
      </trkpt>
      <trkpt lat="49.17104" lon="6.84798">
        <ele>230.6</ele>
        <time>2021-12-18T12:30:41Z</time>
      </trkpt>
      <trkpt lat="49.17107" lon="6.84813">
        <ele>230.2</ele>
        <time>2021-12-18T12:30:50Z</time>
      </trkpt>
      <trkpt lat="49.1711" lon="6.84829">
        <ele>229.8</ele>
        <time>2021-12-18T12:30:55Z</time>
      </trkpt>
      <trkpt lat="49.17112" lon="6.84844">
        <ele>229.4</ele>
        <time>2021-12-18T12:31:01Z</time>
      </trkpt>
      <trkpt lat="49.17112" lon="6.84859">
        <ele>229</ele>
        <time>2021-12-18T12:31:06Z</time>
      </trkpt>
      <trkpt lat="49.17112" lon="6.84874">
        <ele>228.7</ele>
        <time>2021-12-18T12:31:12Z</time>
      </trkpt>
      <trkpt lat="49.17115" lon="6.84888">
        <ele>228.4</ele>
        <time>2021-12-18T12:31:20Z</time>
      </trkpt>
      <trkpt lat="49.17114" lon="6.84904">
        <ele>228.1</ele>
        <time>2021-12-18T12:31:26Z</time>
      </trkpt>
      <trkpt lat="49.17118" lon="6.84917">
        <ele>227.9</ele>
        <time>2021-12-18T12:31:31Z</time>
      </trkpt>
      <trkpt lat="49.17121" lon="6.84931">
        <ele>227.6</ele>
        <time>2021-12-18T12:31:39Z</time>
      </trkpt>
      <trkpt lat="49.1712" lon="6.84946">
        <ele>227.4</ele>
        <time>2021-12-18T12:31:47Z</time>
      </trkpt>
      <trkpt lat="49.17123" lon="6.84959">
        <ele>227.1</ele>
        <time>2021-12-18T12:31:53Z</time>
      </trkpt>
      <trkpt lat="49.17127" lon="6.84972">
        <ele>227</ele>
        <time>2021-12-18T12:32:01Z</time>
      </trkpt>
      <trkpt lat="49.17126" lon="6.84987">
        <ele>226.8</ele>
        <time>2021-12-18T12:32:07Z</time>
      </trkpt>
      <trkpt lat="49.17125" lon="6.85001">
        <ele>226.7</ele>
        <time>2021-12-18T12:32:13Z</time>
      </trkpt>
      <trkpt lat="49.17125" lon="6.85015">
        <ele>226.5</ele>
        <time>2021-12-18T12:32:18Z</time>
      </trkpt>
      <trkpt lat="49.17132" lon="6.85024">
        <ele>226.3</ele>
        <time>2021-12-18T12:32:25Z</time>
      </trkpt>
      <trkpt lat="49.17134" lon="6.85038">
        <ele>226.1</ele>
        <time>2021-12-18T12:32:36Z</time>
      </trkpt>
      <trkpt lat="49.1714" lon="6.8505">
        <ele>225.7</ele>
        <time>2021-12-18T12:32:43Z</time>
      </trkpt>
      <trkpt lat="49.1714" lon="6.8506">
        <ele>225.7</ele>
        <time>2021-12-18T12:33:10Z</time>
      </trkpt>
      <trkpt lat="49.17141" lon="6.85061">
        <ele>225.7</ele>
        <time>2021-12-18T12:33:11Z</time>
      </trkpt>
      <trkpt lat="49.1715" lon="6.85052">
        <ele>225.6</ele>
        <time>2021-12-18T12:33:17Z</time>
      </trkpt>
      <trkpt lat="49.17159" lon="6.85047">
        <ele>225.3</ele>
        <time>2021-12-18T12:33:24Z</time>
      </trkpt>
      <trkpt lat="49.1717" lon="6.85049">
        <ele>224.9</ele>
        <time>2021-12-18T12:33:32Z</time>
      </trkpt>
      <trkpt lat="49.17179" lon="6.85045">
        <ele>224.2</ele>
        <time>2021-12-18T12:33:37Z</time>
      </trkpt>
      <trkpt lat="49.17189" lon="6.85042">
        <ele>223.5</ele>
        <time>2021-12-18T12:33:43Z</time>
      </trkpt>
      <trkpt lat="49.17197" lon="6.85036">
        <ele>222.7</ele>
        <time>2021-12-18T12:33:51Z</time>
      </trkpt>
      <trkpt lat="49.17206" lon="6.85036">
        <ele>222.1</ele>
        <time>2021-12-18T12:33:56Z</time>
      </trkpt>
      <trkpt lat="49.17217" lon="6.85037">
        <ele>221.6</ele>
        <time>2021-12-18T12:34:04Z</time>
      </trkpt>
      <trkpt lat="49.17226" lon="6.85034">
        <ele>221.4</ele>
        <time>2021-12-18T12:34:13Z</time>
      </trkpt>
      <trkpt lat="49.17235" lon="6.85032">
        <ele>221.3</ele>
        <time>2021-12-18T12:34:21Z</time>
      </trkpt>
      <trkpt lat="49.17245" lon="6.85032">
        <ele>221.3</ele>
        <time>2021-12-18T12:34:27Z</time>
      </trkpt>
      <trkpt lat="49.17256" lon="6.85033">
        <ele>221.5</ele>
        <time>2021-12-18T12:34:33Z</time>
      </trkpt>
      <trkpt lat="49.17265" lon="6.85031">
        <ele>221.9</ele>
        <time>2021-12-18T12:34:39Z</time>
      </trkpt>
      <trkpt lat="49.17275" lon="6.85022">
        <ele>222.7</ele>
        <time>2021-12-18T12:34:45Z</time>
      </trkpt>
      <trkpt lat="49.17285" lon="6.8502">
        <ele>223.6</ele>
        <time>2021-12-18T12:34:54Z</time>
      </trkpt>
      <trkpt lat="49.17293" lon="6.85016">
        <ele>224.6</ele>
        <time>2021-12-18T12:35:03Z</time>
      </trkpt>
      <trkpt lat="49.17302" lon="6.85013">
        <ele>225.6</ele>
        <time>2021-12-18T12:35:11Z</time>
      </trkpt>
      <trkpt lat="49.17312" lon="6.85013">
        <ele>226.8</ele>
        <time>2021-12-18T12:35:20Z</time>
      </trkpt>
      <trkpt lat="49.17322" lon="6.8501">
        <ele>228</ele>
        <time>2021-12-18T12:35:27Z</time>
      </trkpt>
      <trkpt lat="49.17332" lon="6.85007">
        <ele>229.1</ele>
        <time>2021-12-18T12:35:35Z</time>
      </trkpt>
      <trkpt lat="49.17341" lon="6.85002">
        <ele>230.1</ele>
        <time>2021-12-18T12:35:44Z</time>
      </trkpt>
      <trkpt lat="49.1735" lon="6.84999">
        <ele>231</ele>
        <time>2021-12-18T12:35:54Z</time>
      </trkpt>
      <trkpt lat="49.17358" lon="6.84995">
        <ele>232</ele>
        <time>2021-12-18T12:36:00Z</time>
      </trkpt>
      <trkpt lat="49.17369" lon="6.84989">
        <ele>233</ele>
        <time>2021-12-18T12:36:09Z</time>
      </trkpt>
      <trkpt lat="49.17379" lon="6.84989">
        <ele>233.9</ele>
        <time>2021-12-18T12:36:17Z</time>
      </trkpt>
      <trkpt lat="49.17387" lon="6.84993">
        <ele>234</ele>
        <time>2021-12-18T12:36:27Z</time>
      </trkpt>
      <trkpt lat="49.17389" lon="6.84995">
        <ele>233.9</ele>
        <time>2021-12-18T12:36:45Z</time>
      </trkpt>
      <trkpt lat="49.17389" lon="6.84995">
        <ele>234.1</ele>
        <time>2021-12-18T12:36:46Z</time>
      </trkpt>
      <trkpt lat="49.17393" lon="6.84979">
        <ele>235.7</ele>
        <time>2021-12-18T12:37:01Z</time>
      </trkpt>
      <trkpt lat="49.1739" lon="6.84964">
        <ele>236.8</ele>
        <time>2021-12-18T12:37:10Z</time>
      </trkpt>
      <trkpt lat="49.17386" lon="6.84951">
        <ele>237.8</ele>
        <time>2021-12-18T12:37:18Z</time>
      </trkpt>
      <trkpt lat="49.17387" lon="6.84936">
        <ele>239</ele>
        <time>2021-12-18T12:37:25Z</time>
      </trkpt>
      <trkpt lat="49.17387" lon="6.84921">
        <ele>239.9</ele>
        <time>2021-12-18T12:37:33Z</time>
      </trkpt>
      <trkpt lat="49.17389" lon="6.84907">
        <ele>241.4</ele>
        <time>2021-12-18T12:37:39Z</time>
      </trkpt>
      <trkpt lat="49.17387" lon="6.84892">
        <ele>242.2</ele>
        <time>2021-12-18T12:37:48Z</time>
      </trkpt>
      <trkpt lat="49.17384" lon="6.84878">
        <ele>243</ele>
        <time>2021-12-18T12:37:56Z</time>
      </trkpt>
      <trkpt lat="49.1738" lon="6.84864">
        <ele>244</ele>
        <time>2021-12-18T12:38:04Z</time>
      </trkpt>
      <trkpt lat="49.17377" lon="6.84851">
        <ele>244.6</ele>
        <time>2021-12-18T12:38:12Z</time>
      </trkpt>
      <trkpt lat="49.17374" lon="6.84838">
        <ele>245.2</ele>
        <time>2021-12-18T12:38:21Z</time>
      </trkpt>
      <trkpt lat="49.17376" lon="6.84825">
        <ele>245.9</ele>
        <time>2021-12-18T12:38:29Z</time>
      </trkpt>
      <trkpt lat="49.17377" lon="6.84811">
        <ele>246.9</ele>
        <time>2021-12-18T12:38:36Z</time>
      </trkpt>
      <trkpt lat="49.17377" lon="6.84797">
        <ele>247.7</ele>
        <time>2021-12-18T12:38:46Z</time>
      </trkpt>
      <trkpt lat="49.17374" lon="6.84782">
        <ele>248.5</ele>
        <time>2021-12-18T12:38:55Z</time>
      </trkpt>
      <trkpt lat="49.17367" lon="6.84773">
        <ele>248.7</ele>
        <time>2021-12-18T12:39:01Z</time>
      </trkpt>
      <trkpt lat="49.17363" lon="6.8476">
        <ele>249.4</ele>
        <time>2021-12-18T12:39:08Z</time>
      </trkpt>
      <trkpt lat="49.17359" lon="6.84748">
        <ele>249.9</ele>
        <time>2021-12-18T12:39:16Z</time>
      </trkpt>
      <trkpt lat="49.1736" lon="6.84764">
        <ele>249.4</ele>
        <time>2021-12-18T12:39:35Z</time>
      </trkpt>
      <trkpt lat="49.17366" lon="6.84775">
        <ele>249.1</ele>
        <time>2021-12-18T12:39:43Z</time>
      </trkpt>
      <trkpt lat="49.17374" lon="6.84785">
        <ele>249.1</ele>
        <time>2021-12-18T12:39:52Z</time>
      </trkpt>
      <trkpt lat="49.1738" lon="6.84796">
        <ele>249</ele>
        <time>2021-12-18T12:40:02Z</time>
      </trkpt>
      <trkpt lat="49.1739" lon="6.84801">
        <ele>249.4</ele>
        <time>2021-12-18T12:40:10Z</time>
      </trkpt>
      <trkpt lat="49.17399" lon="6.84804">
        <ele>250.1</ele>
        <time>2021-12-18T12:40:18Z</time>
      </trkpt>
      <trkpt lat="49.17407" lon="6.84811">
        <ele>250.5</ele>
        <time>2021-12-18T12:40:26Z</time>
      </trkpt>
      <trkpt lat="49.17414" lon="6.8482">
        <ele>250.7</ele>
        <time>2021-12-18T12:40:34Z</time>
      </trkpt>
      <trkpt lat="49.17422" lon="6.8483">
        <ele>250.9</ele>
        <time>2021-12-18T12:40:42Z</time>
      </trkpt>
      <trkpt lat="49.17431" lon="6.84825">
        <ele>251.5</ele>
        <time>2021-12-18T12:40:53Z</time>
      </trkpt>
      <trkpt lat="49.17438" lon="6.84814">
        <ele>252.2</ele>
        <time>2021-12-18T12:40:58Z</time>
      </trkpt>
      <trkpt lat="49.17444" lon="6.84803">
        <ele>253.3</ele>
        <time>2021-12-18T12:41:04Z</time>
      </trkpt>
      <trkpt lat="49.17442" lon="6.84789">
        <ele>253.8</ele>
        <time>2021-12-18T12:41:14Z</time>
      </trkpt>
      <trkpt lat="49.1744" lon="6.84788">
        <ele>253.8</ele>
        <time>2021-12-18T12:41:52Z</time>
      </trkpt>
      <trkpt lat="49.1744" lon="6.84787">
        <ele>253.8</ele>
        <time>2021-12-18T12:41:53Z</time>
      </trkpt>
      <trkpt lat="49.17442" lon="6.84785">
        <ele>253.7</ele>
        <time>2021-12-18T12:42:13Z</time>
      </trkpt>
      <trkpt lat="49.17442" lon="6.84785">
        <ele>253.7</ele>
        <time>2021-12-18T12:42:14Z</time>
      </trkpt>
      <trkpt lat="49.17442" lon="6.84788">
        <ele>253.7</ele>
        <time>2021-12-18T12:42:23Z</time>
      </trkpt>
      <trkpt lat="49.17442" lon="6.84789">
        <ele>253.7</ele>
        <time>2021-12-18T12:42:24Z</time>
      </trkpt>
      <trkpt lat="49.17442" lon="6.84789">
        <ele>253.7</ele>
        <time>2021-12-18T12:42:26Z</time>
      </trkpt>
      <trkpt lat="49.17441" lon="6.84789">
        <ele>253.6</ele>
        <time>2021-12-18T12:42:27Z</time>
      </trkpt>
      <trkpt lat="49.17441" lon="6.84789">
        <ele>253.6</ele>
        <time>2021-12-18T12:42:31Z</time>
      </trkpt>
      <trkpt lat="49.17441" lon="6.84789">
        <ele>253.6</ele>
        <time>2021-12-18T12:42:32Z</time>
      </trkpt>
      <trkpt lat="49.17441" lon="6.84789">
        <ele>253.6</ele>
        <time>2021-12-18T12:42:33Z</time>
      </trkpt>
      <trkpt lat="49.17441" lon="6.84789">
        <ele>253.6</ele>
        <time>2021-12-18T12:42:34Z</time>
      </trkpt>
      <trkpt lat="49.17438" lon="6.84793">
        <ele>253.5</ele>
        <time>2021-12-18T12:42:53Z</time>
      </trkpt>
      <trkpt lat="49.17438" lon="6.84793">
        <ele>253.5</ele>
        <time>2021-12-18T12:42:55Z</time>
      </trkpt>
      <trkpt lat="49.17439" lon="6.84792">
        <ele>253.5</ele>
        <time>2021-12-18T12:43:00Z</time>
      </trkpt>
      <trkpt lat="49.17439" lon="6.84792">
        <ele>253.5</ele>
        <time>2021-12-18T12:43:01Z</time>
      </trkpt>
      <trkpt lat="49.17439" lon="6.84793">
        <ele>253.5</ele>
        <time>2021-12-18T12:43:04Z</time>
      </trkpt>
      <trkpt lat="49.17439" lon="6.84792">
        <ele>253.5</ele>
        <time>2021-12-18T12:43:05Z</time>
      </trkpt>
      <trkpt lat="49.17439" lon="6.84793">
        <ele>253.5</ele>
        <time>2021-12-18T12:43:06Z</time>
      </trkpt>
      <trkpt lat="49.17438" lon="6.84793">
        <ele>253.5</ele>
        <time>2021-12-18T12:43:07Z</time>
      </trkpt>
      <trkpt lat="49.17441" lon="6.84791">
        <ele>253.4</ele>
        <time>2021-12-18T12:43:16Z</time>
      </trkpt>
      <trkpt lat="49.17441" lon="6.84791">
        <ele>253.4</ele>
        <time>2021-12-18T12:43:17Z</time>
      </trkpt>
      <trkpt lat="49.17441" lon="6.84791">
        <ele>253.4</ele>
        <time>2021-12-18T12:43:27Z</time>
      </trkpt>
      <trkpt lat="49.17441" lon="6.84791">
        <ele>253.3</ele>
        <time>2021-12-18T12:43:29Z</time>
      </trkpt>
      <trkpt lat="49.17441" lon="6.84792">
        <ele>253.3</ele>
        <time>2021-12-18T12:43:36Z</time>
      </trkpt>
      <trkpt lat="49.1744" lon="6.84792">
        <ele>253.3</ele>
        <time>2021-12-18T12:43:37Z</time>
      </trkpt>
      <trkpt lat="49.17442" lon="6.84789">
        <ele>253.2</ele>
        <time>2021-12-18T12:43:50Z</time>
      </trkpt>
      <trkpt lat="49.17442" lon="6.84788">
        <ele>253.2</ele>
        <time>2021-12-18T12:43:51Z</time>
      </trkpt>
      <trkpt lat="49.17442" lon="6.84789">
        <ele>253.2</ele>
        <time>2021-12-18T12:43:52Z</time>
      </trkpt>
      <trkpt lat="49.17442" lon="6.84788">
        <ele>253.2</ele>
        <time>2021-12-18T12:43:53Z</time>
      </trkpt>
      <trkpt lat="49.17442" lon="6.84788">
        <ele>253.2</ele>
        <time>2021-12-18T12:43:54Z</time>
      </trkpt>
      <trkpt lat="49.17442" lon="6.84789">
        <ele>253.2</ele>
        <time>2021-12-18T12:43:55Z</time>
      </trkpt>
      <trkpt lat="49.17442" lon="6.8479">
        <ele>253.2</ele>
        <time>2021-12-18T12:43:57Z</time>
      </trkpt>
      <trkpt lat="49.17442" lon="6.8479">
        <ele>253.2</ele>
        <time>2021-12-18T12:43:58Z</time>
      </trkpt>
      <trkpt lat="49.17442" lon="6.8479">
        <ele>253.1</ele>
        <time>2021-12-18T12:43:59Z</time>
      </trkpt>
      <trkpt lat="49.17443" lon="6.8479">
        <ele>253.1</ele>
        <time>2021-12-18T12:44:00Z</time>
      </trkpt>
      <trkpt lat="49.17446" lon="6.84794">
        <ele>253</ele>
        <time>2021-12-18T12:44:14Z</time>
      </trkpt>
      <trkpt lat="49.17446" lon="6.84793">
        <ele>253</ele>
        <time>2021-12-18T12:44:15Z</time>
      </trkpt>
      <trkpt lat="49.17444" lon="6.84794">
        <ele>252.9</ele>
        <time>2021-12-18T12:45:03Z</time>
      </trkpt>
      <trkpt lat="49.17444" lon="6.84794">
        <ele>252.9</ele>
        <time>2021-12-18T12:45:05Z</time>
      </trkpt>
      <trkpt lat="49.17451" lon="6.84805">
        <ele>252.5</ele>
        <time>2021-12-18T12:46:15Z</time>
      </trkpt>
      <trkpt lat="49.17457" lon="6.84815">
        <ele>252</ele>
        <time>2021-12-18T12:46:24Z</time>
      </trkpt>
      <trkpt lat="49.17459" lon="6.8483">
        <ele>251.5</ele>
        <time>2021-12-18T12:46:44Z</time>
      </trkpt>
      <trkpt lat="49.17464" lon="6.84842">
        <ele>251.1</ele>
        <time>2021-12-18T12:46:50Z</time>
      </trkpt>
      <trkpt lat="49.17469" lon="6.84855">
        <ele>250.5</ele>
        <time>2021-12-18T12:46:58Z</time>
      </trkpt>
      <trkpt lat="49.17475" lon="6.84867">
        <ele>250</ele>
        <time>2021-12-18T12:47:05Z</time>
      </trkpt>
      <trkpt lat="49.17479" lon="6.8488">
        <ele>249.5</ele>
        <time>2021-12-18T12:47:12Z</time>
      </trkpt>
      <trkpt lat="49.17484" lon="6.84891">
        <ele>249</ele>
        <time>2021-12-18T12:47:19Z</time>
      </trkpt>
      <trkpt lat="49.17491" lon="6.84903">
        <ele>248.5</ele>
        <time>2021-12-18T12:47:27Z</time>
      </trkpt>
      <trkpt lat="49.17497" lon="6.84915">
        <ele>248</ele>
        <time>2021-12-18T12:47:34Z</time>
      </trkpt>
      <trkpt lat="49.17503" lon="6.84925">
        <ele>247.6</ele>
        <time>2021-12-18T12:47:41Z</time>
      </trkpt>
      <trkpt lat="49.17509" lon="6.84936">
        <ele>247.1</ele>
        <time>2021-12-18T12:47:48Z</time>
      </trkpt>
      <trkpt lat="49.17516" lon="6.84947">
        <ele>246.6</ele>
        <time>2021-12-18T12:47:56Z</time>
      </trkpt>
      <trkpt lat="49.17523" lon="6.84958">
        <ele>246.1</ele>
        <time>2021-12-18T12:48:03Z</time>
      </trkpt>
      <trkpt lat="49.1753" lon="6.84967">
        <ele>245.7</ele>
        <time>2021-12-18T12:48:10Z</time>
      </trkpt>
      <trkpt lat="49.17537" lon="6.84977">
        <ele>245.2</ele>
        <time>2021-12-18T12:48:17Z</time>
      </trkpt>
      <trkpt lat="49.17544" lon="6.84987">
        <ele>244.7</ele>
        <time>2021-12-18T12:48:24Z</time>
      </trkpt>
      <trkpt lat="49.17552" lon="6.84997">
        <ele>244.1</ele>
        <time>2021-12-18T12:48:32Z</time>
      </trkpt>
      <trkpt lat="49.17559" lon="6.85006">
        <ele>243.6</ele>
        <time>2021-12-18T12:48:39Z</time>
      </trkpt>
      <trkpt lat="49.17567" lon="6.85014">
        <ele>243.1</ele>
        <time>2021-12-18T12:48:47Z</time>
      </trkpt>
      <trkpt lat="49.17575" lon="6.85023">
        <ele>242.5</ele>
        <time>2021-12-18T12:48:54Z</time>
      </trkpt>
      <trkpt lat="49.17583" lon="6.8503">
        <ele>242.1</ele>
        <time>2021-12-18T12:49:01Z</time>
      </trkpt>
      <trkpt lat="49.1759" lon="6.85041">
        <ele>241.6</ele>
        <time>2021-12-18T12:49:08Z</time>
      </trkpt>
      <trkpt lat="49.17598" lon="6.8505">
        <ele>241</ele>
        <time>2021-12-18T12:49:15Z</time>
      </trkpt>
      <trkpt lat="49.17607" lon="6.85056">
        <ele>240.6</ele>
        <time>2021-12-18T12:49:22Z</time>
      </trkpt>
      <trkpt lat="49.17613" lon="6.85067">
        <ele>240.1</ele>
        <time>2021-12-18T12:49:29Z</time>
      </trkpt>
      <trkpt lat="49.17618" lon="6.85079">
        <ele>239.7</ele>
        <time>2021-12-18T12:49:38Z</time>
      </trkpt>
      <trkpt lat="49.17624" lon="6.8508">
        <ele>239.5</ele>
        <time>2021-12-18T12:49:50Z</time>
      </trkpt>
      <trkpt lat="49.17625" lon="6.8508">
        <ele>239.5</ele>
        <time>2021-12-18T12:49:51Z</time>
      </trkpt>
      <trkpt lat="49.17634" lon="6.85083">
        <ele>239.2</ele>
        <time>2021-12-18T12:49:59Z</time>
      </trkpt>
      <trkpt lat="49.17642" lon="6.85091">
        <ele>238.9</ele>
        <time>2021-12-18T12:50:05Z</time>
      </trkpt>
      <trkpt lat="49.1765" lon="6.85099">
        <ele>238.6</ele>
        <time>2021-12-18T12:50:12Z</time>
      </trkpt>
      <trkpt lat="49.17657" lon="6.85109">
        <ele>238.3</ele>
        <time>2021-12-18T12:50:19Z</time>
      </trkpt>
      <trkpt lat="49.17667" lon="6.85105">
        <ele>238.1</ele>
        <time>2021-12-18T12:50:28Z</time>
      </trkpt>
      <trkpt lat="49.17676" lon="6.85097">
        <ele>238.4</ele>
        <time>2021-12-18T12:50:33Z</time>
      </trkpt>
      <trkpt lat="49.17684" lon="6.85088">
        <ele>238.8</ele>
        <time>2021-12-18T12:50:40Z</time>
      </trkpt>
      <trkpt lat="49.17692" lon="6.8508">
        <ele>239.1</ele>
        <time>2021-12-18T12:50:50Z</time>
      </trkpt>
      <trkpt lat="49.17699" lon="6.85071">
        <ele>238.2</ele>
        <time>2021-12-18T12:50:58Z</time>
      </trkpt>
      <trkpt lat="49.17705" lon="6.8506">
        <ele>237.5</ele>
        <time>2021-12-18T12:51:05Z</time>
      </trkpt>
      <trkpt lat="49.17712" lon="6.85051">
        <ele>236.8</ele>
        <time>2021-12-18T12:51:12Z</time>
      </trkpt>
      <trkpt lat="49.17719" lon="6.85041">
        <ele>236</ele>
        <time>2021-12-18T12:51:20Z</time>
      </trkpt>
      <trkpt lat="49.17727" lon="6.85031">
        <ele>235.2</ele>
        <time>2021-12-18T12:51:26Z</time>
      </trkpt>
      <trkpt lat="49.17734" lon="6.85022">
        <ele>234.6</ele>
        <time>2021-12-18T12:51:34Z</time>
      </trkpt>
      <trkpt lat="49.1774" lon="6.8501">
        <ele>233.9</ele>
        <time>2021-12-18T12:51:43Z</time>
      </trkpt>
      <trkpt lat="49.17746" lon="6.85005">
        <ele>233.4</ele>
        <time>2021-12-18T12:51:59Z</time>
      </trkpt>
      <trkpt lat="49.17746" lon="6.85004">
        <ele>233.4</ele>
        <time>2021-12-18T12:52:00Z</time>
      </trkpt>
      <trkpt lat="49.17746" lon="6.85004">
        <ele>233.4</ele>
        <time>2021-12-18T12:52:01Z</time>
      </trkpt>
      <trkpt lat="49.17747" lon="6.85003">
        <ele>233.4</ele>
        <time>2021-12-18T12:52:02Z</time>
      </trkpt>
      <trkpt lat="49.17755" lon="6.84996">
        <ele>232.8</ele>
        <time>2021-12-18T12:52:10Z</time>
      </trkpt>
      <trkpt lat="49.17762" lon="6.84986">
        <ele>232.3</ele>
        <time>2021-12-18T12:52:18Z</time>
      </trkpt>
      <trkpt lat="49.17768" lon="6.84974">
        <ele>231.8</ele>
        <time>2021-12-18T12:52:24Z</time>
      </trkpt>
      <trkpt lat="49.17775" lon="6.84961">
        <ele>231.2</ele>
        <time>2021-12-18T12:52:31Z</time>
      </trkpt>
      <trkpt lat="49.17783" lon="6.84951">
        <ele>230.7</ele>
        <time>2021-12-18T12:52:34Z</time>
      </trkpt>
      <trkpt lat="49.17791" lon="6.84941">
        <ele>230.1</ele>
        <time>2021-12-18T12:52:41Z</time>
      </trkpt>
      <trkpt lat="49.17798" lon="6.84932">
        <ele>229.6</ele>
        <time>2021-12-18T12:52:46Z</time>
      </trkpt>
      <trkpt lat="49.17805" lon="6.84921">
        <ele>229.1</ele>
        <time>2021-12-18T12:52:51Z</time>
      </trkpt>
      <trkpt lat="49.17814" lon="6.84912">
        <ele>228.6</ele>
        <time>2021-12-18T12:52:57Z</time>
      </trkpt>
      <trkpt lat="49.17823" lon="6.84906">
        <ele>228.1</ele>
        <time>2021-12-18T12:53:05Z</time>
      </trkpt>
      <trkpt lat="49.17831" lon="6.84897">
        <ele>227.7</ele>
        <time>2021-12-18T12:53:20Z</time>
      </trkpt>
      <trkpt lat="49.17835" lon="6.8489">
        <ele>227.3</ele>
        <time>2021-12-18T12:53:34Z</time>
      </trkpt>
      <trkpt lat="49.17836" lon="6.84889">
        <ele>227.3</ele>
        <time>2021-12-18T12:53:35Z</time>
      </trkpt>
      <trkpt lat="49.17839" lon="6.84884">
        <ele>227.1</ele>
        <time>2021-12-18T12:53:41Z</time>
      </trkpt>
      <trkpt lat="49.17839" lon="6.84884">
        <ele>227.1</ele>
        <time>2021-12-18T12:53:42Z</time>
      </trkpt>
      <trkpt lat="49.17841" lon="6.84884">
        <ele>227</ele>
        <time>2021-12-18T12:53:59Z</time>
      </trkpt>
      <trkpt lat="49.17841" lon="6.84886">
        <ele>227</ele>
        <time>2021-12-18T12:54:00Z</time>
      </trkpt>
      <trkpt lat="49.1784" lon="6.84889">
        <ele>226.9</ele>
        <time>2021-12-18T12:54:05Z</time>
      </trkpt>
      <trkpt lat="49.1784" lon="6.84889">
        <ele>226.9</ele>
        <time>2021-12-18T12:54:06Z</time>
      </trkpt>
      <trkpt lat="49.17842" lon="6.8489">
        <ele>226.8</ele>
        <time>2021-12-18T12:54:13Z</time>
      </trkpt>
      <trkpt lat="49.17842" lon="6.84889">
        <ele>226.8</ele>
        <time>2021-12-18T12:54:14Z</time>
      </trkpt>
      <trkpt lat="49.17849" lon="6.8488">
        <ele>226.4</ele>
        <time>2021-12-18T12:54:39Z</time>
      </trkpt>
      <trkpt lat="49.17854" lon="6.84884">
        <ele>226.2</ele>
        <time>2021-12-18T12:54:47Z</time>
      </trkpt>
      <trkpt lat="49.17854" lon="6.84885">
        <ele>226.1</ele>
        <time>2021-12-18T12:54:48Z</time>
      </trkpt>
      <trkpt lat="49.17859" lon="6.84899">
        <ele>225.7</ele>
        <time>2021-12-18T12:54:57Z</time>
      </trkpt>
      <trkpt lat="49.17859" lon="6.84915">
        <ele>225.3</ele>
        <time>2021-12-18T12:55:04Z</time>
      </trkpt>
      <trkpt lat="49.1784" lon="6.84904">
        <ele>224.6</ele>
        <time>2021-12-18T12:55:21Z</time>
      </trkpt>
      <trkpt lat="49.17846" lon="6.84916">
        <ele>224.2</ele>
        <time>2021-12-18T12:55:31Z</time>
      </trkpt>
      <trkpt lat="49.17844" lon="6.84921">
        <ele>224.1</ele>
        <time>2021-12-18T12:55:36Z</time>
      </trkpt>
      <trkpt lat="49.17846" lon="6.84919">
        <ele>224</ele>
        <time>2021-12-18T12:55:37Z</time>
      </trkpt>
      <trkpt lat="49.17837" lon="6.84915">
        <ele>223.7</ele>
        <time>2021-12-18T12:55:53Z</time>
      </trkpt>
      <trkpt lat="49.17847" lon="6.84906">
        <ele>223.4</ele>
        <time>2021-12-18T12:55:58Z</time>
      </trkpt>
      <trkpt lat="49.17855" lon="6.84901">
        <ele>223.2</ele>
        <time>2021-12-18T12:56:09Z</time>
      </trkpt>
      <trkpt lat="49.17858" lon="6.84887">
        <ele>223</ele>
        <time>2021-12-18T12:56:26Z</time>
      </trkpt>
      <trkpt lat="49.17858" lon="6.84873">
        <ele>222.8</ele>
        <time>2021-12-18T12:56:36Z</time>
      </trkpt>
      <trkpt lat="49.17852" lon="6.84861">
        <ele>222.7</ele>
        <time>2021-12-18T12:56:42Z</time>
      </trkpt>
      <trkpt lat="49.17858" lon="6.84851">
        <ele>222.5</ele>
        <time>2021-12-18T12:57:11Z</time>
      </trkpt>
      <trkpt lat="49.17864" lon="6.84837">
        <ele>222.4</ele>
        <time>2021-12-18T12:57:36Z</time>
      </trkpt>
      <trkpt lat="49.17875" lon="6.84827">
        <ele>222.2</ele>
        <time>2021-12-18T12:57:45Z</time>
      </trkpt>
      <trkpt lat="49.17881" lon="6.84817">
        <ele>222.1</ele>
        <time>2021-12-18T12:57:51Z</time>
      </trkpt>
      <trkpt lat="49.17883" lon="6.84802">
        <ele>222</ele>
        <time>2021-12-18T12:58:09Z</time>
      </trkpt>
      <trkpt lat="49.17887" lon="6.8479">
        <ele>222</ele>
        <time>2021-12-18T12:58:14Z</time>
      </trkpt>
      <trkpt lat="49.17885" lon="6.84776">
        <ele>222.7</ele>
        <time>2021-12-18T12:58:23Z</time>
      </trkpt>
      <trkpt lat="49.17879" lon="6.84764">
        <ele>223.4</ele>
        <time>2021-12-18T12:58:30Z</time>
      </trkpt>
      <trkpt lat="49.17873" lon="6.84753">
        <ele>224.1</ele>
        <time>2021-12-18T12:58:37Z</time>
      </trkpt>
      <trkpt lat="49.17866" lon="6.84744">
        <ele>224.8</ele>
        <time>2021-12-18T12:58:44Z</time>
      </trkpt>
      <trkpt lat="49.17858" lon="6.84733">
        <ele>225.7</ele>
        <time>2021-12-18T12:58:50Z</time>
      </trkpt>
      <trkpt lat="49.17849" lon="6.84723">
        <ele>226.6</ele>
        <time>2021-12-18T12:58:58Z</time>
      </trkpt>
      <trkpt lat="49.17844" lon="6.84711">
        <ele>227.3</ele>
        <time>2021-12-18T12:59:06Z</time>
      </trkpt>
      <trkpt lat="49.17838" lon="6.847">
        <ele>228.1</ele>
        <time>2021-12-18T12:59:15Z</time>
      </trkpt>
      <trkpt lat="49.17832" lon="6.84688">
        <ele>228.9</ele>
        <time>2021-12-18T12:59:24Z</time>
      </trkpt>
      <trkpt lat="49.17823" lon="6.8468">
        <ele>229.7</ele>
        <time>2021-12-18T12:59:34Z</time>
      </trkpt>
      <trkpt lat="49.17817" lon="6.8467">
        <ele>230.4</ele>
        <time>2021-12-18T12:59:40Z</time>
      </trkpt>
      <trkpt lat="49.1781" lon="6.84658">
        <ele>231.1</ele>
        <time>2021-12-18T12:59:46Z</time>
      </trkpt>
      <trkpt lat="49.17801" lon="6.84652">
        <ele>231.8</ele>
        <time>2021-12-18T12:59:52Z</time>
      </trkpt>
      <trkpt lat="49.17796" lon="6.84637">
        <ele>232.5</ele>
        <time>2021-12-18T13:00:00Z</time>
      </trkpt>
      <trkpt lat="49.17789" lon="6.84627">
        <ele>233.2</ele>
        <time>2021-12-18T13:00:11Z</time>
      </trkpt>
      <trkpt lat="49.17779" lon="6.84623">
        <ele>233.9</ele>
        <time>2021-12-18T13:00:21Z</time>
      </trkpt>
      <trkpt lat="49.17771" lon="6.84616">
        <ele>234.6</ele>
        <time>2021-12-18T13:00:28Z</time>
      </trkpt>
      <trkpt lat="49.17766" lon="6.84604">
        <ele>235.2</ele>
        <time>2021-12-18T13:00:36Z</time>
      </trkpt>
      <trkpt lat="49.1776" lon="6.84592">
        <ele>235.9</ele>
        <time>2021-12-18T13:00:42Z</time>
      </trkpt>
      <trkpt lat="49.17756" lon="6.8458">
        <ele>236.5</ele>
        <time>2021-12-18T13:00:48Z</time>
      </trkpt>
      <trkpt lat="49.17751" lon="6.84567">
        <ele>237.2</ele>
        <time>2021-12-18T13:00:55Z</time>
      </trkpt>
      <trkpt lat="49.17756" lon="6.84551">
        <ele>238</ele>
        <time>2021-12-18T13:00:59Z</time>
      </trkpt>
      <trkpt lat="49.17755" lon="6.84536">
        <ele>238.7</ele>
        <time>2021-12-18T13:01:04Z</time>
      </trkpt>
      <trkpt lat="49.17747" lon="6.84528">
        <ele>239.5</ele>
        <time>2021-12-18T13:01:10Z</time>
      </trkpt>
      <trkpt lat="49.17745" lon="6.84514">
        <ele>240.2</ele>
        <time>2021-12-18T13:01:17Z</time>
      </trkpt>
      <trkpt lat="49.1774" lon="6.84503">
        <ele>240.9</ele>
        <time>2021-12-18T13:01:25Z</time>
      </trkpt>
      <trkpt lat="49.17735" lon="6.84491">
        <ele>241.6</ele>
        <time>2021-12-18T13:01:34Z</time>
      </trkpt>
      <trkpt lat="49.17735" lon="6.84491">
        <ele>241.6</ele>
        <time>2021-12-18T13:01:35Z</time>
      </trkpt>
      <trkpt lat="49.17736" lon="6.84489">
        <ele>241.7</ele>
        <time>2021-12-18T13:01:36Z</time>
      </trkpt>
      <trkpt lat="49.17735" lon="6.84475">
        <ele>242.3</ele>
        <time>2021-12-18T13:01:46Z</time>
      </trkpt>
      <trkpt lat="49.17728" lon="6.84465">
        <ele>242.9</ele>
        <time>2021-12-18T13:01:53Z</time>
      </trkpt>
      <trkpt lat="49.17724" lon="6.84452">
        <ele>243.5</ele>
        <time>2021-12-18T13:02:01Z</time>
      </trkpt>
      <trkpt lat="49.17723" lon="6.84438">
        <ele>244.1</ele>
        <time>2021-12-18T13:02:08Z</time>
      </trkpt>
      <trkpt lat="49.17719" lon="6.84425">
        <ele>244.7</ele>
        <time>2021-12-18T13:02:15Z</time>
      </trkpt>
      <trkpt lat="49.17718" lon="6.84411">
        <ele>245.2</ele>
        <time>2021-12-18T13:02:25Z</time>
      </trkpt>
      <trkpt lat="49.17709" lon="6.84406">
        <ele>245.2</ele>
        <time>2021-12-18T13:02:31Z</time>
      </trkpt>
      <trkpt lat="49.17698" lon="6.84405">
        <ele>245.3</ele>
        <time>2021-12-18T13:02:38Z</time>
      </trkpt>
      <trkpt lat="49.17689" lon="6.84405">
        <ele>245.3</ele>
        <time>2021-12-18T13:02:45Z</time>
      </trkpt>
      <trkpt lat="49.17679" lon="6.84404">
        <ele>245.4</ele>
        <time>2021-12-18T13:02:50Z</time>
      </trkpt>
      <trkpt lat="49.17669" lon="6.84405">
        <ele>245.4</ele>
        <time>2021-12-18T13:02:57Z</time>
      </trkpt>
      <trkpt lat="49.1766" lon="6.84406">
        <ele>245.3</ele>
        <time>2021-12-18T13:03:04Z</time>
      </trkpt>
      <trkpt lat="49.17651" lon="6.84402">
        <ele>245.2</ele>
        <time>2021-12-18T13:03:09Z</time>
      </trkpt>
      <trkpt lat="49.17642" lon="6.84397">
        <ele>245.1</ele>
        <time>2021-12-18T13:03:15Z</time>
      </trkpt>
      <trkpt lat="49.17633" lon="6.84393">
        <ele>244.9</ele>
        <time>2021-12-18T13:03:22Z</time>
      </trkpt>
      <trkpt lat="49.17625" lon="6.84385">
        <ele>244.7</ele>
        <time>2021-12-18T13:03:31Z</time>
      </trkpt>
      <trkpt lat="49.17616" lon="6.84377">
        <ele>244.6</ele>
        <time>2021-12-18T13:03:39Z</time>
      </trkpt>
      <trkpt lat="49.17606" lon="6.84372">
        <ele>244.5</ele>
        <time>2021-12-18T13:03:45Z</time>
      </trkpt>
      <trkpt lat="49.17597" lon="6.84367">
        <ele>244.4</ele>
        <time>2021-12-18T13:03:51Z</time>
      </trkpt>
      <trkpt lat="49.17588" lon="6.84362">
        <ele>244.3</ele>
        <time>2021-12-18T13:03:58Z</time>
      </trkpt>
      <trkpt lat="49.17578" lon="6.84364">
        <ele>244.3</ele>
        <time>2021-12-18T13:04:05Z</time>
      </trkpt>
      <trkpt lat="49.17569" lon="6.84361">
        <ele>244.2</ele>
        <time>2021-12-18T13:04:12Z</time>
      </trkpt>
      <trkpt lat="49.1756" lon="6.84358">
        <ele>244.2</ele>
        <time>2021-12-18T13:04:19Z</time>
      </trkpt>
      <trkpt lat="49.17551" lon="6.84351">
        <ele>244.1</ele>
        <time>2021-12-18T13:04:25Z</time>
      </trkpt>
      <trkpt lat="49.17541" lon="6.84348">
        <ele>244</ele>
        <time>2021-12-18T13:04:33Z</time>
      </trkpt>
      <trkpt lat="49.17532" lon="6.84348">
        <ele>243.9</ele>
        <time>2021-12-18T13:04:40Z</time>
      </trkpt>
      <trkpt lat="49.17522" lon="6.84346">
        <ele>243.8</ele>
        <time>2021-12-18T13:04:48Z</time>
      </trkpt>
      <trkpt lat="49.17512" lon="6.84343">
        <ele>243.7</ele>
        <time>2021-12-18T13:04:56Z</time>
      </trkpt>
      <trkpt lat="49.17503" lon="6.84339">
        <ele>243.7</ele>
        <time>2021-12-18T13:05:03Z</time>
      </trkpt>
      <trkpt lat="49.17495" lon="6.84333">
        <ele>243.7</ele>
        <time>2021-12-18T13:05:09Z</time>
      </trkpt>
      <trkpt lat="49.17484" lon="6.84332">
        <ele>243.8</ele>
        <time>2021-12-18T13:05:14Z</time>
      </trkpt>
      <trkpt lat="49.17476" lon="6.84328">
        <ele>243.9</ele>
        <time>2021-12-18T13:05:20Z</time>
      </trkpt>
      <trkpt lat="49.17466" lon="6.84327">
        <ele>244.1</ele>
        <time>2021-12-18T13:05:29Z</time>
      </trkpt>
      <trkpt lat="49.17459" lon="6.84318">
        <ele>244.2</ele>
        <time>2021-12-18T13:05:39Z</time>
      </trkpt>
      <trkpt lat="49.1745" lon="6.84314">
        <ele>244.3</ele>
        <time>2021-12-18T13:05:48Z</time>
      </trkpt>
      <trkpt lat="49.17444" lon="6.84325">
        <ele>244.6</ele>
        <time>2021-12-18T13:06:00Z</time>
      </trkpt>
      <trkpt lat="49.17443" lon="6.84328">
        <ele>244.6</ele>
        <time>2021-12-18T13:06:14Z</time>
      </trkpt>
      <trkpt lat="49.17443" lon="6.84328">
        <ele>244.6</ele>
        <time>2021-12-18T13:06:15Z</time>
      </trkpt>
      <trkpt lat="49.17447" lon="6.84331">
        <ele>244.6</ele>
        <time>2021-12-18T13:06:24Z</time>
      </trkpt>
      <trkpt lat="49.17447" lon="6.8433">
        <ele>244.6</ele>
        <time>2021-12-18T13:06:25Z</time>
      </trkpt>
      <trkpt lat="49.17448" lon="6.84315">
        <ele>244.6</ele>
        <time>2021-12-18T13:06:31Z</time>
      </trkpt>
      <trkpt lat="49.17443" lon="6.84303">
        <ele>244.5</ele>
        <time>2021-12-18T13:06:37Z</time>
      </trkpt>
      <trkpt lat="49.17437" lon="6.84292">
        <ele>244.5</ele>
        <time>2021-12-18T13:06:45Z</time>
      </trkpt>
      <trkpt lat="49.17436" lon="6.84277">
        <ele>244.4</ele>
        <time>2021-12-18T13:06:53Z</time>
      </trkpt>
      <trkpt lat="49.17433" lon="6.84262">
        <ele>244.3</ele>
        <time>2021-12-18T13:06:59Z</time>
      </trkpt>
      <trkpt lat="49.17429" lon="6.84249">
        <ele>244.2</ele>
        <time>2021-12-18T13:07:05Z</time>
      </trkpt>
      <trkpt lat="49.1743" lon="6.84235">
        <ele>244.1</ele>
        <time>2021-12-18T13:07:12Z</time>
      </trkpt>
      <trkpt lat="49.17427" lon="6.8422">
        <ele>244.1</ele>
        <time>2021-12-18T13:07:18Z</time>
      </trkpt>
      <trkpt lat="49.17425" lon="6.84204">
        <ele>244</ele>
        <time>2021-12-18T13:07:25Z</time>
      </trkpt>
      <trkpt lat="49.17425" lon="6.84189">
        <ele>244</ele>
        <time>2021-12-18T13:07:33Z</time>
      </trkpt>
      <trkpt lat="49.17418" lon="6.84179">
        <ele>243.8</ele>
        <time>2021-12-18T13:07:40Z</time>
      </trkpt>
      <trkpt lat="49.17412" lon="6.84166">
        <ele>243.5</ele>
        <time>2021-12-18T13:07:50Z</time>
      </trkpt>
      <trkpt lat="49.17409" lon="6.84153">
        <ele>243.4</ele>
        <time>2021-12-18T13:07:58Z</time>
      </trkpt>
      <trkpt lat="49.17402" lon="6.84142">
        <ele>243.3</ele>
        <time>2021-12-18T13:08:07Z</time>
      </trkpt>
      <trkpt lat="49.17397" lon="6.84129">
        <ele>243.2</ele>
        <time>2021-12-18T13:08:17Z</time>
      </trkpt>
      <trkpt lat="49.17393" lon="6.84117">
        <ele>243.2</ele>
        <time>2021-12-18T13:08:25Z</time>
      </trkpt>
      <trkpt lat="49.1739" lon="6.84104">
        <ele>243.2</ele>
        <time>2021-12-18T13:08:35Z</time>
      </trkpt>
      <trkpt lat="49.17385" lon="6.8409">
        <ele>243.2</ele>
        <time>2021-12-18T13:08:41Z</time>
      </trkpt>
      <trkpt lat="49.17379" lon="6.84078">
        <ele>243.2</ele>
        <time>2021-12-18T13:08:48Z</time>
      </trkpt>
      <trkpt lat="49.17373" lon="6.84067">
        <ele>243</ele>
        <time>2021-12-18T13:08:55Z</time>
      </trkpt>
      <trkpt lat="49.17368" lon="6.84054">
        <ele>242.7</ele>
        <time>2021-12-18T13:09:06Z</time>
      </trkpt>
      <trkpt lat="49.17362" lon="6.84042">
        <ele>242.1</ele>
        <time>2021-12-18T13:09:14Z</time>
      </trkpt>
      <trkpt lat="49.17359" lon="6.84029">
        <ele>241.4</ele>
        <time>2021-12-18T13:09:24Z</time>
      </trkpt>
      <trkpt lat="49.17358" lon="6.84014">
        <ele>240.6</ele>
        <time>2021-12-18T13:09:34Z</time>
      </trkpt>
      <trkpt lat="49.17355" lon="6.84001">
        <ele>239.7</ele>
        <time>2021-12-18T13:09:41Z</time>
      </trkpt>
      <trkpt lat="49.17353" lon="6.83987">
        <ele>238.9</ele>
        <time>2021-12-18T13:09:45Z</time>
      </trkpt>
      <trkpt lat="49.17346" lon="6.83977">
        <ele>237.9</ele>
        <time>2021-12-18T13:09:50Z</time>
      </trkpt>
      <trkpt lat="49.17339" lon="6.83963">
        <ele>236.7</ele>
        <time>2021-12-18T13:09:56Z</time>
      </trkpt>
      <trkpt lat="49.17333" lon="6.83952">
        <ele>235.4</ele>
        <time>2021-12-18T13:10:05Z</time>
      </trkpt>
      <trkpt lat="49.17328" lon="6.83938">
        <ele>233.8</ele>
        <time>2021-12-18T13:10:15Z</time>
      </trkpt>
      <trkpt lat="49.17335" lon="6.83928">
        <ele>232.2</ele>
        <time>2021-12-18T13:10:27Z</time>
      </trkpt>
      <trkpt lat="49.17337" lon="6.83914">
        <ele>230.6</ele>
        <time>2021-12-18T13:10:36Z</time>
      </trkpt>
      <trkpt lat="49.17333" lon="6.83899">
        <ele>229</ele>
        <time>2021-12-18T13:10:46Z</time>
      </trkpt>
      <trkpt lat="49.17335" lon="6.83885">
        <ele>227.6</ele>
        <time>2021-12-18T13:10:53Z</time>
      </trkpt>
      <trkpt lat="49.17339" lon="6.83871">
        <ele>226.2</ele>
        <time>2021-12-18T13:11:02Z</time>
      </trkpt>
      <trkpt lat="49.17342" lon="6.83858">
        <ele>224.8</ele>
        <time>2021-12-18T13:11:18Z</time>
      </trkpt>
      <trkpt lat="49.17333" lon="6.83855">
        <ele>223.4</ele>
        <time>2021-12-18T13:11:30Z</time>
      </trkpt>
      <trkpt lat="49.17335" lon="6.83839">
        <ele>221.8</ele>
        <time>2021-12-18T13:11:36Z</time>
      </trkpt>
      <trkpt lat="49.17343" lon="6.8383">
        <ele>220.5</ele>
        <time>2021-12-18T13:11:41Z</time>
      </trkpt>
      <trkpt lat="49.17349" lon="6.8382">
        <ele>219.5</ele>
        <time>2021-12-18T13:11:52Z</time>
      </trkpt>
      <trkpt lat="49.1736" lon="6.83817">
        <ele>218.5</ele>
        <time>2021-12-18T13:11:57Z</time>
      </trkpt>
      <trkpt lat="49.1737" lon="6.83812">
        <ele>217.5</ele>
        <time>2021-12-18T13:12:03Z</time>
      </trkpt>
      <trkpt lat="49.17379" lon="6.83813">
        <ele>217</ele>
        <time>2021-12-18T13:12:09Z</time>
      </trkpt>
      <trkpt lat="49.17386" lon="6.83803">
        <ele>216.5</ele>
        <time>2021-12-18T13:12:16Z</time>
      </trkpt>
      <trkpt lat="49.17394" lon="6.83797">
        <ele>216.1</ele>
        <time>2021-12-18T13:12:25Z</time>
      </trkpt>
      <trkpt lat="49.17404" lon="6.83796">
        <ele>215.8</ele>
        <time>2021-12-18T13:12:40Z</time>
      </trkpt>
      <trkpt lat="49.17414" lon="6.838">
        <ele>215.5</ele>
        <time>2021-12-18T13:12:56Z</time>
      </trkpt>
      <trkpt lat="49.17423" lon="6.83806">
        <ele>215.3</ele>
        <time>2021-12-18T13:13:02Z</time>
      </trkpt>
      <trkpt lat="49.17433" lon="6.83806">
        <ele>215</ele>
        <time>2021-12-18T13:13:08Z</time>
      </trkpt>
      <trkpt lat="49.17443" lon="6.83803">
        <ele>214.7</ele>
        <time>2021-12-18T13:13:15Z</time>
      </trkpt>
      <trkpt lat="49.17453" lon="6.83799">
        <ele>214.5</ele>
        <time>2021-12-18T13:13:20Z</time>
      </trkpt>
      <trkpt lat="49.17462" lon="6.83798">
        <ele>214.3</ele>
        <time>2021-12-18T13:13:26Z</time>
      </trkpt>
      <trkpt lat="49.1747" lon="6.83792">
        <ele>214.1</ele>
        <time>2021-12-18T13:13:30Z</time>
      </trkpt>
      <trkpt lat="49.1748" lon="6.83791">
        <ele>213.8</ele>
        <time>2021-12-18T13:13:36Z</time>
      </trkpt>
      <trkpt lat="49.1749" lon="6.83788">
        <ele>213.5</ele>
        <time>2021-12-18T13:13:42Z</time>
      </trkpt>
      <trkpt lat="49.17499" lon="6.83787">
        <ele>213.2</ele>
        <time>2021-12-18T13:13:50Z</time>
      </trkpt>
      <trkpt lat="49.17508" lon="6.83781">
        <ele>212.9</ele>
        <time>2021-12-18T13:13:55Z</time>
      </trkpt>
      <trkpt lat="49.17518" lon="6.83777">
        <ele>212.6</ele>
        <time>2021-12-18T13:14:01Z</time>
      </trkpt>
      <trkpt lat="49.17526" lon="6.83768">
        <ele>212.3</ele>
        <time>2021-12-18T13:14:08Z</time>
      </trkpt>
      <trkpt lat="49.17534" lon="6.83761">
        <ele>212</ele>
        <time>2021-12-18T13:14:16Z</time>
      </trkpt>
      <trkpt lat="49.17544" lon="6.83763">
        <ele>211.8</ele>
        <time>2021-12-18T13:14:23Z</time>
      </trkpt>
      <trkpt lat="49.17553" lon="6.83765">
        <ele>211.6</ele>
        <time>2021-12-18T13:14:42Z</time>
      </trkpt>
      <trkpt lat="49.17558" lon="6.83779">
        <ele>211.3</ele>
        <time>2021-12-18T13:14:54Z</time>
      </trkpt>
      <trkpt lat="49.17566" lon="6.83783">
        <ele>211.1</ele>
        <time>2021-12-18T13:15:02Z</time>
      </trkpt>
      <trkpt lat="49.17572" lon="6.83794">
        <ele>210.9</ele>
        <time>2021-12-18T13:15:24Z</time>
      </trkpt>
      <trkpt lat="49.17579" lon="6.83786">
        <ele>210.7</ele>
        <time>2021-12-18T13:15:34Z</time>
      </trkpt>
      <trkpt lat="49.17588" lon="6.8378">
        <ele>210.3</ele>
        <time>2021-12-18T13:15:40Z</time>
      </trkpt>
      <trkpt lat="49.17588" lon="6.8378">
        <ele>210.3</ele>
        <time>2021-12-18T13:15:42Z</time>
      </trkpt>
      <trkpt lat="49.17588" lon="6.83779">
        <ele>210.3</ele>
        <time>2021-12-18T13:15:43Z</time>
      </trkpt>
      <trkpt lat="49.17593" lon="6.83766">
        <ele>209.9</ele>
        <time>2021-12-18T13:15:49Z</time>
      </trkpt>
      <trkpt lat="49.17598" lon="6.83755">
        <ele>209.5</ele>
        <time>2021-12-18T13:15:56Z</time>
      </trkpt>
      <trkpt lat="49.17597" lon="6.83741">
        <ele>209.6</ele>
        <time>2021-12-18T13:16:04Z</time>
      </trkpt>
      <trkpt lat="49.17595" lon="6.83725">
        <ele>209.6</ele>
        <time>2021-12-18T13:16:11Z</time>
      </trkpt>
      <trkpt lat="49.17594" lon="6.8371">
        <ele>209.6</ele>
        <time>2021-12-18T13:16:19Z</time>
      </trkpt>
      <trkpt lat="49.17593" lon="6.83695">
        <ele>209.7</ele>
        <time>2021-12-18T13:16:26Z</time>
      </trkpt>
      <trkpt lat="49.1759" lon="6.83681">
        <ele>209.8</ele>
        <time>2021-12-18T13:16:32Z</time>
      </trkpt>
      <trkpt lat="49.17588" lon="6.83666">
        <ele>209.9</ele>
        <time>2021-12-18T13:16:41Z</time>
      </trkpt>
      <trkpt lat="49.17585" lon="6.83654">
        <ele>210</ele>
        <time>2021-12-18T13:16:48Z</time>
      </trkpt>
      <trkpt lat="49.17588" lon="6.83638">
        <ele>210.1</ele>
        <time>2021-12-18T13:16:55Z</time>
      </trkpt>
      <trkpt lat="49.1759" lon="6.83624">
        <ele>210.3</ele>
        <time>2021-12-18T13:17:03Z</time>
      </trkpt>
      <trkpt lat="49.1759" lon="6.8361">
        <ele>210.4</ele>
        <time>2021-12-18T13:17:14Z</time>
      </trkpt>
      <trkpt lat="49.17585" lon="6.83597">
        <ele>210.8</ele>
        <time>2021-12-18T13:17:23Z</time>
      </trkpt>
      <trkpt lat="49.17581" lon="6.83582">
        <ele>211.1</ele>
        <time>2021-12-18T13:17:29Z</time>
      </trkpt>
      <trkpt lat="49.17578" lon="6.83568">
        <ele>211.4</ele>
        <time>2021-12-18T13:17:34Z</time>
      </trkpt>
      <trkpt lat="49.17577" lon="6.83554">
        <ele>211.6</ele>
        <time>2021-12-18T13:17:41Z</time>
      </trkpt>
      <trkpt lat="49.17575" lon="6.83539">
        <ele>211.9</ele>
        <time>2021-12-18T13:17:48Z</time>
      </trkpt>
      <trkpt lat="49.17568" lon="6.83528">
        <ele>212.2</ele>
        <time>2021-12-18T13:17:56Z</time>
      </trkpt>
      <trkpt lat="49.17565" lon="6.83515">
        <ele>212.4</ele>
        <time>2021-12-18T13:18:05Z</time>
      </trkpt>
      <trkpt lat="49.1756" lon="6.83501">
        <ele>212.7</ele>
        <time>2021-12-18T13:18:14Z</time>
      </trkpt>
      <trkpt lat="49.17559" lon="6.83487">
        <ele>212.9</ele>
        <time>2021-12-18T13:18:21Z</time>
      </trkpt>
      <trkpt lat="49.17554" lon="6.83474">
        <ele>213.1</ele>
        <time>2021-12-18T13:18:30Z</time>
      </trkpt>
      <trkpt lat="49.17551" lon="6.83461">
        <ele>213.3</ele>
        <time>2021-12-18T13:18:37Z</time>
      </trkpt>
      <trkpt lat="49.17547" lon="6.83449">
        <ele>213.4</ele>
        <time>2021-12-18T13:18:46Z</time>
      </trkpt>
      <trkpt lat="49.1754" lon="6.83437">
        <ele>213.6</ele>
        <time>2021-12-18T13:18:54Z</time>
      </trkpt>
      <trkpt lat="49.17533" lon="6.83427">
        <ele>213.7</ele>
        <time>2021-12-18T13:19:01Z</time>
      </trkpt>
      <trkpt lat="49.17526" lon="6.83416">
        <ele>213.8</ele>
        <time>2021-12-18T13:19:08Z</time>
      </trkpt>
      <trkpt lat="49.17522" lon="6.83403">
        <ele>213.9</ele>
        <time>2021-12-18T13:19:14Z</time>
      </trkpt>
      <trkpt lat="49.17519" lon="6.83389">
        <ele>214</ele>
        <time>2021-12-18T13:19:21Z</time>
      </trkpt>
      <trkpt lat="49.17512" lon="6.83379">
        <ele>214.1</ele>
        <time>2021-12-18T13:19:27Z</time>
      </trkpt>
      <trkpt lat="49.17506" lon="6.83366">
        <ele>214.2</ele>
        <time>2021-12-18T13:19:35Z</time>
      </trkpt>
      <trkpt lat="49.17501" lon="6.83353">
        <ele>214.2</ele>
        <time>2021-12-18T13:19:44Z</time>
      </trkpt>
      <trkpt lat="49.17495" lon="6.83342">
        <ele>214.3</ele>
        <time>2021-12-18T13:19:54Z</time>
      </trkpt>
      <trkpt lat="49.1749" lon="6.83329">
        <ele>214.2</ele>
        <time>2021-12-18T13:20:06Z</time>
      </trkpt>
      <trkpt lat="49.17485" lon="6.83317">
        <ele>214.2</ele>
        <time>2021-12-18T13:20:13Z</time>
      </trkpt>
      <trkpt lat="49.17483" lon="6.83304">
        <ele>214.1</ele>
        <time>2021-12-18T13:20:20Z</time>
      </trkpt>
      <trkpt lat="49.17482" lon="6.83288">
        <ele>214.2</ele>
        <time>2021-12-18T13:20:28Z</time>
      </trkpt>
      <trkpt lat="49.17482" lon="6.83274">
        <ele>214.2</ele>
        <time>2021-12-18T13:20:35Z</time>
      </trkpt>
      <trkpt lat="49.17482" lon="6.83258">
        <ele>214.2</ele>
        <time>2021-12-18T13:20:43Z</time>
      </trkpt>
      <trkpt lat="49.17474" lon="6.83248">
        <ele>214.2</ele>
        <time>2021-12-18T13:20:50Z</time>
      </trkpt>
      <trkpt lat="49.17468" lon="6.83235">
        <ele>214.2</ele>
        <time>2021-12-18T13:21:00Z</time>
      </trkpt>
      <trkpt lat="49.17465" lon="6.83222">
        <ele>214.3</ele>
        <time>2021-12-18T13:21:07Z</time>
      </trkpt>
      <trkpt lat="49.1746" lon="6.8321">
        <ele>214.4</ele>
        <time>2021-12-18T13:21:16Z</time>
      </trkpt>
      <trkpt lat="49.17455" lon="6.83197">
        <ele>214.7</ele>
        <time>2021-12-18T13:21:23Z</time>
      </trkpt>
      <trkpt lat="49.17452" lon="6.83182">
        <ele>214.9</ele>
        <time>2021-12-18T13:21:30Z</time>
      </trkpt>
      <trkpt lat="49.17447" lon="6.8317">
        <ele>215.2</ele>
        <time>2021-12-18T13:21:37Z</time>
      </trkpt>
      <trkpt lat="49.17444" lon="6.83157">
        <ele>215.5</ele>
        <time>2021-12-18T13:21:45Z</time>
      </trkpt>
      <trkpt lat="49.1744" lon="6.83145">
        <ele>215.9</ele>
        <time>2021-12-18T13:21:52Z</time>
      </trkpt>
      <trkpt lat="49.17436" lon="6.83131">
        <ele>216.2</ele>
        <time>2021-12-18T13:21:59Z</time>
      </trkpt>
      <trkpt lat="49.1743" lon="6.83121">
        <ele>216.6</ele>
        <time>2021-12-18T13:22:06Z</time>
      </trkpt>
      <trkpt lat="49.17426" lon="6.83107">
        <ele>217</ele>
        <time>2021-12-18T13:22:14Z</time>
      </trkpt>
      <trkpt lat="49.17382" lon="6.82996">
        <ele>219.5</ele>
        <time>2021-12-18T13:23:39Z</time>
      </trkpt>
      <trkpt lat="49.1738" lon="6.82983">
        <ele>219.7</ele>
        <time>2021-12-18T13:23:48Z</time>
      </trkpt>
      <trkpt lat="49.17376" lon="6.8297">
        <ele>220</ele>
        <time>2021-12-18T13:23:54Z</time>
      </trkpt>
      <trkpt lat="49.17372" lon="6.82956">
        <ele>220.3</ele>
        <time>2021-12-18T13:24:03Z</time>
      </trkpt>
      <trkpt lat="49.1737" lon="6.82942">
        <ele>220.5</ele>
        <time>2021-12-18T13:24:11Z</time>
      </trkpt>
      <trkpt lat="49.17364" lon="6.82931">
        <ele>220.8</ele>
        <time>2021-12-18T13:24:21Z</time>
      </trkpt>
      <trkpt lat="49.1736" lon="6.82918">
        <ele>221</ele>
        <time>2021-12-18T13:24:32Z</time>
      </trkpt>
      <trkpt lat="49.17355" lon="6.82905">
        <ele>221.3</ele>
        <time>2021-12-18T13:24:40Z</time>
      </trkpt>
      <trkpt lat="49.17349" lon="6.82894">
        <ele>221.5</ele>
        <time>2021-12-18T13:24:48Z</time>
      </trkpt>
      <trkpt lat="49.17344" lon="6.82883">
        <ele>221.7</ele>
        <time>2021-12-18T13:24:55Z</time>
      </trkpt>
      <trkpt lat="49.17338" lon="6.82872">
        <ele>222</ele>
        <time>2021-12-18T13:25:04Z</time>
      </trkpt>
      <trkpt lat="49.17333" lon="6.82865">
        <ele>222.1</ele>
        <time>2021-12-18T13:25:15Z</time>
      </trkpt>
      <trkpt lat="49.17333" lon="6.82866">
        <ele>222.1</ele>
        <time>2021-12-18T13:25:16Z</time>
      </trkpt>
      <trkpt lat="49.17333" lon="6.82866">
        <ele>222.1</ele>
        <time>2021-12-18T13:25:18Z</time>
      </trkpt>
      <trkpt lat="49.17333" lon="6.82866">
        <ele>222.1</ele>
        <time>2021-12-18T13:25:21Z</time>
      </trkpt>
      <trkpt lat="49.17334" lon="6.82865">
        <ele>222.2</ele>
        <time>2021-12-18T13:25:25Z</time>
      </trkpt>
      <trkpt lat="49.17334" lon="6.82865">
        <ele>222.2</ele>
        <time>2021-12-18T13:25:28Z</time>
      </trkpt>
      <trkpt lat="49.1733" lon="6.82853">
        <ele>222.4</ele>
        <time>2021-12-18T13:25:40Z</time>
      </trkpt>
      <trkpt lat="49.17332" lon="6.82839">
        <ele>222.6</ele>
        <time>2021-12-18T13:25:47Z</time>
      </trkpt>
      <trkpt lat="49.17323" lon="6.82835">
        <ele>222.8</ele>
        <time>2021-12-18T13:25:55Z</time>
      </trkpt>
      <trkpt lat="49.17317" lon="6.82823">
        <ele>222.9</ele>
        <time>2021-12-18T13:26:03Z</time>
      </trkpt>
      <trkpt lat="49.17314" lon="6.8281">
        <ele>223</ele>
        <time>2021-12-18T13:26:11Z</time>
      </trkpt>
      <trkpt lat="49.1731" lon="6.82805">
        <ele>223</ele>
        <time>2021-12-18T13:26:19Z</time>
      </trkpt>
      <trkpt lat="49.1731" lon="6.82805">
        <ele>223</ele>
        <time>2021-12-18T13:26:20Z</time>
      </trkpt>
      <trkpt lat="49.17302" lon="6.82798">
        <ele>223.1</ele>
        <time>2021-12-18T13:26:26Z</time>
      </trkpt>
      <trkpt lat="49.17294" lon="6.82787">
        <ele>223.1</ele>
        <time>2021-12-18T13:26:33Z</time>
      </trkpt>
      <trkpt lat="49.17289" lon="6.82775">
        <ele>223.1</ele>
        <time>2021-12-18T13:26:46Z</time>
      </trkpt>
      <trkpt lat="49.17284" lon="6.82762">
        <ele>223.1</ele>
        <time>2021-12-18T13:26:53Z</time>
      </trkpt>
      <trkpt lat="49.17279" lon="6.82748">
        <ele>223.1</ele>
        <time>2021-12-18T13:27:02Z</time>
      </trkpt>
      <trkpt lat="49.17275" lon="6.82736">
        <ele>223</ele>
        <time>2021-12-18T13:27:11Z</time>
      </trkpt>
      <trkpt lat="49.17275" lon="6.8272">
        <ele>222.9</ele>
        <time>2021-12-18T13:27:19Z</time>
      </trkpt>
      <trkpt lat="49.17266" lon="6.82711">
        <ele>222.8</ele>
        <time>2021-12-18T13:27:26Z</time>
      </trkpt>
      <trkpt lat="49.17263" lon="6.82697">
        <ele>222.8</ele>
        <time>2021-12-18T13:27:35Z</time>
      </trkpt>
      <trkpt lat="49.17259" lon="6.82684">
        <ele>222.8</ele>
        <time>2021-12-18T13:27:44Z</time>
      </trkpt>
      <trkpt lat="49.17254" lon="6.82672">
        <ele>222.7</ele>
        <time>2021-12-18T13:27:51Z</time>
      </trkpt>
      <trkpt lat="49.17251" lon="6.82658">
        <ele>222.6</ele>
        <time>2021-12-18T13:27:59Z</time>
      </trkpt>
      <trkpt lat="49.1725" lon="6.82644">
        <ele>222.5</ele>
        <time>2021-12-18T13:28:09Z</time>
      </trkpt>
      <trkpt lat="49.17245" lon="6.82632">
        <ele>222.5</ele>
        <time>2021-12-18T13:28:17Z</time>
      </trkpt>
      <trkpt lat="49.1724" lon="6.82619">
        <ele>222.4</ele>
        <time>2021-12-18T13:28:25Z</time>
      </trkpt>
      <trkpt lat="49.17239" lon="6.82605">
        <ele>222.4</ele>
        <time>2021-12-18T13:28:34Z</time>
      </trkpt>
      <trkpt lat="49.17237" lon="6.82591">
        <ele>222.3</ele>
        <time>2021-12-18T13:28:43Z</time>
      </trkpt>
      <trkpt lat="49.17243" lon="6.82578">
        <ele>222.2</ele>
        <time>2021-12-18T13:28:51Z</time>
      </trkpt>
      <trkpt lat="49.17243" lon="6.82564">
        <ele>222.1</ele>
        <time>2021-12-18T13:28:59Z</time>
      </trkpt>
      <trkpt lat="49.17243" lon="6.82549">
        <ele>221.9</ele>
        <time>2021-12-18T13:29:08Z</time>
      </trkpt>
      <trkpt lat="49.17241" lon="6.82534">
        <ele>221.1</ele>
        <time>2021-12-18T13:29:18Z</time>
      </trkpt>
      <trkpt lat="49.17238" lon="6.8252">
        <ele>220.4</ele>
        <time>2021-12-18T13:29:26Z</time>
      </trkpt>
      <trkpt lat="49.17237" lon="6.82504">
        <ele>219.8</ele>
        <time>2021-12-18T13:29:35Z</time>
      </trkpt>
      <trkpt lat="49.17234" lon="6.82491">
        <ele>219.2</ele>
        <time>2021-12-18T13:29:42Z</time>
      </trkpt>
      <trkpt lat="49.17229" lon="6.82478">
        <ele>218.7</ele>
        <time>2021-12-18T13:29:48Z</time>
      </trkpt>
      <trkpt lat="49.1723" lon="6.82463">
        <ele>218.2</ele>
        <time>2021-12-18T13:29:57Z</time>
      </trkpt>
      <trkpt lat="49.17229" lon="6.82449">
        <ele>217.9</ele>
        <time>2021-12-18T13:30:06Z</time>
      </trkpt>
      <trkpt lat="49.17226" lon="6.82435">
        <ele>217.7</ele>
        <time>2021-12-18T13:30:13Z</time>
      </trkpt>
      <trkpt lat="49.1722" lon="6.82425">
        <ele>217.6</ele>
        <time>2021-12-18T13:30:19Z</time>
      </trkpt>
      <trkpt lat="49.17216" lon="6.82411">
        <ele>217.5</ele>
        <time>2021-12-18T13:30:28Z</time>
      </trkpt>
      <trkpt lat="49.17214" lon="6.82408">
        <ele>217.6</ele>
        <time>2021-12-18T13:30:31Z</time>
      </trkpt>
      <trkpt lat="49.17214" lon="6.82407">
        <ele>217.6</ele>
        <time>2021-12-18T13:30:32Z</time>
      </trkpt>
      <trkpt lat="49.17212" lon="6.82406">
        <ele>217.6</ele>
        <time>2021-12-18T13:30:36Z</time>
      </trkpt>
      <trkpt lat="49.17211" lon="6.82406">
        <ele>217.6</ele>
        <time>2021-12-18T13:30:41Z</time>
      </trkpt>
      <trkpt lat="49.17206" lon="6.8241">
        <ele>217.6</ele>
        <time>2021-12-18T13:31:04Z</time>
      </trkpt>
      <trkpt lat="49.17207" lon="6.82409">
        <ele>217.6</ele>
        <time>2021-12-18T13:31:06Z</time>
      </trkpt>
      <trkpt lat="49.17202" lon="6.82396">
        <ele>217.7</ele>
        <time>2021-12-18T13:31:21Z</time>
      </trkpt>
      <trkpt lat="49.17197" lon="6.82384">
        <ele>217.9</ele>
        <time>2021-12-18T13:31:31Z</time>
      </trkpt>
      <trkpt lat="49.17188" lon="6.82382">
        <ele>218.1</ele>
        <time>2021-12-18T13:32:04Z</time>
      </trkpt>
      <trkpt lat="49.1718" lon="6.82376">
        <ele>218.3</ele>
        <time>2021-12-18T13:32:18Z</time>
      </trkpt>
      <trkpt lat="49.17172" lon="6.82368">
        <ele>219.3</ele>
        <time>2021-12-18T13:32:29Z</time>
      </trkpt>
      <trkpt lat="49.17175" lon="6.82355">
        <ele>219.5</ele>
        <time>2021-12-18T13:32:47Z</time>
      </trkpt>
      <trkpt lat="49.17172" lon="6.82341">
        <ele>219.7</ele>
        <time>2021-12-18T13:32:54Z</time>
      </trkpt>
      <trkpt lat="49.17172" lon="6.82326">
        <ele>220</ele>
        <time>2021-12-18T13:33:02Z</time>
      </trkpt>
      <trkpt lat="49.17169" lon="6.82313">
        <ele>220.3</ele>
        <time>2021-12-18T13:33:10Z</time>
      </trkpt>
      <trkpt lat="49.1717" lon="6.82297">
        <ele>220.6</ele>
        <time>2021-12-18T13:33:18Z</time>
      </trkpt>
      <trkpt lat="49.17168" lon="6.82282">
        <ele>221.1</ele>
        <time>2021-12-18T13:33:25Z</time>
      </trkpt>
      <trkpt lat="49.17165" lon="6.82269">
        <ele>221.5</ele>
        <time>2021-12-18T13:33:32Z</time>
      </trkpt>
      <trkpt lat="49.17164" lon="6.82255">
        <ele>221.9</ele>
        <time>2021-12-18T13:33:39Z</time>
      </trkpt>
      <trkpt lat="49.17156" lon="6.82248">
        <ele>222.3</ele>
        <time>2021-12-18T13:33:51Z</time>
      </trkpt>
      <trkpt lat="49.17149" lon="6.82249">
        <ele>222.3</ele>
        <time>2021-12-18T13:33:57Z</time>
      </trkpt>
      <trkpt lat="49.17149" lon="6.82249">
        <ele>222.3</ele>
        <time>2021-12-18T13:34:02Z</time>
      </trkpt>
      <trkpt lat="49.17151" lon="6.82248">
        <ele>222.3</ele>
        <time>2021-12-18T13:34:05Z</time>
      </trkpt>
      <trkpt lat="49.17152" lon="6.82248">
        <ele>222.3</ele>
        <time>2021-12-18T13:34:06Z</time>
      </trkpt>
      <trkpt lat="49.17152" lon="6.82248">
        <ele>222.3</ele>
        <time>2021-12-18T13:34:07Z</time>
      </trkpt>
      <trkpt lat="49.17152" lon="6.82248">
        <ele>222.3</ele>
        <time>2021-12-18T13:34:13Z</time>
      </trkpt>
      <trkpt lat="49.17155" lon="6.82247">
        <ele>222.3</ele>
        <time>2021-12-18T13:34:18Z</time>
      </trkpt>
      <trkpt lat="49.17156" lon="6.82246">
        <ele>222.3</ele>
        <time>2021-12-18T13:34:20Z</time>
      </trkpt>
      <trkpt lat="49.17156" lon="6.82246">
        <ele>222.3</ele>
        <time>2021-12-18T13:34:21Z</time>
      </trkpt>
      <trkpt lat="49.17156" lon="6.82246">
        <ele>222.3</ele>
        <time>2021-12-18T13:34:22Z</time>
      </trkpt>
      <trkpt lat="49.17157" lon="6.82244">
        <ele>222.3</ele>
        <time>2021-12-18T13:34:24Z</time>
      </trkpt>
      <trkpt lat="49.17158" lon="6.82244">
        <ele>222.3</ele>
        <time>2021-12-18T13:34:26Z</time>
      </trkpt>
      <trkpt lat="49.17159" lon="6.82243">
        <ele>222.4</ele>
        <time>2021-12-18T13:34:30Z</time>
      </trkpt>
      <trkpt lat="49.17159" lon="6.82243">
        <ele>222.4</ele>
        <time>2021-12-18T13:34:31Z</time>
      </trkpt>
      <trkpt lat="49.17159" lon="6.82243">
        <ele>222.4</ele>
        <time>2021-12-18T13:34:32Z</time>
      </trkpt>
      <trkpt lat="49.17159" lon="6.82243">
        <ele>222.4</ele>
        <time>2021-12-18T13:34:33Z</time>
      </trkpt>
      <trkpt lat="49.1716" lon="6.82242">
        <ele>222.4</ele>
        <time>2021-12-18T13:34:38Z</time>
      </trkpt>
      <trkpt lat="49.1716" lon="6.82242">
        <ele>222.4</ele>
        <time>2021-12-18T13:34:39Z</time>
      </trkpt>
      <trkpt lat="49.17161" lon="6.82241">
        <ele>222.4</ele>
        <time>2021-12-18T13:34:41Z</time>
      </trkpt>
      <trkpt lat="49.1716" lon="6.82242">
        <ele>222.4</ele>
        <time>2021-12-18T13:34:43Z</time>
      </trkpt>
      <trkpt lat="49.17169" lon="6.82236">
        <ele>222.4</ele>
        <time>2021-12-18T13:34:57Z</time>
      </trkpt>
      <trkpt lat="49.17169" lon="6.82239">
        <ele>222.4</ele>
        <time>2021-12-18T13:35:02Z</time>
      </trkpt>
      <trkpt lat="49.17169" lon="6.82239">
        <ele>222.4</ele>
        <time>2021-12-18T13:35:03Z</time>
      </trkpt>
      <trkpt lat="49.17164" lon="6.8224">
        <ele>222.5</ele>
        <time>2021-12-18T13:35:18Z</time>
      </trkpt>
      <trkpt lat="49.17164" lon="6.8224">
        <ele>222.5</ele>
        <time>2021-12-18T13:35:19Z</time>
      </trkpt>
      <trkpt lat="49.17164" lon="6.8224">
        <ele>222.5</ele>
        <time>2021-12-18T13:35:20Z</time>
      </trkpt>
      <trkpt lat="49.17163" lon="6.8224">
        <ele>222.5</ele>
        <time>2021-12-18T13:35:23Z</time>
      </trkpt>
      <trkpt lat="49.17161" lon="6.82242">
        <ele>222.5</ele>
        <time>2021-12-18T13:35:39Z</time>
      </trkpt>
      <trkpt lat="49.17161" lon="6.82241">
        <ele>222.5</ele>
        <time>2021-12-18T13:35:40Z</time>
      </trkpt>
      <trkpt lat="49.17158" lon="6.82237">
        <ele>222.5</ele>
        <time>2021-12-18T13:35:45Z</time>
      </trkpt>
      <trkpt lat="49.17158" lon="6.82237">
        <ele>222.5</ele>
        <time>2021-12-18T13:35:46Z</time>
      </trkpt>
      <trkpt lat="49.17156" lon="6.82241">
        <ele>222.5</ele>
        <time>2021-12-18T13:35:57Z</time>
      </trkpt>
      <trkpt lat="49.17157" lon="6.82241">
        <ele>222.5</ele>
        <time>2021-12-18T13:35:58Z</time>
      </trkpt>
      <trkpt lat="49.17159" lon="6.82243">
        <ele>222.6</ele>
        <time>2021-12-18T13:36:02Z</time>
      </trkpt>
      <trkpt lat="49.17159" lon="6.82245">
        <ele>222.6</ele>
        <time>2021-12-18T13:36:04Z</time>
      </trkpt>
      <trkpt lat="49.17159" lon="6.82249">
        <ele>222.6</ele>
        <time>2021-12-18T13:36:11Z</time>
      </trkpt>
      <trkpt lat="49.1716" lon="6.82248">
        <ele>222.6</ele>
        <time>2021-12-18T13:36:14Z</time>
      </trkpt>
      <trkpt lat="49.17159" lon="6.82248">
        <ele>222.6</ele>
        <time>2021-12-18T13:36:20Z</time>
      </trkpt>
      <trkpt lat="49.17159" lon="6.82248">
        <ele>222.6</ele>
        <time>2021-12-18T13:36:21Z</time>
      </trkpt>
      <trkpt lat="49.17158" lon="6.82248">
        <ele>222.6</ele>
        <time>2021-12-18T13:36:35Z</time>
      </trkpt>
      <trkpt lat="49.17158" lon="6.82248">
        <ele>222.6</ele>
        <time>2021-12-18T13:36:36Z</time>
      </trkpt>
      <trkpt lat="49.17158" lon="6.82246">
        <ele>222.6</ele>
        <time>2021-12-18T13:36:41Z</time>
      </trkpt>
      <trkpt lat="49.17158" lon="6.82247">
        <ele>222.6</ele>
        <time>2021-12-18T13:36:42Z</time>
      </trkpt>
      <trkpt lat="49.17168" lon="6.82246">
        <ele>222.7</ele>
        <time>2021-12-18T13:36:55Z</time>
      </trkpt>
      <trkpt lat="49.17177" lon="6.82249">
        <ele>222.7</ele>
        <time>2021-12-18T13:37:02Z</time>
      </trkpt>
      <trkpt lat="49.17186" lon="6.82248">
        <ele>222.8</ele>
        <time>2021-12-18T13:37:07Z</time>
      </trkpt>
      <trkpt lat="49.17194" lon="6.82242">
        <ele>222.9</ele>
        <time>2021-12-18T13:37:16Z</time>
      </trkpt>
      <trkpt lat="49.172" lon="6.82231">
        <ele>222.9</ele>
        <time>2021-12-18T13:37:25Z</time>
      </trkpt>
      <trkpt lat="49.17205" lon="6.82218">
        <ele>222.9</ele>
        <time>2021-12-18T13:37:32Z</time>
      </trkpt>
      <trkpt lat="49.17211" lon="6.82205">
        <ele>223</ele>
        <time>2021-12-18T13:37:37Z</time>
      </trkpt>
      <trkpt lat="49.17215" lon="6.82192">
        <ele>223.3</ele>
        <time>2021-12-18T13:37:45Z</time>
      </trkpt>
      <trkpt lat="49.1722" lon="6.82179">
        <ele>223.9</ele>
        <time>2021-12-18T13:37:52Z</time>
      </trkpt>
      <trkpt lat="49.17224" lon="6.82165">
        <ele>224.6</ele>
        <time>2021-12-18T13:38:01Z</time>
      </trkpt>
      <trkpt lat="49.17227" lon="6.82152">
        <ele>225.2</ele>
        <time>2021-12-18T13:38:12Z</time>
      </trkpt>
      <trkpt lat="49.17227" lon="6.82138">
        <ele>225.7</ele>
        <time>2021-12-18T13:38:23Z</time>
      </trkpt>
      <trkpt lat="49.17229" lon="6.82123">
        <ele>226</ele>
        <time>2021-12-18T13:38:29Z</time>
      </trkpt>
      <trkpt lat="49.17228" lon="6.82107">
        <ele>226.2</ele>
        <time>2021-12-18T13:38:35Z</time>
      </trkpt>
      <trkpt lat="49.17228" lon="6.82093">
        <ele>226.2</ele>
        <time>2021-12-18T13:38:41Z</time>
      </trkpt>
      <trkpt lat="49.17226" lon="6.82078">
        <ele>226.3</ele>
        <time>2021-12-18T13:38:49Z</time>
      </trkpt>
      <trkpt lat="49.17227" lon="6.82064">
        <ele>226.5</ele>
        <time>2021-12-18T13:38:58Z</time>
      </trkpt>
      <trkpt lat="49.17229" lon="6.82049">
        <ele>226.7</ele>
        <time>2021-12-18T13:39:06Z</time>
      </trkpt>
      <trkpt lat="49.17227" lon="6.82034">
        <ele>227.1</ele>
        <time>2021-12-18T13:39:14Z</time>
      </trkpt>
      <trkpt lat="49.17229" lon="6.8202">
        <ele>227.5</ele>
        <time>2021-12-18T13:39:23Z</time>
      </trkpt>
      <trkpt lat="49.17227" lon="6.82005">
        <ele>228</ele>
        <time>2021-12-18T13:39:31Z</time>
      </trkpt>
      <trkpt lat="49.17226" lon="6.81991">
        <ele>228.5</ele>
        <time>2021-12-18T13:39:39Z</time>
      </trkpt>
      <trkpt lat="49.17223" lon="6.81977">
        <ele>228.9</ele>
        <time>2021-12-18T13:39:48Z</time>
      </trkpt>
      <trkpt lat="49.17224" lon="6.81963">
        <ele>229.1</ele>
        <time>2021-12-18T13:39:56Z</time>
      </trkpt>
      <trkpt lat="49.1722" lon="6.81949">
        <ele>229.1</ele>
        <time>2021-12-18T13:40:04Z</time>
      </trkpt>
      <trkpt lat="49.17218" lon="6.81936">
        <ele>228.8</ele>
        <time>2021-12-18T13:40:14Z</time>
      </trkpt>
      <trkpt lat="49.17216" lon="6.81921">
        <ele>228.5</ele>
        <time>2021-12-18T13:40:23Z</time>
      </trkpt>
      <trkpt lat="49.1721" lon="6.81908">
        <ele>228.2</ele>
        <time>2021-12-18T13:40:31Z</time>
      </trkpt>
      <trkpt lat="49.17208" lon="6.81893">
        <ele>228</ele>
        <time>2021-12-18T13:40:39Z</time>
      </trkpt>
      <trkpt lat="49.17211" lon="6.81879">
        <ele>227.8</ele>
        <time>2021-12-18T13:40:48Z</time>
      </trkpt>
      <trkpt lat="49.17209" lon="6.81865">
        <ele>227.6</ele>
        <time>2021-12-18T13:40:56Z</time>
      </trkpt>
      <trkpt lat="49.17205" lon="6.81852">
        <ele>227.5</ele>
        <time>2021-12-18T13:41:06Z</time>
      </trkpt>
      <trkpt lat="49.17197" lon="6.81845">
        <ele>227.5</ele>
        <time>2021-12-18T13:41:13Z</time>
      </trkpt>
      <trkpt lat="49.17189" lon="6.81836">
        <ele>227.4</ele>
        <time>2021-12-18T13:41:18Z</time>
      </trkpt>
      <trkpt lat="49.1718" lon="6.81831">
        <ele>227.3</ele>
        <time>2021-12-18T13:41:24Z</time>
      </trkpt>
      <trkpt lat="49.17171" lon="6.81824">
        <ele>227</ele>
        <time>2021-12-18T13:41:32Z</time>
      </trkpt>
      <trkpt lat="49.17161" lon="6.8182">
        <ele>226.6</ele>
        <time>2021-12-18T13:41:37Z</time>
      </trkpt>
      <trkpt lat="49.17151" lon="6.8182">
        <ele>226.3</ele>
        <time>2021-12-18T13:41:44Z</time>
      </trkpt>
      <trkpt lat="49.17142" lon="6.81817">
        <ele>226.2</ele>
        <time>2021-12-18T13:41:51Z</time>
      </trkpt>
      <trkpt lat="49.17133" lon="6.81812">
        <ele>226.1</ele>
        <time>2021-12-18T13:41:57Z</time>
      </trkpt>
      <trkpt lat="49.1713" lon="6.81811">
        <ele>226.1</ele>
        <time>2021-12-18T13:42:02Z</time>
      </trkpt>
      <trkpt lat="49.1713" lon="6.8181">
        <ele>226.1</ele>
        <time>2021-12-18T13:42:03Z</time>
      </trkpt>
      <trkpt lat="49.17125" lon="6.81799">
        <ele>226.2</ele>
        <time>2021-12-18T13:42:16Z</time>
      </trkpt>
      <trkpt lat="49.17127" lon="6.81785">
        <ele>226.4</ele>
        <time>2021-12-18T13:42:25Z</time>
      </trkpt>
      <trkpt lat="49.17117" lon="6.81786">
        <ele>226.8</ele>
        <time>2021-12-18T13:42:34Z</time>
      </trkpt>
      <trkpt lat="49.17108" lon="6.81793">
        <ele>227.4</ele>
        <time>2021-12-18T13:42:43Z</time>
      </trkpt>
      <trkpt lat="49.17099" lon="6.81799">
        <ele>227.6</ele>
        <time>2021-12-18T13:42:53Z</time>
      </trkpt>
      <trkpt lat="49.17095" lon="6.81814">
        <ele>227.6</ele>
        <time>2021-12-18T13:43:02Z</time>
      </trkpt>
      <trkpt lat="49.17096" lon="6.81828">
        <ele>227.6</ele>
        <time>2021-12-18T13:43:09Z</time>
      </trkpt>
      <trkpt lat="49.17097" lon="6.81842">
        <ele>227.4</ele>
        <time>2021-12-18T13:43:17Z</time>
      </trkpt>
      <trkpt lat="49.17093" lon="6.81855">
        <ele>227.1</ele>
        <time>2021-12-18T13:43:25Z</time>
      </trkpt>
      <trkpt lat="49.17096" lon="6.81868">
        <ele>226.7</ele>
        <time>2021-12-18T13:43:31Z</time>
      </trkpt>
      <trkpt lat="49.17101" lon="6.8188">
        <ele>226.3</ele>
        <time>2021-12-18T13:43:38Z</time>
      </trkpt>
      <trkpt lat="49.17104" lon="6.81893">
        <ele>225.4</ele>
        <time>2021-12-18T13:43:46Z</time>
      </trkpt>
      <trkpt lat="49.17106" lon="6.81907">
        <ele>224.6</ele>
        <time>2021-12-18T13:43:56Z</time>
      </trkpt>
      <trkpt lat="49.17107" lon="6.81921">
        <ele>224.1</ele>
        <time>2021-12-18T13:44:06Z</time>
      </trkpt>
      <trkpt lat="49.17106" lon="6.81935">
        <ele>223.7</ele>
        <time>2021-12-18T13:44:14Z</time>
      </trkpt>
      <trkpt lat="49.17103" lon="6.81948">
        <ele>223.5</ele>
        <time>2021-12-18T13:44:28Z</time>
      </trkpt>
      <trkpt lat="49.17105" lon="6.81961">
        <ele>223.3</ele>
        <time>2021-12-18T13:44:33Z</time>
      </trkpt>
      <trkpt lat="49.17103" lon="6.81975">
        <ele>223.2</ele>
        <time>2021-12-18T13:44:42Z</time>
      </trkpt>
      <trkpt lat="49.17101" lon="6.81991">
        <ele>223.2</ele>
        <time>2021-12-18T13:44:50Z</time>
      </trkpt>
      <trkpt lat="49.17105" lon="6.82006">
        <ele>223.1</ele>
        <time>2021-12-18T13:44:55Z</time>
      </trkpt>
      <trkpt lat="49.17109" lon="6.82021">
        <ele>223.2</ele>
        <time>2021-12-18T13:45:01Z</time>
      </trkpt>
      <trkpt lat="49.17114" lon="6.82036">
        <ele>223.3</ele>
        <time>2021-12-18T13:45:07Z</time>
      </trkpt>
      <trkpt lat="49.17119" lon="6.82049">
        <ele>223.3</ele>
        <time>2021-12-18T13:45:14Z</time>
      </trkpt>
      <trkpt lat="49.17122" lon="6.82063">
        <ele>223.4</ele>
        <time>2021-12-18T13:45:22Z</time>
      </trkpt>
      <trkpt lat="49.17127" lon="6.82077">
        <ele>223.4</ele>
        <time>2021-12-18T13:45:37Z</time>
      </trkpt>
      <trkpt lat="49.17131" lon="6.8209">
        <ele>223.4</ele>
        <time>2021-12-18T13:45:44Z</time>
      </trkpt>
      <trkpt lat="49.17137" lon="6.82102">
        <ele>223.4</ele>
        <time>2021-12-18T13:45:49Z</time>
      </trkpt>
      <trkpt lat="49.17143" lon="6.82115">
        <ele>223.4</ele>
        <time>2021-12-18T13:45:55Z</time>
      </trkpt>
      <trkpt lat="49.17144" lon="6.8213">
        <ele>223.4</ele>
        <time>2021-12-18T13:46:04Z</time>
      </trkpt>
      <trkpt lat="49.17144" lon="6.82145">
        <ele>223.4</ele>
        <time>2021-12-18T13:46:14Z</time>
      </trkpt>
      <trkpt lat="49.17146" lon="6.82159">
        <ele>223.3</ele>
        <time>2021-12-18T13:46:22Z</time>
      </trkpt>
      <trkpt lat="49.17148" lon="6.82173">
        <ele>223.1</ele>
        <time>2021-12-18T13:46:30Z</time>
      </trkpt>
      <trkpt lat="49.17154" lon="6.82184">
        <ele>223</ele>
        <time>2021-12-18T13:46:42Z</time>
      </trkpt>
      <trkpt lat="49.17151" lon="6.8217">
        <ele>223.1</ele>
        <time>2021-12-18T13:46:53Z</time>
      </trkpt>
      <trkpt lat="49.17153" lon="6.82155">
        <ele>223.3</ele>
        <time>2021-12-18T13:47:00Z</time>
      </trkpt>
      <trkpt lat="49.17154" lon="6.82141">
        <ele>223.3</ele>
        <time>2021-12-18T13:47:09Z</time>
      </trkpt>
      <trkpt lat="49.17148" lon="6.82131">
        <ele>223.4</ele>
        <time>2021-12-18T13:47:20Z</time>
      </trkpt>
      <trkpt lat="49.17152" lon="6.82121">
        <ele>223.4</ele>
        <time>2021-12-18T13:47:33Z</time>
      </trkpt>
      <trkpt lat="49.1715" lon="6.82122">
        <ele>223.4</ele>
        <time>2021-12-18T13:47:34Z</time>
      </trkpt>
      <trkpt lat="49.17145" lon="6.82124">
        <ele>223.4</ele>
        <time>2021-12-18T13:47:43Z</time>
      </trkpt>
      <trkpt lat="49.17146" lon="6.82124">
        <ele>223.4</ele>
        <time>2021-12-18T13:47:44Z</time>
      </trkpt>
      <trkpt lat="49.17146" lon="6.82124">
        <ele>223.4</ele>
        <time>2021-12-18T13:47:45Z</time>
      </trkpt>
      <trkpt lat="49.17146" lon="6.82124">
        <ele>223.4</ele>
        <time>2021-12-18T13:47:47Z</time>
      </trkpt>
      <trkpt lat="49.17138" lon="6.82132">
        <ele>223.4</ele>
        <time>2021-12-18T13:48:02Z</time>
      </trkpt>
      <trkpt lat="49.17135" lon="6.82145">
        <ele>223.4</ele>
        <time>2021-12-18T13:48:25Z</time>
      </trkpt>
      <trkpt lat="49.17143" lon="6.82142">
        <ele>223.3</ele>
        <time>2021-12-18T13:48:38Z</time>
      </trkpt>
      <trkpt lat="49.17144" lon="6.82142">
        <ele>223.3</ele>
        <time>2021-12-18T13:48:39Z</time>
      </trkpt>
      <trkpt lat="49.17149" lon="6.82142">
        <ele>223.3</ele>
        <time>2021-12-18T13:48:45Z</time>
      </trkpt>
      <trkpt lat="49.17149" lon="6.82143">
        <ele>223.3</ele>
        <time>2021-12-18T13:48:46Z</time>
      </trkpt>
      <trkpt lat="49.17149" lon="6.82143">
        <ele>223.3</ele>
        <time>2021-12-18T13:48:47Z</time>
      </trkpt>
      <trkpt lat="49.17149" lon="6.82143">
        <ele>223.3</ele>
        <time>2021-12-18T13:48:48Z</time>
      </trkpt>
      <trkpt lat="49.17149" lon="6.82144">
        <ele>223.3</ele>
        <time>2021-12-18T13:48:51Z</time>
      </trkpt>
      <trkpt lat="49.17149" lon="6.82144">
        <ele>223.3</ele>
        <time>2021-12-18T13:48:52Z</time>
      </trkpt>
      <trkpt lat="49.17142" lon="6.82156">
        <ele>223.3</ele>
        <time>2021-12-18T13:49:22Z</time>
      </trkpt>
      <trkpt lat="49.17144" lon="6.82171">
        <ele>223.1</ele>
        <time>2021-12-18T13:49:31Z</time>
      </trkpt>
      <trkpt lat="49.17147" lon="6.82183">
        <ele>223</ele>
        <time>2021-12-18T13:49:38Z</time>
      </trkpt>
      <trkpt lat="49.1715" lon="6.82199">
        <ele>222.8</ele>
        <time>2021-12-18T13:49:45Z</time>
      </trkpt>
      <trkpt lat="49.17151" lon="6.82213">
        <ele>222.6</ele>
        <time>2021-12-18T13:49:52Z</time>
      </trkpt>
      <trkpt lat="49.17149" lon="6.82228">
        <ele>222.4</ele>
        <time>2021-12-18T13:50:00Z</time>
      </trkpt>
      <trkpt lat="49.17148" lon="6.82243">
        <ele>222.3</ele>
        <time>2021-12-18T13:50:07Z</time>
      </trkpt>
      <trkpt lat="49.17148" lon="6.82257">
        <ele>221.9</ele>
        <time>2021-12-18T13:50:13Z</time>
      </trkpt>
      <trkpt lat="49.17151" lon="6.82271">
        <ele>221.4</ele>
        <time>2021-12-18T13:50:21Z</time>
      </trkpt>
      <trkpt lat="49.17152" lon="6.82286">
        <ele>221</ele>
        <time>2021-12-18T13:50:28Z</time>
      </trkpt>
      <trkpt lat="49.17151" lon="6.82301">
        <ele>220.6</ele>
        <time>2021-12-18T13:50:37Z</time>
      </trkpt>
      <trkpt lat="49.17149" lon="6.82315">
        <ele>220.2</ele>
        <time>2021-12-18T13:50:44Z</time>
      </trkpt>
      <trkpt lat="49.17149" lon="6.82331">
        <ele>219.9</ele>
        <time>2021-12-18T13:50:51Z</time>
      </trkpt>
      <trkpt lat="49.17148" lon="6.82344">
        <ele>219.6</ele>
        <time>2021-12-18T13:50:58Z</time>
      </trkpt>
      <trkpt lat="49.17149" lon="6.82359">
        <ele>219.4</ele>
        <time>2021-12-18T13:51:05Z</time>
      </trkpt>
      <trkpt lat="49.17149" lon="6.82373">
        <ele>219.2</ele>
        <time>2021-12-18T13:51:13Z</time>
      </trkpt>
      <trkpt lat="49.1715" lon="6.82376">
        <ele>219.2</ele>
        <time>2021-12-18T13:51:24Z</time>
      </trkpt>
      <trkpt lat="49.1715" lon="6.82377">
        <ele>219.2</ele>
        <time>2021-12-18T13:51:28Z</time>
      </trkpt>
      <trkpt lat="49.17151" lon="6.8238">
        <ele>219.1</ele>
        <time>2021-12-18T13:51:35Z</time>
      </trkpt>
      <trkpt lat="49.17151" lon="6.82381">
        <ele>219.1</ele>
        <time>2021-12-18T13:51:39Z</time>
      </trkpt>
      <trkpt lat="49.17151" lon="6.82381">
        <ele>219.1</ele>
        <time>2021-12-18T13:51:40Z</time>
      </trkpt>
      <trkpt lat="49.17151" lon="6.82381">
        <ele>219.1</ele>
        <time>2021-12-18T13:51:46Z</time>
      </trkpt>
      <trkpt lat="49.17141" lon="6.82386">
        <ele>219.2</ele>
        <time>2021-12-18T13:51:57Z</time>
      </trkpt>
      <trkpt lat="49.17132" lon="6.82386">
        <ele>219.5</ele>
        <time>2021-12-18T13:52:03Z</time>
      </trkpt>
      <trkpt lat="49.17125" lon="6.82396">
        <ele>219.8</ele>
        <time>2021-12-18T13:52:11Z</time>
      </trkpt>
      <trkpt lat="49.17117" lon="6.82402">
        <ele>220.1</ele>
        <time>2021-12-18T13:52:23Z</time>
      </trkpt>
      <trkpt lat="49.17108" lon="6.82408">
        <ele>220.5</ele>
        <time>2021-12-18T13:52:31Z</time>
      </trkpt>
      <trkpt lat="49.171" lon="6.82415">
        <ele>220.9</ele>
        <time>2021-12-18T13:52:43Z</time>
      </trkpt>
      <trkpt lat="49.17091" lon="6.82419">
        <ele>221.2</ele>
        <time>2021-12-18T13:52:51Z</time>
      </trkpt>
      <trkpt lat="49.17083" lon="6.82428">
        <ele>221.6</ele>
        <time>2021-12-18T13:52:59Z</time>
      </trkpt>
      <trkpt lat="49.17078" lon="6.82442">
        <ele>222</ele>
        <time>2021-12-18T13:53:06Z</time>
      </trkpt>
      <trkpt lat="49.17077" lon="6.82458">
        <ele>222.4</ele>
        <time>2021-12-18T13:53:13Z</time>
      </trkpt>
      <trkpt lat="49.17075" lon="6.82473">
        <ele>222.9</ele>
        <time>2021-12-18T13:53:20Z</time>
      </trkpt>
      <trkpt lat="49.17073" lon="6.82488">
        <ele>223.3</ele>
        <time>2021-12-18T13:53:28Z</time>
      </trkpt>
      <trkpt lat="49.17071" lon="6.82502">
        <ele>223.7</ele>
        <time>2021-12-18T13:53:36Z</time>
      </trkpt>
      <trkpt lat="49.17068" lon="6.82516">
        <ele>224.1</ele>
        <time>2021-12-18T13:53:43Z</time>
      </trkpt>
      <trkpt lat="49.17064" lon="6.8253">
        <ele>224.5</ele>
        <time>2021-12-18T13:53:51Z</time>
      </trkpt>
      <trkpt lat="49.17063" lon="6.82544">
        <ele>224.9</ele>
        <time>2021-12-18T13:53:57Z</time>
      </trkpt>
      <trkpt lat="49.17059" lon="6.82558">
        <ele>225.3</ele>
        <time>2021-12-18T13:54:05Z</time>
      </trkpt>
      <trkpt lat="49.17058" lon="6.82574">
        <ele>225.7</ele>
        <time>2021-12-18T13:54:12Z</time>
      </trkpt>
      <trkpt lat="49.1706" lon="6.82588">
        <ele>226</ele>
        <time>2021-12-18T13:54:19Z</time>
      </trkpt>
      <trkpt lat="49.17059" lon="6.82602">
        <ele>226.3</ele>
        <time>2021-12-18T13:54:30Z</time>
      </trkpt>
      <trkpt lat="49.17069" lon="6.82608">
        <ele>226.6</ele>
        <time>2021-12-18T13:54:36Z</time>
      </trkpt>
      <trkpt lat="49.17068" lon="6.82608">
        <ele>226.6</ele>
        <time>2021-12-18T13:54:38Z</time>
      </trkpt>
      <trkpt lat="49.17069" lon="6.82608">
        <ele>226.6</ele>
        <time>2021-12-18T13:54:40Z</time>
      </trkpt>
      <trkpt lat="49.17071" lon="6.82611">
        <ele>226.7</ele>
        <time>2021-12-18T13:54:49Z</time>
      </trkpt>
      <trkpt lat="49.17071" lon="6.8261">
        <ele>226.7</ele>
        <time>2021-12-18T13:54:50Z</time>
      </trkpt>
      <trkpt lat="49.17062" lon="6.82615">
        <ele>227.3</ele>
        <time>2021-12-18T13:55:02Z</time>
      </trkpt>
      <trkpt lat="49.17053" lon="6.82615">
        <ele>227.3</ele>
        <time>2021-12-18T13:55:12Z</time>
      </trkpt>
      <trkpt lat="49.17044" lon="6.82616">
        <ele>227.3</ele>
        <time>2021-12-18T13:55:23Z</time>
      </trkpt>
      <trkpt lat="49.17035" lon="6.82615">
        <ele>227.3</ele>
        <time>2021-12-18T13:55:31Z</time>
      </trkpt>
      <trkpt lat="49.17025" lon="6.82614">
        <ele>227.4</ele>
        <time>2021-12-18T13:55:38Z</time>
      </trkpt>
      <trkpt lat="49.1702" lon="6.82615">
        <ele>227.4</ele>
        <time>2021-12-18T13:55:50Z</time>
      </trkpt>
      <trkpt lat="49.17021" lon="6.82615">
        <ele>227.4</ele>
        <time>2021-12-18T13:55:54Z</time>
      </trkpt>
      <trkpt lat="49.1702" lon="6.82617">
        <ele>227.4</ele>
        <time>2021-12-18T13:56:05Z</time>
      </trkpt>
      <trkpt lat="49.1702" lon="6.82617">
        <ele>227.4</ele>
        <time>2021-12-18T13:56:11Z</time>
      </trkpt>
      <trkpt lat="49.17011" lon="6.82624">
        <ele>227.4</ele>
        <time>2021-12-18T13:56:26Z</time>
      </trkpt>
      <trkpt lat="49.17007" lon="6.82632">
        <ele>227.4</ele>
        <time>2021-12-18T13:56:37Z</time>
      </trkpt>
      <trkpt lat="49.17007" lon="6.82632">
        <ele>227.4</ele>
        <time>2021-12-18T13:56:44Z</time>
      </trkpt>
      <trkpt lat="49.17007" lon="6.82632">
        <ele>227.4</ele>
        <time>2021-12-18T13:56:45Z</time>
      </trkpt>
      <trkpt lat="49.17007" lon="6.82632">
        <ele>227.4</ele>
        <time>2021-12-18T13:56:47Z</time>
      </trkpt>
      <trkpt lat="49.17007" lon="6.82632">
        <ele>227.4</ele>
        <time>2021-12-18T13:56:49Z</time>
      </trkpt>
      <trkpt lat="49.17008" lon="6.82633">
        <ele>227.4</ele>
        <time>2021-12-18T13:56:56Z</time>
      </trkpt>
      <trkpt lat="49.17008" lon="6.82633">
        <ele>227.4</ele>
        <time>2021-12-18T13:56:57Z</time>
      </trkpt>
      <trkpt lat="49.17008" lon="6.82633">
        <ele>227.4</ele>
        <time>2021-12-18T13:56:58Z</time>
      </trkpt>
      <trkpt lat="49.17011" lon="6.82636">
        <ele>227.4</ele>
        <time>2021-12-18T13:57:02Z</time>
      </trkpt>
      <trkpt lat="49.17011" lon="6.82636">
        <ele>227.4</ele>
        <time>2021-12-18T13:57:03Z</time>
      </trkpt>
      <trkpt lat="49.17011" lon="6.82636">
        <ele>227.4</ele>
        <time>2021-12-18T13:57:04Z</time>
      </trkpt>
      <trkpt lat="49.17011" lon="6.82637">
        <ele>227.4</ele>
        <time>2021-12-18T13:57:10Z</time>
      </trkpt>
      <trkpt lat="49.17017" lon="6.82638">
        <ele>227.4</ele>
        <time>2021-12-18T13:57:24Z</time>
      </trkpt>
      <trkpt lat="49.17017" lon="6.82638">
        <ele>227.4</ele>
        <time>2021-12-18T13:57:25Z</time>
      </trkpt>
      <trkpt lat="49.17022" lon="6.82626">
        <ele>227.4</ele>
        <time>2021-12-18T13:57:41Z</time>
      </trkpt>
      <trkpt lat="49.17023" lon="6.82625">
        <ele>227.4</ele>
        <time>2021-12-18T13:57:45Z</time>
      </trkpt>
      <trkpt lat="49.17023" lon="6.82624">
        <ele>227.4</ele>
        <time>2021-12-18T13:57:46Z</time>
      </trkpt>
      <trkpt lat="49.17024" lon="6.82624">
        <ele>227.4</ele>
        <time>2021-12-18T13:57:48Z</time>
      </trkpt>
      <trkpt lat="49.17024" lon="6.82624">
        <ele>227.4</ele>
        <time>2021-12-18T13:57:51Z</time>
      </trkpt>
      <trkpt lat="49.17024" lon="6.82624">
        <ele>227.4</ele>
        <time>2021-12-18T13:57:54Z</time>
      </trkpt>
      <trkpt lat="49.17024" lon="6.82624">
        <ele>227.4</ele>
        <time>2021-12-18T13:57:55Z</time>
      </trkpt>
      <trkpt lat="49.17032" lon="6.82627">
        <ele>227.5</ele>
        <time>2021-12-18T13:58:13Z</time>
      </trkpt>
      <trkpt lat="49.17032" lon="6.82627">
        <ele>227.5</ele>
        <time>2021-12-18T13:58:15Z</time>
      </trkpt>
      <trkpt lat="49.17035" lon="6.82627">
        <ele>227.5</ele>
        <time>2021-12-18T13:58:27Z</time>
      </trkpt>
      <trkpt lat="49.17035" lon="6.82628">
        <ele>227.5</ele>
        <time>2021-12-18T13:58:28Z</time>
      </trkpt>
      <trkpt lat="49.17035" lon="6.82627">
        <ele>227.5</ele>
        <time>2021-12-18T13:58:30Z</time>
      </trkpt>
      <trkpt lat="49.17035" lon="6.82627">
        <ele>227.5</ele>
        <time>2021-12-18T13:58:35Z</time>
      </trkpt>
      <trkpt lat="49.17035" lon="6.82627">
        <ele>227.5</ele>
        <time>2021-12-18T13:58:36Z</time>
      </trkpt>
      <trkpt lat="49.17035" lon="6.82627">
        <ele>227.5</ele>
        <time>2021-12-18T13:58:39Z</time>
      </trkpt>
      <trkpt lat="49.17035" lon="6.82627">
        <ele>227.5</ele>
        <time>2021-12-18T13:58:43Z</time>
      </trkpt>
      <trkpt lat="49.17035" lon="6.82626">
        <ele>227.5</ele>
        <time>2021-12-18T13:58:44Z</time>
      </trkpt>
      <trkpt lat="49.17035" lon="6.82626">
        <ele>227.5</ele>
        <time>2021-12-18T13:58:45Z</time>
      </trkpt>
      <trkpt lat="49.17035" lon="6.82626">
        <ele>227.5</ele>
        <time>2021-12-18T13:58:46Z</time>
      </trkpt>
      <trkpt lat="49.17035" lon="6.82626">
        <ele>227.5</ele>
        <time>2021-12-18T13:58:48Z</time>
      </trkpt>
      <trkpt lat="49.17035" lon="6.82626">
        <ele>227.5</ele>
        <time>2021-12-18T13:58:51Z</time>
      </trkpt>
      <trkpt lat="49.17035" lon="6.82626">
        <ele>227.5</ele>
        <time>2021-12-18T13:58:52Z</time>
      </trkpt>
      <trkpt lat="49.17035" lon="6.82626">
        <ele>227.5</ele>
        <time>2021-12-18T13:58:53Z</time>
      </trkpt>
      <trkpt lat="49.17026" lon="6.82622">
        <ele>227.5</ele>
        <time>2021-12-18T13:59:07Z</time>
      </trkpt>
      <trkpt lat="49.1702" lon="6.82625">
        <ele>227.5</ele>
        <time>2021-12-18T13:59:16Z</time>
      </trkpt>
      <trkpt lat="49.17019" lon="6.82625">
        <ele>227.5</ele>
        <time>2021-12-18T13:59:17Z</time>
      </trkpt>
      <trkpt lat="49.17014" lon="6.82638">
        <ele>227.5</ele>
        <time>2021-12-18T13:59:31Z</time>
      </trkpt>
      <trkpt lat="49.17011" lon="6.82651">
        <ele>227.5</ele>
        <time>2021-12-18T13:59:53Z</time>
      </trkpt>
      <trkpt lat="49.17015" lon="6.82652">
        <ele>227.5</ele>
        <time>2021-12-18T14:00:04Z</time>
      </trkpt>
      <trkpt lat="49.17015" lon="6.82652">
        <ele>227.5</ele>
        <time>2021-12-18T14:00:14Z</time>
      </trkpt>
      <trkpt lat="49.17015" lon="6.82652">
        <ele>227.5</ele>
        <time>2021-12-18T14:00:15Z</time>
      </trkpt>
      <trkpt lat="49.17016" lon="6.82652">
        <ele>227.6</ele>
        <time>2021-12-18T14:00:20Z</time>
      </trkpt>
      <trkpt lat="49.17016" lon="6.82652">
        <ele>227.6</ele>
        <time>2021-12-18T14:00:21Z</time>
      </trkpt>
      <trkpt lat="49.17016" lon="6.82652">
        <ele>227.6</ele>
        <time>2021-12-18T14:00:26Z</time>
      </trkpt>
      <trkpt lat="49.17021" lon="6.82653">
        <ele>227.6</ele>
        <time>2021-12-18T14:00:36Z</time>
      </trkpt>
      <trkpt lat="49.17021" lon="6.82653">
        <ele>227.6</ele>
        <time>2021-12-18T14:00:37Z</time>
      </trkpt>
      <trkpt lat="49.17021" lon="6.82653">
        <ele>227.6</ele>
        <time>2021-12-18T14:00:38Z</time>
      </trkpt>
      <trkpt lat="49.17021" lon="6.82653">
        <ele>227.6</ele>
        <time>2021-12-18T14:00:40Z</time>
      </trkpt>
      <trkpt lat="49.17021" lon="6.82653">
        <ele>227.6</ele>
        <time>2021-12-18T14:00:41Z</time>
      </trkpt>
      <trkpt lat="49.17021" lon="6.82653">
        <ele>227.6</ele>
        <time>2021-12-18T14:00:48Z</time>
      </trkpt>
      <trkpt lat="49.17022" lon="6.82652">
        <ele>227.6</ele>
        <time>2021-12-18T14:00:51Z</time>
      </trkpt>
      <trkpt lat="49.17022" lon="6.82652">
        <ele>227.6</ele>
        <time>2021-12-18T14:00:54Z</time>
      </trkpt>
      <trkpt lat="49.17023" lon="6.82651">
        <ele>227.6</ele>
        <time>2021-12-18T14:00:57Z</time>
      </trkpt>
      <trkpt lat="49.17023" lon="6.82651">
        <ele>227.6</ele>
        <time>2021-12-18T14:00:58Z</time>
      </trkpt>
      <trkpt lat="49.17022" lon="6.82648">
        <ele>227.6</ele>
        <time>2021-12-18T14:01:11Z</time>
      </trkpt>
      <trkpt lat="49.17022" lon="6.82648">
        <ele>227.6</ele>
        <time>2021-12-18T14:01:16Z</time>
      </trkpt>
      <trkpt lat="49.17022" lon="6.82648">
        <ele>227.6</ele>
        <time>2021-12-18T14:01:17Z</time>
      </trkpt>
      <trkpt lat="49.17022" lon="6.82648">
        <ele>227.6</ele>
        <time>2021-12-18T14:01:20Z</time>
      </trkpt>
      <trkpt lat="49.17016" lon="6.82644">
        <ele>227.7</ele>
        <time>2021-12-18T14:01:36Z</time>
      </trkpt>
      <trkpt lat="49.17015" lon="6.82645">
        <ele>227.7</ele>
        <time>2021-12-18T14:01:41Z</time>
      </trkpt>
      <trkpt lat="49.17014" lon="6.82645">
        <ele>227.7</ele>
        <time>2021-12-18T14:01:43Z</time>
      </trkpt>
      <trkpt lat="49.17014" lon="6.82645">
        <ele>227.7</ele>
        <time>2021-12-18T14:01:45Z</time>
      </trkpt>
      <trkpt lat="49.17014" lon="6.82645">
        <ele>227.7</ele>
        <time>2021-12-18T14:01:46Z</time>
      </trkpt>
      <trkpt lat="49.17013" lon="6.82645">
        <ele>227.7</ele>
        <time>2021-12-18T14:01:56Z</time>
      </trkpt>
      <trkpt lat="49.17013" lon="6.82645">
        <ele>227.7</ele>
        <time>2021-12-18T14:01:57Z</time>
      </trkpt>
      <trkpt lat="49.17013" lon="6.82645">
        <ele>227.7</ele>
        <time>2021-12-18T14:01:59Z</time>
      </trkpt>
      <trkpt lat="49.17016" lon="6.82648">
        <ele>227.7</ele>
        <time>2021-12-18T14:02:12Z</time>
      </trkpt>
      <trkpt lat="49.17016" lon="6.82648">
        <ele>227.7</ele>
        <time>2021-12-18T14:02:13Z</time>
      </trkpt>
      <trkpt lat="49.17015" lon="6.82648">
        <ele>227.7</ele>
        <time>2021-12-18T14:02:19Z</time>
      </trkpt>
      <trkpt lat="49.17015" lon="6.82648">
        <ele>227.7</ele>
        <time>2021-12-18T14:02:21Z</time>
      </trkpt>
      <trkpt lat="49.17014" lon="6.82649">
        <ele>227.7</ele>
        <time>2021-12-18T14:02:33Z</time>
      </trkpt>
      <trkpt lat="49.17014" lon="6.82649">
        <ele>227.7</ele>
        <time>2021-12-18T14:02:35Z</time>
      </trkpt>
      <trkpt lat="49.17012" lon="6.8265">
        <ele>227.7</ele>
        <time>2021-12-18T14:02:41Z</time>
      </trkpt>
      <trkpt lat="49.17012" lon="6.8265">
        <ele>227.7</ele>
        <time>2021-12-18T14:02:43Z</time>
      </trkpt>
      <trkpt lat="49.17012" lon="6.82649">
        <ele>227.8</ele>
        <time>2021-12-18T14:02:44Z</time>
      </trkpt>
      <trkpt lat="49.17012" lon="6.82649">
        <ele>227.8</ele>
        <time>2021-12-18T14:02:45Z</time>
      </trkpt>
      <trkpt lat="49.17011" lon="6.82644">
        <ele>227.8</ele>
        <time>2021-12-18T14:03:02Z</time>
      </trkpt>
      <trkpt lat="49.1701" lon="6.82644">
        <ele>227.8</ele>
        <time>2021-12-18T14:03:03Z</time>
      </trkpt>
      <trkpt lat="49.17011" lon="6.82651">
        <ele>227.8</ele>
        <time>2021-12-18T14:03:33Z</time>
      </trkpt>
      <trkpt lat="49.17011" lon="6.82651">
        <ele>227.8</ele>
        <time>2021-12-18T14:03:36Z</time>
      </trkpt>
      <trkpt lat="49.17012" lon="6.82652">
        <ele>227.8</ele>
        <time>2021-12-18T14:03:42Z</time>
      </trkpt>
      <trkpt lat="49.17012" lon="6.82652">
        <ele>227.8</ele>
        <time>2021-12-18T14:03:43Z</time>
      </trkpt>
      <trkpt lat="49.17016" lon="6.82651">
        <ele>227.8</ele>
        <time>2021-12-18T14:04:00Z</time>
      </trkpt>
      <trkpt lat="49.17016" lon="6.8265">
        <ele>227.8</ele>
        <time>2021-12-18T14:04:01Z</time>
      </trkpt>
      <trkpt lat="49.17014" lon="6.82647">
        <ele>227.8</ele>
        <time>2021-12-18T14:04:12Z</time>
      </trkpt>
      <trkpt lat="49.17013" lon="6.82647">
        <ele>227.8</ele>
        <time>2021-12-18T14:04:13Z</time>
      </trkpt>
      <trkpt lat="49.17013" lon="6.82647">
        <ele>227.8</ele>
        <time>2021-12-18T14:04:14Z</time>
      </trkpt>
      <trkpt lat="49.17013" lon="6.82647">
        <ele>227.9</ele>
        <time>2021-12-18T14:04:15Z</time>
      </trkpt>
      <trkpt lat="49.17016" lon="6.82647">
        <ele>227.9</ele>
        <time>2021-12-18T14:04:24Z</time>
      </trkpt>
      <trkpt lat="49.17017" lon="6.82647">
        <ele>227.9</ele>
        <time>2021-12-18T14:04:25Z</time>
      </trkpt>
      <trkpt lat="49.17017" lon="6.82647">
        <ele>227.9</ele>
        <time>2021-12-18T14:04:26Z</time>
      </trkpt>
      <trkpt lat="49.17017" lon="6.82647">
        <ele>227.9</ele>
        <time>2021-12-18T14:04:28Z</time>
      </trkpt>
      <trkpt lat="49.1702" lon="6.82647">
        <ele>227.9</ele>
        <time>2021-12-18T14:04:41Z</time>
      </trkpt>
      <trkpt lat="49.17019" lon="6.82646">
        <ele>227.9</ele>
        <time>2021-12-18T14:04:42Z</time>
      </trkpt>
      <trkpt lat="49.17019" lon="6.82646">
        <ele>227.9</ele>
        <time>2021-12-18T14:04:44Z</time>
      </trkpt>
      <trkpt lat="49.17019" lon="6.82647">
        <ele>227.9</ele>
        <time>2021-12-18T14:04:45Z</time>
      </trkpt>
      <trkpt lat="49.17017" lon="6.8265">
        <ele>227.9</ele>
        <time>2021-12-18T14:04:56Z</time>
      </trkpt>
      <trkpt lat="49.17017" lon="6.8265">
        <ele>227.9</ele>
        <time>2021-12-18T14:04:58Z</time>
      </trkpt>
      <trkpt lat="49.17017" lon="6.8265">
        <ele>227.9</ele>
        <time>2021-12-18T14:05:06Z</time>
      </trkpt>
      <trkpt lat="49.17017" lon="6.82651">
        <ele>227.9</ele>
        <time>2021-12-18T14:05:07Z</time>
      </trkpt>
      <trkpt lat="49.17022" lon="6.82653">
        <ele>227.9</ele>
        <time>2021-12-18T14:05:17Z</time>
      </trkpt>
      <trkpt lat="49.17022" lon="6.82653">
        <ele>227.9</ele>
        <time>2021-12-18T14:05:18Z</time>
      </trkpt>
      <trkpt lat="49.17028" lon="6.82659">
        <ele>227.9</ele>
        <time>2021-12-18T14:05:56Z</time>
      </trkpt>
      <trkpt lat="49.17027" lon="6.82659">
        <ele>227.9</ele>
        <time>2021-12-18T14:05:57Z</time>
      </trkpt>
      <trkpt lat="49.17022" lon="6.82659">
        <ele>227.9</ele>
        <time>2021-12-18T14:06:14Z</time>
      </trkpt>
      <trkpt lat="49.17022" lon="6.82658">
        <ele>227.9</ele>
        <time>2021-12-18T14:06:15Z</time>
      </trkpt>
      <trkpt lat="49.17017" lon="6.82661">
        <ele>227.9</ele>
        <time>2021-12-18T14:06:27Z</time>
      </trkpt>
      <trkpt lat="49.17017" lon="6.8266">
        <ele>227.9</ele>
        <time>2021-12-18T14:06:28Z</time>
      </trkpt>
      <trkpt lat="49.17018" lon="6.82663">
        <ele>228</ele>
        <time>2021-12-18T14:06:35Z</time>
      </trkpt>
      <trkpt lat="49.17017" lon="6.82663">
        <ele>228</ele>
        <time>2021-12-18T14:06:36Z</time>
      </trkpt>
      <trkpt lat="49.17008" lon="6.82663">
        <ele>228</ele>
        <time>2021-12-18T14:07:10Z</time>
      </trkpt>
      <trkpt lat="49.17" lon="6.82659">
        <ele>228</ele>
        <time>2021-12-18T14:07:28Z</time>
      </trkpt>
      <trkpt lat="49.16999" lon="6.82659">
        <ele>228.1</ele>
        <time>2021-12-18T14:07:29Z</time>
      </trkpt>
      <trkpt lat="49.17009" lon="6.82658">
        <ele>228</ele>
        <time>2021-12-18T14:07:39Z</time>
      </trkpt>
      <trkpt lat="49.17017" lon="6.82665">
        <ele>228</ele>
        <time>2021-12-18T14:07:54Z</time>
      </trkpt>
      <trkpt lat="49.17013" lon="6.82657">
        <ele>228</ele>
        <time>2021-12-18T14:09:05Z</time>
      </trkpt>
      <trkpt lat="49.17013" lon="6.82656">
        <ele>228</ele>
        <time>2021-12-18T14:09:06Z</time>
      </trkpt>
      <trkpt lat="49.17006" lon="6.82668">
        <ele>228</ele>
        <time>2021-12-18T14:09:34Z</time>
      </trkpt>
      <trkpt lat="49.1701" lon="6.82659">
        <ele>227.9</ele>
        <time>2021-12-18T14:10:07Z</time>
      </trkpt>
      <trkpt lat="49.17012" lon="6.82661">
        <ele>227.9</ele>
        <time>2021-12-18T14:10:08Z</time>
      </trkpt>
      <trkpt lat="49.17021" lon="6.82654">
        <ele>227.9</ele>
        <time>2021-12-18T14:10:58Z</time>
      </trkpt>
      <trkpt lat="49.1701" lon="6.82653">
        <ele>227.9</ele>
        <time>2021-12-18T14:11:31Z</time>
      </trkpt>
      <trkpt lat="49.17019" lon="6.82659">
        <ele>227.9</ele>
        <time>2021-12-18T14:11:51Z</time>
      </trkpt>
      <trkpt lat="49.1701" lon="6.82663">
        <ele>227.8</ele>
        <time>2021-12-18T14:11:56Z</time>
      </trkpt>
      <trkpt lat="49.17003" lon="6.82678">
        <ele>227.8</ele>
        <time>2021-12-18T14:12:01Z</time>
      </trkpt>
      <trkpt lat="49.1702" lon="6.82666">
        <ele>227.8</ele>
        <time>2021-12-18T14:12:10Z</time>
      </trkpt>
      <trkpt lat="49.17011" lon="6.82657">
        <ele>227.7</ele>
        <time>2021-12-18T14:12:23Z</time>
      </trkpt>
      <trkpt lat="49.17017" lon="6.82646">
        <ele>227.7</ele>
        <time>2021-12-18T14:12:42Z</time>
      </trkpt>
      <trkpt lat="49.17024" lon="6.82654">
        <ele>227.7</ele>
        <time>2021-12-18T14:12:52Z</time>
      </trkpt>
      <trkpt lat="49.17015" lon="6.82662">
        <ele>227.7</ele>
        <time>2021-12-18T14:13:04Z</time>
      </trkpt>
      <trkpt lat="49.17009" lon="6.82657">
        <ele>227.6</ele>
        <time>2021-12-18T14:13:18Z</time>
      </trkpt>
      <trkpt lat="49.17009" lon="6.82658">
        <ele>227.6</ele>
        <time>2021-12-18T14:13:21Z</time>
      </trkpt>
      <trkpt lat="49.17005" lon="6.82654">
        <ele>227.6</ele>
        <time>2021-12-18T14:13:43Z</time>
      </trkpt>
      <trkpt lat="49.17004" lon="6.82654">
        <ele>227.6</ele>
        <time>2021-12-18T14:13:44Z</time>
      </trkpt>
      <trkpt lat="49.17006" lon="6.82655">
        <ele>227.6</ele>
        <time>2021-12-18T14:13:48Z</time>
      </trkpt>
      <trkpt lat="49.17006" lon="6.82655">
        <ele>227.6</ele>
        <time>2021-12-18T14:14:00Z</time>
      </trkpt>
      <trkpt lat="49.17006" lon="6.82655">
        <ele>227.6</ele>
        <time>2021-12-18T14:14:01Z</time>
      </trkpt>
      <trkpt lat="49.17007" lon="6.82655">
        <ele>227.6</ele>
        <time>2021-12-18T14:14:03Z</time>
      </trkpt>
      <trkpt lat="49.17007" lon="6.82655">
        <ele>227.6</ele>
        <time>2021-12-18T14:14:04Z</time>
      </trkpt>
      <trkpt lat="49.17007" lon="6.82655">
        <ele>227.6</ele>
        <time>2021-12-18T14:14:17Z</time>
      </trkpt>
      <trkpt lat="49.17007" lon="6.82655">
        <ele>227.6</ele>
        <time>2021-12-18T14:14:18Z</time>
      </trkpt>
      <trkpt lat="49.17007" lon="6.82655">
        <ele>227.6</ele>
        <time>2021-12-18T14:14:29Z</time>
      </trkpt>
      <trkpt lat="49.17007" lon="6.82655">
        <ele>227.6</ele>
        <time>2021-12-18T14:14:30Z</time>
      </trkpt>
      <trkpt lat="49.17007" lon="6.82655">
        <ele>227.6</ele>
        <time>2021-12-18T14:14:38Z</time>
      </trkpt>
      <trkpt lat="49.17007" lon="6.82655">
        <ele>227.6</ele>
        <time>2021-12-18T14:14:39Z</time>
      </trkpt>
      <trkpt lat="49.17007" lon="6.82655">
        <ele>227.6</ele>
        <time>2021-12-18T14:14:50Z</time>
      </trkpt>
      <trkpt lat="49.17007" lon="6.82655">
        <ele>227.6</ele>
        <time>2021-12-18T14:14:51Z</time>
      </trkpt>
      <trkpt lat="49.17007" lon="6.82655">
        <ele>227.6</ele>
        <time>2021-12-18T14:14:58Z</time>
      </trkpt>
      <trkpt lat="49.17007" lon="6.82655">
        <ele>227.6</ele>
        <time>2021-12-18T14:14:59Z</time>
      </trkpt>
      <trkpt lat="49.17008" lon="6.82655">
        <ele>227.6</ele>
        <time>2021-12-18T14:15:21Z</time>
      </trkpt>
      <trkpt lat="49.17008" lon="6.82655">
        <ele>227.6</ele>
        <time>2021-12-18T14:15:22Z</time>
      </trkpt>
      <trkpt lat="49.17008" lon="6.82655">
        <ele>227.6</ele>
        <time>2021-12-18T14:15:25Z</time>
      </trkpt>
      <trkpt lat="49.17008" lon="6.82655">
        <ele>227.6</ele>
        <time>2021-12-18T14:15:26Z</time>
      </trkpt>
      <trkpt lat="49.17008" lon="6.82655">
        <ele>227.6</ele>
        <time>2021-12-18T14:15:29Z</time>
      </trkpt>
      <trkpt lat="49.17011" lon="6.82654">
        <ele>227.6</ele>
        <time>2021-12-18T14:15:33Z</time>
      </trkpt>
      <trkpt lat="49.17011" lon="6.82654">
        <ele>227.6</ele>
        <time>2021-12-18T14:15:38Z</time>
      </trkpt>
      <trkpt lat="49.17011" lon="6.82654">
        <ele>227.6</ele>
        <time>2021-12-18T14:15:39Z</time>
      </trkpt>
      <trkpt lat="49.17011" lon="6.82654">
        <ele>227.6</ele>
        <time>2021-12-18T14:15:44Z</time>
      </trkpt>
      <trkpt lat="49.17011" lon="6.82654">
        <ele>227.6</ele>
        <time>2021-12-18T14:15:45Z</time>
      </trkpt>
      <trkpt lat="49.17011" lon="6.82654">
        <ele>227.6</ele>
        <time>2021-12-18T14:15:47Z</time>
      </trkpt>
      <trkpt lat="49.17012" lon="6.82654">
        <ele>227.6</ele>
        <time>2021-12-18T14:15:50Z</time>
      </trkpt>
      <trkpt lat="49.17012" lon="6.82654">
        <ele>227.6</ele>
        <time>2021-12-18T14:15:51Z</time>
      </trkpt>
      <trkpt lat="49.17012" lon="6.82654">
        <ele>227.6</ele>
        <time>2021-12-18T14:15:52Z</time>
      </trkpt>
      <trkpt lat="49.17012" lon="6.82654">
        <ele>227.6</ele>
        <time>2021-12-18T14:15:54Z</time>
      </trkpt>
      <trkpt lat="49.17014" lon="6.82655">
        <ele>227.6</ele>
        <time>2021-12-18T14:16:00Z</time>
      </trkpt>
      <trkpt lat="49.17014" lon="6.82655">
        <ele>227.6</ele>
        <time>2021-12-18T14:16:02Z</time>
      </trkpt>
      <trkpt lat="49.17015" lon="6.82656">
        <ele>227.6</ele>
        <time>2021-12-18T14:16:06Z</time>
      </trkpt>
      <trkpt lat="49.17015" lon="6.82656">
        <ele>227.6</ele>
        <time>2021-12-18T14:16:07Z</time>
      </trkpt>
      <trkpt lat="49.17016" lon="6.82657">
        <ele>227.6</ele>
        <time>2021-12-18T14:16:13Z</time>
      </trkpt>
      <trkpt lat="49.17017" lon="6.82657">
        <ele>227.6</ele>
        <time>2021-12-18T14:16:14Z</time>
      </trkpt>
      <trkpt lat="49.17017" lon="6.82657">
        <ele>227.6</ele>
        <time>2021-12-18T14:16:16Z</time>
      </trkpt>
      <trkpt lat="49.17017" lon="6.82658">
        <ele>227.6</ele>
        <time>2021-12-18T14:16:23Z</time>
      </trkpt>
      <trkpt lat="49.1702" lon="6.8266">
        <ele>227.6</ele>
        <time>2021-12-18T14:16:34Z</time>
      </trkpt>
      <trkpt lat="49.1702" lon="6.8266">
        <ele>227.6</ele>
        <time>2021-12-18T14:16:35Z</time>
      </trkpt>
      <trkpt lat="49.1702" lon="6.82661">
        <ele>227.6</ele>
        <time>2021-12-18T14:16:38Z</time>
      </trkpt>
      <trkpt lat="49.1702" lon="6.8266">
        <ele>227.6</ele>
        <time>2021-12-18T14:16:48Z</time>
      </trkpt>
      <trkpt lat="49.1702" lon="6.8266">
        <ele>227.6</ele>
        <time>2021-12-18T14:16:49Z</time>
      </trkpt>
      <trkpt lat="49.1702" lon="6.8266">
        <ele>227.6</ele>
        <time>2021-12-18T14:16:51Z</time>
      </trkpt>
      <trkpt lat="49.17021" lon="6.82659">
        <ele>227.6</ele>
        <time>2021-12-18T14:16:53Z</time>
      </trkpt>
      <trkpt lat="49.17021" lon="6.82659">
        <ele>227.6</ele>
        <time>2021-12-18T14:16:54Z</time>
      </trkpt>
      <trkpt lat="49.17021" lon="6.82659">
        <ele>227.6</ele>
        <time>2021-12-18T14:16:56Z</time>
      </trkpt>
      <trkpt lat="49.1702" lon="6.82659">
        <ele>227.6</ele>
        <time>2021-12-18T14:17:03Z</time>
      </trkpt>
      <trkpt lat="49.17021" lon="6.82659">
        <ele>227.5</ele>
        <time>2021-12-18T14:17:08Z</time>
      </trkpt>
      <trkpt lat="49.17021" lon="6.82659">
        <ele>227.5</ele>
        <time>2021-12-18T14:17:10Z</time>
      </trkpt>
      <trkpt lat="49.17021" lon="6.82659">
        <ele>227.5</ele>
        <time>2021-12-18T14:17:11Z</time>
      </trkpt>
      <trkpt lat="49.17022" lon="6.82659">
        <ele>227.5</ele>
        <time>2021-12-18T14:17:12Z</time>
      </trkpt>
      <trkpt lat="49.17021" lon="6.82659">
        <ele>227.5</ele>
        <time>2021-12-18T14:17:14Z</time>
      </trkpt>
      <trkpt lat="49.17022" lon="6.82659">
        <ele>227.5</ele>
        <time>2021-12-18T14:17:15Z</time>
      </trkpt>
      <trkpt lat="49.17022" lon="6.82659">
        <ele>227.5</ele>
        <time>2021-12-18T14:17:17Z</time>
      </trkpt>
      <trkpt lat="49.17022" lon="6.82659">
        <ele>227.5</ele>
        <time>2021-12-18T14:17:19Z</time>
      </trkpt>
      <trkpt lat="49.1702" lon="6.8266">
        <ele>227.5</ele>
        <time>2021-12-18T14:17:29Z</time>
      </trkpt>
      <trkpt lat="49.1702" lon="6.8266">
        <ele>227.5</ele>
        <time>2021-12-18T14:17:30Z</time>
      </trkpt>
      <trkpt lat="49.1702" lon="6.8266">
        <ele>227.5</ele>
        <time>2021-12-18T14:17:31Z</time>
      </trkpt>
      <trkpt lat="49.1702" lon="6.8266">
        <ele>227.5</ele>
        <time>2021-12-18T14:17:32Z</time>
      </trkpt>
      <trkpt lat="49.1702" lon="6.82659">
        <ele>227.5</ele>
        <time>2021-12-18T14:17:37Z</time>
      </trkpt>
      <trkpt lat="49.1702" lon="6.82658">
        <ele>227.5</ele>
        <time>2021-12-18T14:17:42Z</time>
      </trkpt>
      <trkpt lat="49.1702" lon="6.82658">
        <ele>227.5</ele>
        <time>2021-12-18T14:17:44Z</time>
      </trkpt>
      <trkpt lat="49.1702" lon="6.82658">
        <ele>227.5</ele>
        <time>2021-12-18T14:17:45Z</time>
      </trkpt>
      <trkpt lat="49.1702" lon="6.82659">
        <ele>227.5</ele>
        <time>2021-12-18T14:17:50Z</time>
      </trkpt>
      <trkpt lat="49.1702" lon="6.82659">
        <ele>227.5</ele>
        <time>2021-12-18T14:17:51Z</time>
      </trkpt>
      <trkpt lat="49.17021" lon="6.82659">
        <ele>227.5</ele>
        <time>2021-12-18T14:17:55Z</time>
      </trkpt>
      <trkpt lat="49.17021" lon="6.82659">
        <ele>227.5</ele>
        <time>2021-12-18T14:17:58Z</time>
      </trkpt>
      <trkpt lat="49.17021" lon="6.82659">
        <ele>227.5</ele>
        <time>2021-12-18T14:18:00Z</time>
      </trkpt>
      <trkpt lat="49.17021" lon="6.82659">
        <ele>227.5</ele>
        <time>2021-12-18T14:18:01Z</time>
      </trkpt>
      <trkpt lat="49.1702" lon="6.82658">
        <ele>227.5</ele>
        <time>2021-12-18T14:18:13Z</time>
      </trkpt>
      <trkpt lat="49.1702" lon="6.82658">
        <ele>227.5</ele>
        <time>2021-12-18T14:18:14Z</time>
      </trkpt>
      <trkpt lat="49.17019" lon="6.82657">
        <ele>227.5</ele>
        <time>2021-12-18T14:18:20Z</time>
      </trkpt>
      <trkpt lat="49.17019" lon="6.82657">
        <ele>227.5</ele>
        <time>2021-12-18T14:18:22Z</time>
      </trkpt>
      <trkpt lat="49.17017" lon="6.82657">
        <ele>227.5</ele>
        <time>2021-12-18T14:18:26Z</time>
      </trkpt>
      <trkpt lat="49.17017" lon="6.82657">
        <ele>227.5</ele>
        <time>2021-12-18T14:18:28Z</time>
      </trkpt>
      <trkpt lat="49.17018" lon="6.82655">
        <ele>227.5</ele>
        <time>2021-12-18T14:18:36Z</time>
      </trkpt>
      <trkpt lat="49.17019" lon="6.82655">
        <ele>227.5</ele>
        <time>2021-12-18T14:18:37Z</time>
      </trkpt>
      <trkpt lat="49.17019" lon="6.82655">
        <ele>227.5</ele>
        <time>2021-12-18T14:18:38Z</time>
      </trkpt>
      <trkpt lat="49.17019" lon="6.82655">
        <ele>227.5</ele>
        <time>2021-12-18T14:18:39Z</time>
      </trkpt>
      <trkpt lat="49.17019" lon="6.82655">
        <ele>227.5</ele>
        <time>2021-12-18T14:18:41Z</time>
      </trkpt>
      <trkpt lat="49.1702" lon="6.82655">
        <ele>227.5</ele>
        <time>2021-12-18T14:18:42Z</time>
      </trkpt>
      <trkpt lat="49.1702" lon="6.82656">
        <ele>227.5</ele>
        <time>2021-12-18T14:18:45Z</time>
      </trkpt>
      <trkpt lat="49.1702" lon="6.82656">
        <ele>227.5</ele>
        <time>2021-12-18T14:18:46Z</time>
      </trkpt>
      <trkpt lat="49.1702" lon="6.82656">
        <ele>227.5</ele>
        <time>2021-12-18T14:18:47Z</time>
      </trkpt>
      <trkpt lat="49.1702" lon="6.82656">
        <ele>227.5</ele>
        <time>2021-12-18T14:18:49Z</time>
      </trkpt>
      <trkpt lat="49.1702" lon="6.82656">
        <ele>227.5</ele>
        <time>2021-12-18T14:18:50Z</time>
      </trkpt>
      <trkpt lat="49.17021" lon="6.82655">
        <ele>227.5</ele>
        <time>2021-12-18T14:19:34Z</time>
      </trkpt>
      <trkpt lat="49.1702" lon="6.82656">
        <ele>227.5</ele>
        <time>2021-12-18T14:19:42Z</time>
      </trkpt>
      <trkpt lat="49.1702" lon="6.82656">
        <ele>227.5</ele>
        <time>2021-12-18T14:19:43Z</time>
      </trkpt>
      <trkpt lat="49.17018" lon="6.82657">
        <ele>227.5</ele>
        <time>2021-12-18T14:19:55Z</time>
      </trkpt>
      <trkpt lat="49.17018" lon="6.82657">
        <ele>227.5</ele>
        <time>2021-12-18T14:19:56Z</time>
      </trkpt>
      <trkpt lat="49.1702" lon="6.82655">
        <ele>227.5</ele>
        <time>2021-12-18T14:20:06Z</time>
      </trkpt>
      <trkpt lat="49.1702" lon="6.82655">
        <ele>227.5</ele>
        <time>2021-12-18T14:20:07Z</time>
      </trkpt>
      <trkpt lat="49.17018" lon="6.82655">
        <ele>227.5</ele>
        <time>2021-12-18T14:20:17Z</time>
      </trkpt>
      <trkpt lat="49.17018" lon="6.82655">
        <ele>227.4</ele>
        <time>2021-12-18T14:20:21Z</time>
      </trkpt>
      <trkpt lat="49.17015" lon="6.82649">
        <ele>227.4</ele>
        <time>2021-12-18T14:20:33Z</time>
      </trkpt>
      <trkpt lat="49.17015" lon="6.82649">
        <ele>227.4</ele>
        <time>2021-12-18T14:20:35Z</time>
      </trkpt>
      <trkpt lat="49.17015" lon="6.82648">
        <ele>227.4</ele>
        <time>2021-12-18T14:20:37Z</time>
      </trkpt>
      <trkpt lat="49.17014" lon="6.82648">
        <ele>227.4</ele>
        <time>2021-12-18T14:20:38Z</time>
      </trkpt>
      <trkpt lat="49.17014" lon="6.82648">
        <ele>227.4</ele>
        <time>2021-12-18T14:20:46Z</time>
      </trkpt>
      <trkpt lat="49.17014" lon="6.82648">
        <ele>227.4</ele>
        <time>2021-12-18T14:20:51Z</time>
      </trkpt>
      <trkpt lat="49.17014" lon="6.82648">
        <ele>227.4</ele>
        <time>2021-12-18T14:20:52Z</time>
      </trkpt>
      <trkpt lat="49.17015" lon="6.82649">
        <ele>227.4</ele>
        <time>2021-12-18T14:21:08Z</time>
      </trkpt>
      <trkpt lat="49.17015" lon="6.82649">
        <ele>227.4</ele>
        <time>2021-12-18T14:21:09Z</time>
      </trkpt>
      <trkpt lat="49.17015" lon="6.82649">
        <ele>227.4</ele>
        <time>2021-12-18T14:21:11Z</time>
      </trkpt>
      <trkpt lat="49.17015" lon="6.82645">
        <ele>227.4</ele>
        <time>2021-12-18T14:21:19Z</time>
      </trkpt>
      <trkpt lat="49.17015" lon="6.82645">
        <ele>227.4</ele>
        <time>2021-12-18T14:21:21Z</time>
      </trkpt>
      <trkpt lat="49.17017" lon="6.82631">
        <ele>227.4</ele>
        <time>2021-12-18T14:21:34Z</time>
      </trkpt>
      <trkpt lat="49.17025" lon="6.82621">
        <ele>227.3</ele>
        <time>2021-12-18T14:21:51Z</time>
      </trkpt>
      <trkpt lat="49.17028" lon="6.8262">
        <ele>227.3</ele>
        <time>2021-12-18T14:22:00Z</time>
      </trkpt>
      <trkpt lat="49.17028" lon="6.8262">
        <ele>227.3</ele>
        <time>2021-12-18T14:22:02Z</time>
      </trkpt>
      <trkpt lat="49.17028" lon="6.8262">
        <ele>227.3</ele>
        <time>2021-12-18T14:22:04Z</time>
      </trkpt>
      <trkpt lat="49.17028" lon="6.8262">
        <ele>227.3</ele>
        <time>2021-12-18T14:22:06Z</time>
      </trkpt>
      <trkpt lat="49.17028" lon="6.82621">
        <ele>227.3</ele>
        <time>2021-12-18T14:22:08Z</time>
      </trkpt>
      <trkpt lat="49.17028" lon="6.8262">
        <ele>227.3</ele>
        <time>2021-12-18T14:22:09Z</time>
      </trkpt>
      <trkpt lat="49.17028" lon="6.8262">
        <ele>227.3</ele>
        <time>2021-12-18T14:22:10Z</time>
      </trkpt>
      <trkpt lat="49.17028" lon="6.8262">
        <ele>227.3</ele>
        <time>2021-12-18T14:22:11Z</time>
      </trkpt>
      <trkpt lat="49.17028" lon="6.8262">
        <ele>227.3</ele>
        <time>2021-12-18T14:22:12Z</time>
      </trkpt>
      <trkpt lat="49.17028" lon="6.8262">
        <ele>227.3</ele>
        <time>2021-12-18T14:22:15Z</time>
      </trkpt>
      <trkpt lat="49.17028" lon="6.82619">
        <ele>227.3</ele>
        <time>2021-12-18T14:22:18Z</time>
      </trkpt>
      <trkpt lat="49.17028" lon="6.82619">
        <ele>227.3</ele>
        <time>2021-12-18T14:22:19Z</time>
      </trkpt>
      <trkpt lat="49.17031" lon="6.82621">
        <ele>227.3</ele>
        <time>2021-12-18T14:22:27Z</time>
      </trkpt>
      <trkpt lat="49.17031" lon="6.82621">
        <ele>227.3</ele>
        <time>2021-12-18T14:22:28Z</time>
      </trkpt>
      <trkpt lat="49.17031" lon="6.82621">
        <ele>227.3</ele>
        <time>2021-12-18T14:22:29Z</time>
      </trkpt>
      <trkpt lat="49.17031" lon="6.82621">
        <ele>227.3</ele>
        <time>2021-12-18T14:22:30Z</time>
      </trkpt>
      <trkpt lat="49.17031" lon="6.82621">
        <ele>227.3</ele>
        <time>2021-12-18T14:22:31Z</time>
      </trkpt>
      <trkpt lat="49.17031" lon="6.82621">
        <ele>227.3</ele>
        <time>2021-12-18T14:22:32Z</time>
      </trkpt>
      <trkpt lat="49.17031" lon="6.82622">
        <ele>227.3</ele>
        <time>2021-12-18T14:22:34Z</time>
      </trkpt>
      <trkpt lat="49.17031" lon="6.82622">
        <ele>227.3</ele>
        <time>2021-12-18T14:22:36Z</time>
      </trkpt>
      <trkpt lat="49.17041" lon="6.82624">
        <ele>227.2</ele>
        <time>2021-12-18T14:22:49Z</time>
      </trkpt>
      <trkpt lat="49.1705" lon="6.82627">
        <ele>227.2</ele>
        <time>2021-12-18T14:22:57Z</time>
      </trkpt>
      <trkpt lat="49.1706" lon="6.82629">
        <ele>227.2</ele>
        <time>2021-12-18T14:23:05Z</time>
      </trkpt>
      <trkpt lat="49.17069" lon="6.82634">
        <ele>227.1</ele>
        <time>2021-12-18T14:23:13Z</time>
      </trkpt>
      <trkpt lat="49.17069" lon="6.82649">
        <ele>227.2</ele>
        <time>2021-12-18T14:23:22Z</time>
      </trkpt>
      <trkpt lat="49.17072" lon="6.82663">
        <ele>227.2</ele>
        <time>2021-12-18T14:23:33Z</time>
      </trkpt>
      <trkpt lat="49.17071" lon="6.82677">
        <ele>227.2</ele>
        <time>2021-12-18T14:23:42Z</time>
      </trkpt>
      <trkpt lat="49.1707" lon="6.82691">
        <ele>227.2</ele>
        <time>2021-12-18T14:23:48Z</time>
      </trkpt>
      <trkpt lat="49.1707" lon="6.82707">
        <ele>227.1</ele>
        <time>2021-12-18T14:23:55Z</time>
      </trkpt>
      <trkpt lat="49.17076" lon="6.82719">
        <ele>224.8</ele>
        <time>2021-12-18T14:24:05Z</time>
      </trkpt>
      <trkpt lat="49.17085" lon="6.82716">
        <ele>220.9</ele>
        <time>2021-12-18T14:24:13Z</time>
      </trkpt>
      <trkpt lat="49.17095" lon="6.82718">
        <ele>220.5</ele>
        <time>2021-12-18T14:24:22Z</time>
      </trkpt>
      <trkpt lat="49.17105" lon="6.82719">
        <ele>219.9</ele>
        <time>2021-12-18T14:24:28Z</time>
      </trkpt>
      <trkpt lat="49.17115" lon="6.82718">
        <ele>219.4</ele>
        <time>2021-12-18T14:24:35Z</time>
      </trkpt>
      <trkpt lat="49.17124" lon="6.82719">
        <ele>219</ele>
        <time>2021-12-18T14:24:42Z</time>
      </trkpt>
      <trkpt lat="49.17134" lon="6.82721">
        <ele>218.6</ele>
        <time>2021-12-18T14:24:50Z</time>
      </trkpt>
      <trkpt lat="49.17143" lon="6.82722">
        <ele>218.3</ele>
        <time>2021-12-18T14:24:57Z</time>
      </trkpt>
      <trkpt lat="49.17153" lon="6.8272">
        <ele>218</ele>
        <time>2021-12-18T14:25:04Z</time>
      </trkpt>
      <trkpt lat="49.17163" lon="6.8272">
        <ele>217.9</ele>
        <time>2021-12-18T14:25:12Z</time>
      </trkpt>
      <trkpt lat="49.17172" lon="6.82716">
        <ele>217.6</ele>
        <time>2021-12-18T14:25:19Z</time>
      </trkpt>
      <trkpt lat="49.17182" lon="6.82715">
        <ele>217.6</ele>
        <time>2021-12-18T14:25:27Z</time>
      </trkpt>
      <trkpt lat="49.17191" lon="6.82712">
        <ele>217.8</ele>
        <time>2021-12-18T14:25:34Z</time>
      </trkpt>
      <trkpt lat="49.17201" lon="6.82707">
        <ele>218.2</ele>
        <time>2021-12-18T14:25:43Z</time>
      </trkpt>
      <trkpt lat="49.1721" lon="6.82704">
        <ele>219</ele>
        <time>2021-12-18T14:25:49Z</time>
      </trkpt>
      <trkpt lat="49.17219" lon="6.82701">
        <ele>219.9</ele>
        <time>2021-12-18T14:25:57Z</time>
      </trkpt>
      <trkpt lat="49.17228" lon="6.82695">
        <ele>220.8</ele>
        <time>2021-12-18T14:26:06Z</time>
      </trkpt>
      <trkpt lat="49.17237" lon="6.82691">
        <ele>221.7</ele>
        <time>2021-12-18T14:26:14Z</time>
      </trkpt>
      <trkpt lat="49.17245" lon="6.82685">
        <ele>222.5</ele>
        <time>2021-12-18T14:26:26Z</time>
      </trkpt>
      <trkpt lat="49.17245" lon="6.82685">
        <ele>222.7</ele>
        <time>2021-12-18T14:26:28Z</time>
      </trkpt>
      <trkpt lat="49.17245" lon="6.82685">
        <ele>222.8</ele>
        <time>2021-12-18T14:26:29Z</time>
      </trkpt>
      <trkpt lat="49.17247" lon="6.82685">
        <ele>222.8</ele>
        <time>2021-12-18T14:26:33Z</time>
      </trkpt>
      <trkpt lat="49.17246" lon="6.82684">
        <ele>222.8</ele>
        <time>2021-12-18T14:26:34Z</time>
      </trkpt>
      <trkpt lat="49.17252" lon="6.82697">
        <ele>222.8</ele>
        <time>2021-12-18T14:26:43Z</time>
      </trkpt>
      <trkpt lat="49.17256" lon="6.82711">
        <ele>222.8</ele>
        <time>2021-12-18T14:26:50Z</time>
      </trkpt>
      <trkpt lat="49.17256" lon="6.82712">
        <ele>222.8</ele>
        <time>2021-12-18T14:26:55Z</time>
      </trkpt>
      <trkpt lat="49.17257" lon="6.82712">
        <ele>222.8</ele>
        <time>2021-12-18T14:26:56Z</time>
      </trkpt>
      <trkpt lat="49.17264" lon="6.8272">
        <ele>222.9</ele>
        <time>2021-12-18T14:27:06Z</time>
      </trkpt>
      <trkpt lat="49.17272" lon="6.82728">
        <ele>223</ele>
        <time>2021-12-18T14:27:12Z</time>
      </trkpt>
      <trkpt lat="49.17278" lon="6.82739">
        <ele>223</ele>
        <time>2021-12-18T14:27:18Z</time>
      </trkpt>
      <trkpt lat="49.17276" lon="6.82754">
        <ele>223.1</ele>
        <time>2021-12-18T14:27:26Z</time>
      </trkpt>
      <trkpt lat="49.17282" lon="6.82767">
        <ele>223.1</ele>
        <time>2021-12-18T14:27:34Z</time>
      </trkpt>
      <trkpt lat="49.17289" lon="6.82778">
        <ele>223.1</ele>
        <time>2021-12-18T14:27:42Z</time>
      </trkpt>
      <trkpt lat="49.17294" lon="6.8279">
        <ele>223.1</ele>
        <time>2021-12-18T14:27:49Z</time>
      </trkpt>
      <trkpt lat="49.17302" lon="6.82798">
        <ele>223.1</ele>
        <time>2021-12-18T14:27:55Z</time>
      </trkpt>
      <trkpt lat="49.17306" lon="6.82813">
        <ele>223</ele>
        <time>2021-12-18T14:28:03Z</time>
      </trkpt>
      <trkpt lat="49.17311" lon="6.82824">
        <ele>222.9</ele>
        <time>2021-12-18T14:28:10Z</time>
      </trkpt>
      <trkpt lat="49.17317" lon="6.82836">
        <ele>222.7</ele>
        <time>2021-12-18T14:28:18Z</time>
      </trkpt>
      <trkpt lat="49.17322" lon="6.82848">
        <ele>222.5</ele>
        <time>2021-12-18T14:28:25Z</time>
      </trkpt>
      <trkpt lat="49.17327" lon="6.82861">
        <ele>222.3</ele>
        <time>2021-12-18T14:28:32Z</time>
      </trkpt>
      <trkpt lat="49.17335" lon="6.8287">
        <ele>222</ele>
        <time>2021-12-18T14:28:40Z</time>
      </trkpt>
      <trkpt lat="49.17343" lon="6.82878">
        <ele>221.8</ele>
        <time>2021-12-18T14:28:45Z</time>
      </trkpt>
      <trkpt lat="49.17348" lon="6.82891">
        <ele>221.6</ele>
        <time>2021-12-18T14:28:54Z</time>
      </trkpt>
      <trkpt lat="49.17351" lon="6.82905">
        <ele>221.3</ele>
        <time>2021-12-18T14:29:02Z</time>
      </trkpt>
      <trkpt lat="49.17357" lon="6.82918">
        <ele>221.1</ele>
        <time>2021-12-18T14:29:09Z</time>
      </trkpt>
      <trkpt lat="49.17362" lon="6.82931">
        <ele>220.8</ele>
        <time>2021-12-18T14:29:18Z</time>
      </trkpt>
      <trkpt lat="49.17365" lon="6.82946">
        <ele>220.5</ele>
        <time>2021-12-18T14:29:26Z</time>
      </trkpt>
      <trkpt lat="49.17371" lon="6.82958">
        <ele>220.2</ele>
        <time>2021-12-18T14:29:34Z</time>
      </trkpt>
      <trkpt lat="49.17377" lon="6.82969">
        <ele>220</ele>
        <time>2021-12-18T14:29:40Z</time>
      </trkpt>
      <trkpt lat="49.17381" lon="6.82983">
        <ele>219.7</ele>
        <time>2021-12-18T14:29:48Z</time>
      </trkpt>
      <trkpt lat="49.17383" lon="6.82998">
        <ele>219.4</ele>
        <time>2021-12-18T14:29:58Z</time>
      </trkpt>
      <trkpt lat="49.17386" lon="6.83013">
        <ele>219.1</ele>
        <time>2021-12-18T14:30:07Z</time>
      </trkpt>
      <trkpt lat="49.17391" lon="6.83025">
        <ele>218.7</ele>
        <time>2021-12-18T14:30:14Z</time>
      </trkpt>
      <trkpt lat="49.17394" lon="6.83039">
        <ele>218.4</ele>
        <time>2021-12-18T14:30:21Z</time>
      </trkpt>
      <trkpt lat="49.17399" lon="6.83052">
        <ele>218.1</ele>
        <time>2021-12-18T14:30:29Z</time>
      </trkpt>
      <trkpt lat="49.17404" lon="6.83063">
        <ele>217.9</ele>
        <time>2021-12-18T14:30:39Z</time>
      </trkpt>
      <trkpt lat="49.17408" lon="6.83076">
        <ele>217.8</ele>
        <time>2021-12-18T14:30:48Z</time>
      </trkpt>
      <trkpt lat="49.17412" lon="6.83089">
        <ele>217.6</ele>
        <time>2021-12-18T14:30:58Z</time>
      </trkpt>
      <trkpt lat="49.17417" lon="6.83101">
        <ele>217.3</ele>
        <time>2021-12-18T14:31:08Z</time>
      </trkpt>
      <trkpt lat="49.17418" lon="6.83101">
        <ele>217.2</ele>
        <time>2021-12-18T14:31:11Z</time>
      </trkpt>
      <trkpt lat="49.17416" lon="6.83101">
        <ele>217.2</ele>
        <time>2021-12-18T14:31:13Z</time>
      </trkpt>
      <trkpt lat="49.17414" lon="6.83102">
        <ele>217.1</ele>
        <time>2021-12-18T14:31:18Z</time>
      </trkpt>
      <trkpt lat="49.17415" lon="6.83102">
        <ele>217.1</ele>
        <time>2021-12-18T14:31:20Z</time>
      </trkpt>
      <trkpt lat="49.17415" lon="6.83102">
        <ele>217.1</ele>
        <time>2021-12-18T14:31:21Z</time>
      </trkpt>
      <trkpt lat="49.17415" lon="6.83103">
        <ele>217.1</ele>
        <time>2021-12-18T14:31:23Z</time>
      </trkpt>
      <trkpt lat="49.17415" lon="6.83103">
        <ele>217.1</ele>
        <time>2021-12-18T14:31:26Z</time>
      </trkpt>
      <trkpt lat="49.17416" lon="6.83103">
        <ele>217</ele>
        <time>2021-12-18T14:31:32Z</time>
      </trkpt>
      <trkpt lat="49.17418" lon="6.83103">
        <ele>217</ele>
        <time>2021-12-18T14:31:39Z</time>
      </trkpt>
      <trkpt lat="49.17419" lon="6.83103">
        <ele>217</ele>
        <time>2021-12-18T14:31:43Z</time>
      </trkpt>
      <trkpt lat="49.17419" lon="6.83103">
        <ele>217</ele>
        <time>2021-12-18T14:31:44Z</time>
      </trkpt>
      <trkpt lat="49.17418" lon="6.83103">
        <ele>216.9</ele>
        <time>2021-12-18T14:31:46Z</time>
      </trkpt>
      <trkpt lat="49.17423" lon="6.83114">
        <ele>216.6</ele>
        <time>2021-12-18T14:31:57Z</time>
      </trkpt>
      <trkpt lat="49.17427" lon="6.83128">
        <ele>216.2</ele>
        <time>2021-12-18T14:32:07Z</time>
      </trkpt>
      <trkpt lat="49.17432" lon="6.83142">
        <ele>215.9</ele>
        <time>2021-12-18T14:32:14Z</time>
      </trkpt>
      <trkpt lat="49.17436" lon="6.83155">
        <ele>215.5</ele>
        <time>2021-12-18T14:32:20Z</time>
      </trkpt>
      <trkpt lat="49.17441" lon="6.83167">
        <ele>215.2</ele>
        <time>2021-12-18T14:32:28Z</time>
      </trkpt>
      <trkpt lat="49.17444" lon="6.8318">
        <ele>214.9</ele>
        <time>2021-12-18T14:32:36Z</time>
      </trkpt>
      <trkpt lat="49.17448" lon="6.83194">
        <ele>214.7</ele>
        <time>2021-12-18T14:32:45Z</time>
      </trkpt>
      <trkpt lat="49.17453" lon="6.83207">
        <ele>214.5</ele>
        <time>2021-12-18T14:32:53Z</time>
      </trkpt>
      <trkpt lat="49.17457" lon="6.83221">
        <ele>214.3</ele>
        <time>2021-12-18T14:33:01Z</time>
      </trkpt>
      <trkpt lat="49.1746" lon="6.83235">
        <ele>214.2</ele>
        <time>2021-12-18T14:33:10Z</time>
      </trkpt>
      <trkpt lat="49.17464" lon="6.83248">
        <ele>214.2</ele>
        <time>2021-12-18T14:33:18Z</time>
      </trkpt>
      <trkpt lat="49.17468" lon="6.83261">
        <ele>214.2</ele>
        <time>2021-12-18T14:33:26Z</time>
      </trkpt>
      <trkpt lat="49.17469" lon="6.83275">
        <ele>214.2</ele>
        <time>2021-12-18T14:33:33Z</time>
      </trkpt>
      <trkpt lat="49.17474" lon="6.83288">
        <ele>214.2</ele>
        <time>2021-12-18T14:33:42Z</time>
      </trkpt>
      <trkpt lat="49.17477" lon="6.83301">
        <ele>214.1</ele>
        <time>2021-12-18T14:33:51Z</time>
      </trkpt>
      <trkpt lat="49.17481" lon="6.83316">
        <ele>213.8</ele>
        <time>2021-12-18T14:34:02Z</time>
      </trkpt>
      <trkpt lat="49.17476" lon="6.83329">
        <ele>212.9</ele>
        <time>2021-12-18T14:34:09Z</time>
      </trkpt>
      <trkpt lat="49.1747" lon="6.83342">
        <ele>212.2</ele>
        <time>2021-12-18T14:34:18Z</time>
      </trkpt>
      <trkpt lat="49.17461" lon="6.83348">
        <ele>211.7</ele>
        <time>2021-12-18T14:34:27Z</time>
      </trkpt>
      <trkpt lat="49.17459" lon="6.83362">
        <ele>211.6</ele>
        <time>2021-12-18T14:34:33Z</time>
      </trkpt>
      <trkpt lat="49.17458" lon="6.83378">
        <ele>211.4</ele>
        <time>2021-12-18T14:34:41Z</time>
      </trkpt>
      <trkpt lat="49.17456" lon="6.83391">
        <ele>211.3</ele>
        <time>2021-12-18T14:34:48Z</time>
      </trkpt>
      <trkpt lat="49.17453" lon="6.83405">
        <ele>211.2</ele>
        <time>2021-12-18T14:34:55Z</time>
      </trkpt>
      <trkpt lat="49.17452" lon="6.83419">
        <ele>211.1</ele>
        <time>2021-12-18T14:35:02Z</time>
      </trkpt>
      <trkpt lat="49.17451" lon="6.83435">
        <ele>211.1</ele>
        <time>2021-12-18T14:35:09Z</time>
      </trkpt>
      <trkpt lat="49.17449" lon="6.8345">
        <ele>211.1</ele>
        <time>2021-12-18T14:35:17Z</time>
      </trkpt>
      <trkpt lat="49.17445" lon="6.83463">
        <ele>211.2</ele>
        <time>2021-12-18T14:35:23Z</time>
      </trkpt>
      <trkpt lat="49.17443" lon="6.83477">
        <ele>211.5</ele>
        <time>2021-12-18T14:35:32Z</time>
      </trkpt>
      <trkpt lat="49.17442" lon="6.83493">
        <ele>211.8</ele>
        <time>2021-12-18T14:35:40Z</time>
      </trkpt>
      <trkpt lat="49.17447" lon="6.83505">
        <ele>212.2</ele>
        <time>2021-12-18T14:35:47Z</time>
      </trkpt>
      <trkpt lat="49.17457" lon="6.83505">
        <ele>212.5</ele>
        <time>2021-12-18T14:35:55Z</time>
      </trkpt>
      <trkpt lat="49.17448" lon="6.83498">
        <ele>212.3</ele>
        <time>2021-12-18T14:36:10Z</time>
      </trkpt>
      <trkpt lat="49.17439" lon="6.83496">
        <ele>212.1</ele>
        <time>2021-12-18T14:36:17Z</time>
      </trkpt>
      <trkpt lat="49.17429" lon="6.83502">
        <ele>212</ele>
        <time>2021-12-18T14:36:25Z</time>
      </trkpt>
      <trkpt lat="49.1742" lon="6.83499">
        <ele>212</ele>
        <time>2021-12-18T14:36:31Z</time>
      </trkpt>
      <trkpt lat="49.1741" lon="6.83503">
        <ele>212</ele>
        <time>2021-12-18T14:36:38Z</time>
      </trkpt>
      <trkpt lat="49.17401" lon="6.83506">
        <ele>212</ele>
        <time>2021-12-18T14:36:45Z</time>
      </trkpt>
      <trkpt lat="49.17391" lon="6.83505">
        <ele>212.1</ele>
        <time>2021-12-18T14:36:53Z</time>
      </trkpt>
      <trkpt lat="49.17382" lon="6.83498">
        <ele>212.2</ele>
        <time>2021-12-18T14:37:01Z</time>
      </trkpt>
      <trkpt lat="49.17374" lon="6.8349">
        <ele>212.3</ele>
        <time>2021-12-18T14:37:08Z</time>
      </trkpt>
      <trkpt lat="49.17366" lon="6.83485">
        <ele>212.4</ele>
        <time>2021-12-18T14:37:15Z</time>
      </trkpt>
      <trkpt lat="49.17358" lon="6.83476">
        <ele>212.5</ele>
        <time>2021-12-18T14:37:21Z</time>
      </trkpt>
      <trkpt lat="49.17349" lon="6.83473">
        <ele>212.7</ele>
        <time>2021-12-18T14:37:27Z</time>
      </trkpt>
      <trkpt lat="49.17341" lon="6.83467">
        <ele>212.8</ele>
        <time>2021-12-18T14:37:35Z</time>
      </trkpt>
      <trkpt lat="49.17332" lon="6.83461">
        <ele>212.9</ele>
        <time>2021-12-18T14:37:43Z</time>
      </trkpt>
      <trkpt lat="49.17325" lon="6.8345">
        <ele>213</ele>
        <time>2021-12-18T14:37:51Z</time>
      </trkpt>
      <trkpt lat="49.17316" lon="6.83442">
        <ele>213.2</ele>
        <time>2021-12-18T14:37:59Z</time>
      </trkpt>
      <trkpt lat="49.17308" lon="6.83433">
        <ele>213.4</ele>
        <time>2021-12-18T14:38:06Z</time>
      </trkpt>
      <trkpt lat="49.17299" lon="6.83427">
        <ele>213.5</ele>
        <time>2021-12-18T14:38:13Z</time>
      </trkpt>
      <trkpt lat="49.1729" lon="6.83422">
        <ele>213.7</ele>
        <time>2021-12-18T14:38:22Z</time>
      </trkpt>
      <trkpt lat="49.17282" lon="6.83417">
        <ele>213.9</ele>
        <time>2021-12-18T14:38:30Z</time>
      </trkpt>
      <trkpt lat="49.17273" lon="6.8341">
        <ele>214.1</ele>
        <time>2021-12-18T14:38:37Z</time>
      </trkpt>
      <trkpt lat="49.17264" lon="6.83404">
        <ele>214.3</ele>
        <time>2021-12-18T14:38:45Z</time>
      </trkpt>
      <trkpt lat="49.17255" lon="6.83397">
        <ele>214.6</ele>
        <time>2021-12-18T14:38:52Z</time>
      </trkpt>
      <trkpt lat="49.17247" lon="6.83391">
        <ele>214.8</ele>
        <time>2021-12-18T14:38:58Z</time>
      </trkpt>
      <trkpt lat="49.17239" lon="6.83384">
        <ele>215</ele>
        <time>2021-12-18T14:39:06Z</time>
      </trkpt>
      <trkpt lat="49.17239" lon="6.83391">
        <ele>214.9</ele>
        <time>2021-12-18T14:39:26Z</time>
      </trkpt>
      <trkpt lat="49.17238" lon="6.83391">
        <ele>214.9</ele>
        <time>2021-12-18T14:39:27Z</time>
      </trkpt>
      <trkpt lat="49.17238" lon="6.83391">
        <ele>214.9</ele>
        <time>2021-12-18T14:39:28Z</time>
      </trkpt>
      <trkpt lat="49.17239" lon="6.83392">
        <ele>214.9</ele>
        <time>2021-12-18T14:39:33Z</time>
      </trkpt>
      <trkpt lat="49.17247" lon="6.83399">
        <ele>214.7</ele>
        <time>2021-12-18T14:39:41Z</time>
      </trkpt>
      <trkpt lat="49.17252" lon="6.83413">
        <ele>215.5</ele>
        <time>2021-12-18T14:39:54Z</time>
      </trkpt>
      <trkpt lat="49.17244" lon="6.83422">
        <ele>216.8</ele>
        <time>2021-12-18T14:40:05Z</time>
      </trkpt>
      <trkpt lat="49.17236" lon="6.83432">
        <ele>218</ele>
        <time>2021-12-18T14:40:19Z</time>
      </trkpt>
      <trkpt lat="49.1723" lon="6.83443">
        <ele>219</ele>
        <time>2021-12-18T14:40:28Z</time>
      </trkpt>
      <trkpt lat="49.17223" lon="6.83453">
        <ele>220</ele>
        <time>2021-12-18T14:40:38Z</time>
      </trkpt>
      <trkpt lat="49.17215" lon="6.83462">
        <ele>220.6</ele>
        <time>2021-12-18T14:40:48Z</time>
      </trkpt>
      <trkpt lat="49.17208" lon="6.83469">
        <ele>221.1</ele>
        <time>2021-12-18T14:41:00Z</time>
      </trkpt>
      <trkpt lat="49.17201" lon="6.83479">
        <ele>221.6</ele>
        <time>2021-12-18T14:41:08Z</time>
      </trkpt>
      <trkpt lat="49.17196" lon="6.83493">
        <ele>222.2</ele>
        <time>2021-12-18T14:41:19Z</time>
      </trkpt>
      <trkpt lat="49.17191" lon="6.83506">
        <ele>222.8</ele>
        <time>2021-12-18T14:41:29Z</time>
      </trkpt>
      <trkpt lat="49.17187" lon="6.83519">
        <ele>223.3</ele>
        <time>2021-12-18T14:41:37Z</time>
      </trkpt>
      <trkpt lat="49.17179" lon="6.83527">
        <ele>224.2</ele>
        <time>2021-12-18T14:41:48Z</time>
      </trkpt>
      <trkpt lat="49.17173" lon="6.8354">
        <ele>225.2</ele>
        <time>2021-12-18T14:41:57Z</time>
      </trkpt>
      <trkpt lat="49.17164" lon="6.8354">
        <ele>226.5</ele>
        <time>2021-12-18T14:42:06Z</time>
      </trkpt>
      <trkpt lat="49.17155" lon="6.83542">
        <ele>227.9</ele>
        <time>2021-12-18T14:42:13Z</time>
      </trkpt>
      <trkpt lat="49.17148" lon="6.83549">
        <ele>229.5</ele>
        <time>2021-12-18T14:42:23Z</time>
      </trkpt>
      <trkpt lat="49.1714" lon="6.83556">
        <ele>231.3</ele>
        <time>2021-12-18T14:42:36Z</time>
      </trkpt>
      <trkpt lat="49.17136" lon="6.8356">
        <ele>232.3</ele>
        <time>2021-12-18T14:42:43Z</time>
      </trkpt>
      <trkpt lat="49.17135" lon="6.83561">
        <ele>232.5</ele>
        <time>2021-12-18T14:42:44Z</time>
      </trkpt>
      <trkpt lat="49.17129" lon="6.83569">
        <ele>234.4</ele>
        <time>2021-12-18T14:42:57Z</time>
      </trkpt>
      <trkpt lat="49.17128" lon="6.83569">
        <ele>234.6</ele>
        <time>2021-12-18T14:42:58Z</time>
      </trkpt>
      <trkpt lat="49.17119" lon="6.83569">
        <ele>236.7</ele>
        <time>2021-12-18T14:43:05Z</time>
      </trkpt>
      <trkpt lat="49.17115" lon="6.83582">
        <ele>238.9</ele>
        <time>2021-12-18T14:43:17Z</time>
      </trkpt>
      <trkpt lat="49.17109" lon="6.83591">
        <ele>240.8</ele>
        <time>2021-12-18T14:43:32Z</time>
      </trkpt>
      <trkpt lat="49.17099" lon="6.83597">
        <ele>242.7</ele>
        <time>2021-12-18T14:43:45Z</time>
      </trkpt>
      <trkpt lat="49.1709" lon="6.83598">
        <ele>243.9</ele>
        <time>2021-12-18T14:44:00Z</time>
      </trkpt>
      <trkpt lat="49.17082" lon="6.83591">
        <ele>244.6</ele>
        <time>2021-12-18T14:44:10Z</time>
      </trkpt>
      <trkpt lat="49.17072" lon="6.83594">
        <ele>244.8</ele>
        <time>2021-12-18T14:44:18Z</time>
      </trkpt>
      <trkpt lat="49.17063" lon="6.83596">
        <ele>244.7</ele>
        <time>2021-12-18T14:44:24Z</time>
      </trkpt>
      <trkpt lat="49.17053" lon="6.83596">
        <ele>244.6</ele>
        <time>2021-12-18T14:44:36Z</time>
      </trkpt>
      <trkpt lat="49.17044" lon="6.83598">
        <ele>244.3</ele>
        <time>2021-12-18T14:44:46Z</time>
      </trkpt>
      <trkpt lat="49.17035" lon="6.83604">
        <ele>243.8</ele>
        <time>2021-12-18T14:44:54Z</time>
      </trkpt>
      <trkpt lat="49.17026" lon="6.83607">
        <ele>243.1</ele>
        <time>2021-12-18T14:45:01Z</time>
      </trkpt>
      <trkpt lat="49.17017" lon="6.8361">
        <ele>242.2</ele>
        <time>2021-12-18T14:45:10Z</time>
      </trkpt>
      <trkpt lat="49.17011" lon="6.83621">
        <ele>241.3</ele>
        <time>2021-12-18T14:45:21Z</time>
      </trkpt>
      <trkpt lat="49.17013" lon="6.83635">
        <ele>241.6</ele>
        <time>2021-12-18T14:45:30Z</time>
      </trkpt>
      <trkpt lat="49.17017" lon="6.83648">
        <ele>242</ele>
        <time>2021-12-18T14:45:39Z</time>
      </trkpt>
      <trkpt lat="49.17022" lon="6.8366">
        <ele>242.3</ele>
        <time>2021-12-18T14:45:47Z</time>
      </trkpt>
      <trkpt lat="49.17025" lon="6.83673">
        <ele>242.6</ele>
        <time>2021-12-18T14:45:56Z</time>
      </trkpt>
      <trkpt lat="49.1703" lon="6.83687">
        <ele>242.9</ele>
        <time>2021-12-18T14:46:05Z</time>
      </trkpt>
      <trkpt lat="49.17035" lon="6.83699">
        <ele>243.3</ele>
        <time>2021-12-18T14:46:14Z</time>
      </trkpt>
      <trkpt lat="49.17041" lon="6.83712">
        <ele>243.7</ele>
        <time>2021-12-18T14:46:23Z</time>
      </trkpt>
      <trkpt lat="49.17042" lon="6.83726">
        <ele>243.9</ele>
        <time>2021-12-18T14:46:32Z</time>
      </trkpt>
      <trkpt lat="49.17046" lon="6.83738">
        <ele>244.1</ele>
        <time>2021-12-18T14:46:40Z</time>
      </trkpt>
      <trkpt lat="49.17053" lon="6.83748">
        <ele>244.5</ele>
        <time>2021-12-18T14:46:49Z</time>
      </trkpt>
      <trkpt lat="49.17058" lon="6.83761">
        <ele>244.9</ele>
        <time>2021-12-18T14:46:58Z</time>
      </trkpt>
      <trkpt lat="49.17061" lon="6.83776">
        <ele>245.3</ele>
        <time>2021-12-18T14:47:06Z</time>
      </trkpt>
      <trkpt lat="49.17066" lon="6.83789">
        <ele>245.7</ele>
        <time>2021-12-18T14:47:14Z</time>
      </trkpt>
      <trkpt lat="49.1707" lon="6.83802">
        <ele>245.9</ele>
        <time>2021-12-18T14:47:22Z</time>
      </trkpt>
      <trkpt lat="49.17075" lon="6.83815">
        <ele>246.2</ele>
        <time>2021-12-18T14:47:30Z</time>
      </trkpt>
      <trkpt lat="49.17079" lon="6.83828">
        <ele>246.5</ele>
        <time>2021-12-18T14:47:37Z</time>
      </trkpt>
      <trkpt lat="49.17085" lon="6.8384">
        <ele>246.8</ele>
        <time>2021-12-18T14:47:45Z</time>
      </trkpt>
      <trkpt lat="49.1709" lon="6.83853">
        <ele>247</ele>
        <time>2021-12-18T14:47:54Z</time>
      </trkpt>
      <trkpt lat="49.17096" lon="6.83859">
        <ele>247.1</ele>
        <time>2021-12-18T14:48:08Z</time>
      </trkpt>
      <trkpt lat="49.17097" lon="6.83858">
        <ele>247.1</ele>
        <time>2021-12-18T14:48:09Z</time>
      </trkpt>
      <trkpt lat="49.17097" lon="6.83859">
        <ele>247.2</ele>
        <time>2021-12-18T14:48:10Z</time>
      </trkpt>
      <trkpt lat="49.17096" lon="6.83859">
        <ele>247.2</ele>
        <time>2021-12-18T14:48:11Z</time>
      </trkpt>
      <trkpt lat="49.17106" lon="6.83857">
        <ele>246.9</ele>
        <time>2021-12-18T14:48:22Z</time>
      </trkpt>
      <trkpt lat="49.17116" lon="6.83858">
        <ele>246.6</ele>
        <time>2021-12-18T14:48:29Z</time>
      </trkpt>
      <trkpt lat="49.17125" lon="6.83862">
        <ele>246.3</ele>
        <time>2021-12-18T14:48:41Z</time>
      </trkpt>
      <trkpt lat="49.17129" lon="6.83864">
        <ele>246.3</ele>
        <time>2021-12-18T14:48:54Z</time>
      </trkpt>
      <trkpt lat="49.17128" lon="6.83865">
        <ele>246.3</ele>
        <time>2021-12-18T14:48:58Z</time>
      </trkpt>
      <trkpt lat="49.17128" lon="6.83865">
        <ele>246.3</ele>
        <time>2021-12-18T14:49:00Z</time>
      </trkpt>
      <trkpt lat="49.17128" lon="6.83865">
        <ele>246.3</ele>
        <time>2021-12-18T14:49:04Z</time>
      </trkpt>
      <trkpt lat="49.17128" lon="6.83865">
        <ele>246.3</ele>
        <time>2021-12-18T14:49:05Z</time>
      </trkpt>
      <trkpt lat="49.17128" lon="6.83865">
        <ele>246.3</ele>
        <time>2021-12-18T14:49:07Z</time>
      </trkpt>
      <trkpt lat="49.17128" lon="6.83865">
        <ele>246.3</ele>
        <time>2021-12-18T14:49:08Z</time>
      </trkpt>
      <trkpt lat="49.17128" lon="6.83865">
        <ele>246.3</ele>
        <time>2021-12-18T14:49:20Z</time>
      </trkpt>
      <trkpt lat="49.17128" lon="6.83865">
        <ele>246.3</ele>
        <time>2021-12-18T14:49:22Z</time>
      </trkpt>
      <trkpt lat="49.17128" lon="6.83865">
        <ele>246.3</ele>
        <time>2021-12-18T14:49:24Z</time>
      </trkpt>
      <trkpt lat="49.17128" lon="6.83865">
        <ele>246.2</ele>
        <time>2021-12-18T14:49:27Z</time>
      </trkpt>
      <trkpt lat="49.17129" lon="6.83864">
        <ele>246.2</ele>
        <time>2021-12-18T14:49:39Z</time>
      </trkpt>
      <trkpt lat="49.17129" lon="6.83864">
        <ele>246.2</ele>
        <time>2021-12-18T14:49:41Z</time>
      </trkpt>
      <trkpt lat="49.17129" lon="6.83864">
        <ele>246.2</ele>
        <time>2021-12-18T14:49:52Z</time>
      </trkpt>
      <trkpt lat="49.17129" lon="6.83864">
        <ele>246.2</ele>
        <time>2021-12-18T14:49:53Z</time>
      </trkpt>
      <trkpt lat="49.17129" lon="6.83864">
        <ele>246.2</ele>
        <time>2021-12-18T14:50:01Z</time>
      </trkpt>
      <trkpt lat="49.17129" lon="6.83864">
        <ele>246.2</ele>
        <time>2021-12-18T14:50:02Z</time>
      </trkpt>
      <trkpt lat="49.17128" lon="6.83864">
        <ele>246.2</ele>
        <time>2021-12-18T14:50:07Z</time>
      </trkpt>
      <trkpt lat="49.17128" lon="6.83864">
        <ele>246.2</ele>
        <time>2021-12-18T14:50:08Z</time>
      </trkpt>
      <trkpt lat="49.17129" lon="6.83864">
        <ele>246.2</ele>
        <time>2021-12-18T14:50:19Z</time>
      </trkpt>
      <trkpt lat="49.17136" lon="6.83857">
        <ele>246.3</ele>
        <time>2021-12-18T14:50:31Z</time>
      </trkpt>
      <trkpt lat="49.17145" lon="6.83849">
        <ele>246.5</ele>
        <time>2021-12-18T14:50:37Z</time>
      </trkpt>
      <trkpt lat="49.17154" lon="6.83845">
        <ele>246.9</ele>
        <time>2021-12-18T14:50:46Z</time>
      </trkpt>
      <trkpt lat="49.17161" lon="6.83833">
        <ele>247.2</ele>
        <time>2021-12-18T14:50:56Z</time>
      </trkpt>
      <trkpt lat="49.17171" lon="6.8383">
        <ele>247.3</ele>
        <time>2021-12-18T14:51:05Z</time>
      </trkpt>
      <trkpt lat="49.17181" lon="6.83829">
        <ele>246.8</ele>
        <time>2021-12-18T14:51:20Z</time>
      </trkpt>
      <trkpt lat="49.17183" lon="6.83829">
        <ele>246.6</ele>
        <time>2021-12-18T14:51:24Z</time>
      </trkpt>
      <trkpt lat="49.17183" lon="6.83829">
        <ele>246.6</ele>
        <time>2021-12-18T14:51:25Z</time>
      </trkpt>
      <trkpt lat="49.17183" lon="6.83829">
        <ele>246.6</ele>
        <time>2021-12-18T14:51:26Z</time>
      </trkpt>
      <trkpt lat="49.17183" lon="6.83829">
        <ele>246.6</ele>
        <time>2021-12-18T14:51:34Z</time>
      </trkpt>
      <trkpt lat="49.17183" lon="6.83827">
        <ele>246.5</ele>
        <time>2021-12-18T14:51:36Z</time>
      </trkpt>
      <trkpt lat="49.17183" lon="6.83826">
        <ele>246.4</ele>
        <time>2021-12-18T14:51:41Z</time>
      </trkpt>
      <trkpt lat="49.17183" lon="6.83826">
        <ele>246.4</ele>
        <time>2021-12-18T14:51:42Z</time>
      </trkpt>
      <trkpt lat="49.17184" lon="6.83826">
        <ele>246.4</ele>
        <time>2021-12-18T14:51:46Z</time>
      </trkpt>
      <trkpt lat="49.17184" lon="6.83826">
        <ele>246.4</ele>
        <time>2021-12-18T14:51:47Z</time>
      </trkpt>
      <trkpt lat="49.17184" lon="6.83826">
        <ele>246.4</ele>
        <time>2021-12-18T14:51:57Z</time>
      </trkpt>
      <trkpt lat="49.17184" lon="6.83826">
        <ele>246.4</ele>
        <time>2021-12-18T14:51:58Z</time>
      </trkpt>
      <trkpt lat="49.17184" lon="6.83826">
        <ele>246.3</ele>
        <time>2021-12-18T14:52:02Z</time>
      </trkpt>
      <trkpt lat="49.17194" lon="6.8382">
        <ele>245.2</ele>
        <time>2021-12-18T14:52:13Z</time>
      </trkpt>
      <trkpt lat="49.17203" lon="6.83813">
        <ele>244.1</ele>
        <time>2021-12-18T14:52:19Z</time>
      </trkpt>
      <trkpt lat="49.17211" lon="6.83806">
        <ele>242.9</ele>
        <time>2021-12-18T14:52:27Z</time>
      </trkpt>
      <trkpt lat="49.1722" lon="6.83798">
        <ele>241.7</ele>
        <time>2021-12-18T14:52:36Z</time>
      </trkpt>
      <trkpt lat="49.17229" lon="6.83793">
        <ele>240.5</ele>
        <time>2021-12-18T14:52:43Z</time>
      </trkpt>
      <trkpt lat="49.17239" lon="6.8379">
        <ele>239.2</ele>
        <time>2021-12-18T14:52:51Z</time>
      </trkpt>
      <trkpt lat="49.17247" lon="6.83793">
        <ele>237.9</ele>
        <time>2021-12-18T14:53:00Z</time>
      </trkpt>
      <trkpt lat="49.17257" lon="6.83792">
        <ele>236.3</ele>
        <time>2021-12-18T14:53:12Z</time>
      </trkpt>
      <trkpt lat="49.17267" lon="6.83791">
        <ele>234.7</ele>
        <time>2021-12-18T14:53:20Z</time>
      </trkpt>
      <trkpt lat="49.17277" lon="6.83788">
        <ele>233.2</ele>
        <time>2021-12-18T14:53:29Z</time>
      </trkpt>
      <trkpt lat="49.17287" lon="6.83785">
        <ele>231.6</ele>
        <time>2021-12-18T14:53:36Z</time>
      </trkpt>
      <trkpt lat="49.17296" lon="6.83781">
        <ele>230.4</ele>
        <time>2021-12-18T14:53:49Z</time>
      </trkpt>
      <trkpt lat="49.17306" lon="6.83777">
        <ele>229</ele>
        <time>2021-12-18T14:53:56Z</time>
      </trkpt>
      <trkpt lat="49.17316" lon="6.83776">
        <ele>227.7</ele>
        <time>2021-12-18T14:54:01Z</time>
      </trkpt>
      <trkpt lat="49.17329" lon="6.8378">
        <ele>225.6</ele>
        <time>2021-12-18T14:54:07Z</time>
      </trkpt>
      <trkpt lat="49.17332" lon="6.83785">
        <ele>224.6</ele>
        <time>2021-12-18T14:54:15Z</time>
      </trkpt>
      <trkpt lat="49.17336" lon="6.83791">
        <ele>223.6</ele>
        <time>2021-12-18T14:54:16Z</time>
      </trkpt>
      <trkpt lat="49.1734" lon="6.83796">
        <ele>222.6</ele>
        <time>2021-12-18T14:54:27Z</time>
      </trkpt>
      <trkpt lat="49.17343" lon="6.83802">
        <ele>221.6</ele>
        <time>2021-12-18T14:54:33Z</time>
      </trkpt>
      <trkpt lat="49.17347" lon="6.83807">
        <ele>220.7</ele>
        <time>2021-12-18T14:54:39Z</time>
      </trkpt>
      <trkpt lat="49.1735" lon="6.83813">
        <ele>219.7</ele>
        <time>2021-12-18T14:54:49Z</time>
      </trkpt>
      <trkpt lat="49.17354" lon="6.83818">
        <ele>218.8</ele>
        <time>2021-12-18T14:54:59Z</time>
      </trkpt>
      <trkpt lat="49.17357" lon="6.83824">
        <ele>217.9</ele>
        <time>2021-12-18T14:54:59Z</time>
      </trkpt>
      <trkpt lat="49.17357" lon="6.83824">
        <ele>219</ele>
        <time>2021-12-18T14:54:59Z</time>
      </trkpt>
      <trkpt lat="49.17353" lon="6.83828">
        <ele>219.5</ele>
        <time>2021-12-18T14:55:05Z</time>
      </trkpt>
      <trkpt lat="49.1735" lon="6.83831">
        <ele>219.9</ele>
        <time>2021-12-18T14:55:10Z</time>
      </trkpt>
      <trkpt lat="49.17344" lon="6.83831">
        <ele>220.5</ele>
        <time>2021-12-18T14:55:16Z</time>
      </trkpt>
      <trkpt lat="49.17335" lon="6.83835">
        <ele>221.7</ele>
        <time>2021-12-18T14:55:26Z</time>
      </trkpt>
      <trkpt lat="49.17325" lon="6.83836">
        <ele>223.2</ele>
        <time>2021-12-18T14:55:36Z</time>
      </trkpt>
      <trkpt lat="49.17318" lon="6.83846">
        <ele>224.6</ele>
        <time>2021-12-18T14:55:45Z</time>
      </trkpt>
      <trkpt lat="49.17311" lon="6.83856">
        <ele>226.1</ele>
        <time>2021-12-18T14:55:54Z</time>
      </trkpt>
      <trkpt lat="49.17311" lon="6.83872">
        <ele>227.6</ele>
        <time>2021-12-18T14:56:00Z</time>
      </trkpt>
      <trkpt lat="49.17316" lon="6.83885">
        <ele>229</ele>
        <time>2021-12-18T14:56:06Z</time>
      </trkpt>
      <trkpt lat="49.17316" lon="6.83899">
        <ele>230.4</ele>
        <time>2021-12-18T14:56:12Z</time>
      </trkpt>
      <trkpt lat="49.17319" lon="6.83914">
        <ele>232.2</ele>
        <time>2021-12-18T14:56:19Z</time>
      </trkpt>
      <trkpt lat="49.17324" lon="6.83927">
        <ele>233.8</ele>
        <time>2021-12-18T14:56:29Z</time>
      </trkpt>
      <trkpt lat="49.17328" lon="6.8394">
        <ele>235.3</ele>
        <time>2021-12-18T14:56:38Z</time>
      </trkpt>
      <trkpt lat="49.17333" lon="6.83953">
        <ele>236.7</ele>
        <time>2021-12-18T14:56:48Z</time>
      </trkpt>
      <trkpt lat="49.1734" lon="6.83964">
        <ele>237.8</ele>
        <time>2021-12-18T14:56:55Z</time>
      </trkpt>
      <trkpt lat="49.17343" lon="6.83977">
        <ele>238.7</ele>
        <time>2021-12-18T14:57:03Z</time>
      </trkpt>
      <trkpt lat="49.17348" lon="6.8399">
        <ele>239.6</ele>
        <time>2021-12-18T14:57:17Z</time>
      </trkpt>
      <trkpt lat="49.1735" lon="6.84005">
        <ele>240.5</ele>
        <time>2021-12-18T14:57:27Z</time>
      </trkpt>
      <trkpt lat="49.17356" lon="6.84017">
        <ele>241.3</ele>
        <time>2021-12-18T14:57:37Z</time>
      </trkpt>
      <trkpt lat="49.17364" lon="6.84025">
        <ele>242.1</ele>
        <time>2021-12-18T14:57:45Z</time>
      </trkpt>
      <trkpt lat="49.17369" lon="6.84038">
        <ele>242.7</ele>
        <time>2021-12-18T14:57:59Z</time>
      </trkpt>
      <trkpt lat="49.17375" lon="6.84049">
        <ele>243</ele>
        <time>2021-12-18T14:58:07Z</time>
      </trkpt>
      <trkpt lat="49.1738" lon="6.84061">
        <ele>243.2</ele>
        <time>2021-12-18T14:58:28Z</time>
      </trkpt>
      <trkpt lat="49.17386" lon="6.84072">
        <ele>243.2</ele>
        <time>2021-12-18T14:58:37Z</time>
      </trkpt>
      <trkpt lat="49.17391" lon="6.84085">
        <ele>243.2</ele>
        <time>2021-12-18T14:58:46Z</time>
      </trkpt>
      <trkpt lat="49.17394" lon="6.841">
        <ele>243.2</ele>
        <time>2021-12-18T14:58:55Z</time>
      </trkpt>
      <trkpt lat="49.17398" lon="6.84112">
        <ele>243.2</ele>
        <time>2021-12-18T14:59:04Z</time>
      </trkpt>
      <trkpt lat="49.17403" lon="6.84124">
        <ele>243.3</ele>
        <time>2021-12-18T14:59:12Z</time>
      </trkpt>
      <trkpt lat="49.17408" lon="6.84136">
        <ele>243.3</ele>
        <time>2021-12-18T14:59:19Z</time>
      </trkpt>
      <trkpt lat="49.17411" lon="6.8415">
        <ele>243.5</ele>
        <time>2021-12-18T14:59:27Z</time>
      </trkpt>
      <trkpt lat="49.17416" lon="6.84164">
        <ele>243.8</ele>
        <time>2021-12-18T14:59:36Z</time>
      </trkpt>
      <trkpt lat="49.17417" lon="6.84179">
        <ele>243.9</ele>
        <time>2021-12-18T14:59:43Z</time>
      </trkpt>
      <trkpt lat="49.17419" lon="6.84194">
        <ele>244</ele>
        <time>2021-12-18T14:59:51Z</time>
      </trkpt>
      <trkpt lat="49.17425" lon="6.84207">
        <ele>244.1</ele>
        <time>2021-12-18T14:59:57Z</time>
      </trkpt>
      <trkpt lat="49.17427" lon="6.84221">
        <ele>244.1</ele>
        <time>2021-12-18T15:00:05Z</time>
      </trkpt>
      <trkpt lat="49.17426" lon="6.84235">
        <ele>244.1</ele>
        <time>2021-12-18T15:00:13Z</time>
      </trkpt>
      <trkpt lat="49.17429" lon="6.84248">
        <ele>244.2</ele>
        <time>2021-12-18T15:00:20Z</time>
      </trkpt>
      <trkpt lat="49.1743" lon="6.84263">
        <ele>244.3</ele>
        <time>2021-12-18T15:00:28Z</time>
      </trkpt>
      <trkpt lat="49.17433" lon="6.84277">
        <ele>244.4</ele>
        <time>2021-12-18T15:00:36Z</time>
      </trkpt>
      <trkpt lat="49.17433" lon="6.84291">
        <ele>244.5</ele>
        <time>2021-12-18T15:00:43Z</time>
      </trkpt>
      <trkpt lat="49.17435" lon="6.84306">
        <ele>244.6</ele>
        <time>2021-12-18T15:00:51Z</time>
      </trkpt>
      <trkpt lat="49.17435" lon="6.8432">
        <ele>244.6</ele>
        <time>2021-12-18T15:00:59Z</time>
      </trkpt>
      <trkpt lat="49.17432" lon="6.84326">
        <ele>244.6</ele>
        <time>2021-12-18T15:01:06Z</time>
      </trkpt>
      <trkpt lat="49.17432" lon="6.84327">
        <ele>244.6</ele>
        <time>2021-12-18T15:01:08Z</time>
      </trkpt>
      <trkpt lat="49.1743" lon="6.84327">
        <ele>244.6</ele>
        <time>2021-12-18T15:01:13Z</time>
      </trkpt>
      <trkpt lat="49.17429" lon="6.84328">
        <ele>244.6</ele>
        <time>2021-12-18T15:01:14Z</time>
      </trkpt>
      <trkpt lat="49.17428" lon="6.84329">
        <ele>245</ele>
        <time>2021-12-18T15:01:18Z</time>
      </trkpt>
      <trkpt lat="49.17427" lon="6.8433">
        <ele>245.1</ele>
        <time>2021-12-18T15:01:19Z</time>
      </trkpt>
      <trkpt lat="49.17419" lon="6.8434">
        <ele>246.7</ele>
        <time>2021-12-18T15:01:27Z</time>
      </trkpt>
      <trkpt lat="49.17411" lon="6.84348">
        <ele>248.2</ele>
        <time>2021-12-18T15:01:33Z</time>
      </trkpt>
      <trkpt lat="49.17403" lon="6.84358">
        <ele>249.8</ele>
        <time>2021-12-18T15:01:41Z</time>
      </trkpt>
      <trkpt lat="49.17397" lon="6.8437">
        <ele>249.8</ele>
        <time>2021-12-18T15:01:51Z</time>
      </trkpt>
      <trkpt lat="49.17401" lon="6.84385">
        <ele>249.6</ele>
        <time>2021-12-18T15:02:00Z</time>
      </trkpt>
      <trkpt lat="49.17404" lon="6.844">
        <ele>249.5</ele>
        <time>2021-12-18T15:02:08Z</time>
      </trkpt>
      <trkpt lat="49.1741" lon="6.84411">
        <ele>249.5</ele>
        <time>2021-12-18T15:02:14Z</time>
      </trkpt>
      <trkpt lat="49.17416" lon="6.84422">
        <ele>249.8</ele>
        <time>2021-12-18T15:02:23Z</time>
      </trkpt>
      <trkpt lat="49.17423" lon="6.84431">
        <ele>250.1</ele>
        <time>2021-12-18T15:02:32Z</time>
      </trkpt>
      <trkpt lat="49.1743" lon="6.84441">
        <ele>250.5</ele>
        <time>2021-12-18T15:02:38Z</time>
      </trkpt>
      <trkpt lat="49.17437" lon="6.84452">
        <ele>250.8</ele>
        <time>2021-12-18T15:02:47Z</time>
      </trkpt>
      <trkpt lat="49.17441" lon="6.84465">
        <ele>251.2</ele>
        <time>2021-12-18T15:02:55Z</time>
      </trkpt>
      <trkpt lat="49.17444" lon="6.84479">
        <ele>251.5</ele>
        <time>2021-12-18T15:03:04Z</time>
      </trkpt>
      <trkpt lat="49.17438" lon="6.84491">
        <ele>251.2</ele>
        <time>2021-12-18T15:03:13Z</time>
      </trkpt>
      <trkpt lat="49.17429" lon="6.84498">
        <ele>251</ele>
        <time>2021-12-18T15:03:20Z</time>
      </trkpt>
      <trkpt lat="49.1742" lon="6.84503">
        <ele>250.8</ele>
        <time>2021-12-18T15:03:29Z</time>
      </trkpt>
      <trkpt lat="49.17412" lon="6.84512">
        <ele>250.8</ele>
        <time>2021-12-18T15:03:40Z</time>
      </trkpt>
      <trkpt lat="49.17403" lon="6.84517">
        <ele>250.9</ele>
        <time>2021-12-18T15:03:50Z</time>
      </trkpt>
      <trkpt lat="49.17394" lon="6.84513">
        <ele>251.1</ele>
        <time>2021-12-18T15:03:58Z</time>
      </trkpt>
      <trkpt lat="49.17388" lon="6.84502">
        <ele>250.8</ele>
        <time>2021-12-18T15:04:07Z</time>
      </trkpt>
      <trkpt lat="49.17387" lon="6.845">
        <ele>250.8</ele>
        <time>2021-12-18T15:04:12Z</time>
      </trkpt>
      <trkpt lat="49.17387" lon="6.84499">
        <ele>250.8</ele>
        <time>2021-12-18T15:04:14Z</time>
      </trkpt>
      <trkpt lat="49.17381" lon="6.84495">
        <ele>250.7</ele>
        <time>2021-12-18T15:04:23Z</time>
      </trkpt>
      <trkpt lat="49.17382" lon="6.84495">
        <ele>250.6</ele>
        <time>2021-12-18T15:04:24Z</time>
      </trkpt>
      <trkpt lat="49.17384" lon="6.84495">
        <ele>250.6</ele>
        <time>2021-12-18T15:04:32Z</time>
      </trkpt>
      <trkpt lat="49.17384" lon="6.84495">
        <ele>250.6</ele>
        <time>2021-12-18T15:04:34Z</time>
      </trkpt>
      <trkpt lat="49.17384" lon="6.84496">
        <ele>250.6</ele>
        <time>2021-12-18T15:04:41Z</time>
      </trkpt>
      <trkpt lat="49.17384" lon="6.84496">
        <ele>250.6</ele>
        <time>2021-12-18T15:04:45Z</time>
      </trkpt>
      <trkpt lat="49.17377" lon="6.84487">
        <ele>250.4</ele>
        <time>2021-12-18T15:04:55Z</time>
      </trkpt>
      <trkpt lat="49.17372" lon="6.84474">
        <ele>250.1</ele>
        <time>2021-12-18T15:05:03Z</time>
      </trkpt>
      <trkpt lat="49.17367" lon="6.84461">
        <ele>250</ele>
        <time>2021-12-18T15:05:13Z</time>
      </trkpt>
      <trkpt lat="49.1736" lon="6.84449">
        <ele>249.8</ele>
        <time>2021-12-18T15:05:19Z</time>
      </trkpt>
      <trkpt lat="49.17358" lon="6.84435">
        <ele>249.6</ele>
        <time>2021-12-18T15:05:25Z</time>
      </trkpt>
      <trkpt lat="49.17352" lon="6.84425">
        <ele>249.6</ele>
        <time>2021-12-18T15:05:37Z</time>
      </trkpt>
      <trkpt lat="49.17342" lon="6.84421">
        <ele>249.4</ele>
        <time>2021-12-18T15:05:48Z</time>
      </trkpt>
      <trkpt lat="49.17332" lon="6.84417">
        <ele>249.1</ele>
        <time>2021-12-18T15:05:57Z</time>
      </trkpt>
      <trkpt lat="49.17324" lon="6.84424">
        <ele>248.8</ele>
        <time>2021-12-18T15:06:07Z</time>
      </trkpt>
      <trkpt lat="49.17315" lon="6.84423">
        <ele>248.6</ele>
        <time>2021-12-18T15:06:13Z</time>
      </trkpt>
      <trkpt lat="49.17306" lon="6.8442">
        <ele>248.3</ele>
        <time>2021-12-18T15:06:26Z</time>
      </trkpt>
      <trkpt lat="49.17296" lon="6.84421">
        <ele>248.1</ele>
        <time>2021-12-18T15:06:34Z</time>
      </trkpt>
      <trkpt lat="49.17287" lon="6.84423">
        <ele>247.9</ele>
        <time>2021-12-18T15:06:40Z</time>
      </trkpt>
      <trkpt lat="49.17278" lon="6.84419">
        <ele>247.8</ele>
        <time>2021-12-18T15:06:47Z</time>
      </trkpt>
      <trkpt lat="49.17268" lon="6.84418">
        <ele>247.6</ele>
        <time>2021-12-18T15:06:57Z</time>
      </trkpt>
      <trkpt lat="49.17259" lon="6.84421">
        <ele>247.5</ele>
        <time>2021-12-18T15:07:03Z</time>
      </trkpt>
      <trkpt lat="49.1725" lon="6.84423">
        <ele>247.3</ele>
        <time>2021-12-18T15:07:13Z</time>
      </trkpt>
      <trkpt lat="49.17239" lon="6.84426">
        <ele>247.1</ele>
        <time>2021-12-18T15:07:20Z</time>
      </trkpt>
      <trkpt lat="49.17229" lon="6.84426">
        <ele>247</ele>
        <time>2021-12-18T15:07:30Z</time>
      </trkpt>
      <trkpt lat="49.1722" lon="6.84426">
        <ele>246.6</ele>
        <time>2021-12-18T15:07:42Z</time>
      </trkpt>
      <trkpt lat="49.1721" lon="6.84423">
        <ele>246.3</ele>
        <time>2021-12-18T15:07:49Z</time>
      </trkpt>
      <trkpt lat="49.17201" lon="6.84425">
        <ele>246.2</ele>
        <time>2021-12-18T15:07:56Z</time>
      </trkpt>
      <trkpt lat="49.17194" lon="6.84435">
        <ele>246.1</ele>
        <time>2021-12-18T15:08:04Z</time>
      </trkpt>
      <trkpt lat="49.17185" lon="6.84432">
        <ele>246.2</ele>
        <time>2021-12-18T15:08:11Z</time>
      </trkpt>
      <trkpt lat="49.17176" lon="6.84433">
        <ele>246.4</ele>
        <time>2021-12-18T15:08:20Z</time>
      </trkpt>
      <trkpt lat="49.17167" lon="6.8444">
        <ele>246.6</ele>
        <time>2021-12-18T15:08:32Z</time>
      </trkpt>
      <trkpt lat="49.17158" lon="6.84443">
        <ele>246.8</ele>
        <time>2021-12-18T15:08:41Z</time>
      </trkpt>
      <trkpt lat="49.17147" lon="6.84443">
        <ele>247</ele>
        <time>2021-12-18T15:08:48Z</time>
      </trkpt>
      <trkpt lat="49.17137" lon="6.84446">
        <ele>247.1</ele>
        <time>2021-12-18T15:08:55Z</time>
      </trkpt>
      <trkpt lat="49.17127" lon="6.84449">
        <ele>247.1</ele>
        <time>2021-12-18T15:09:04Z</time>
      </trkpt>
      <trkpt lat="49.17118" lon="6.84452">
        <ele>247</ele>
        <time>2021-12-18T15:09:11Z</time>
      </trkpt>
      <trkpt lat="49.17109" lon="6.84457">
        <ele>246.9</ele>
        <time>2021-12-18T15:09:18Z</time>
      </trkpt>
      <trkpt lat="49.171" lon="6.8446">
        <ele>246.8</ele>
        <time>2021-12-18T15:09:26Z</time>
      </trkpt>
      <trkpt lat="49.17091" lon="6.84462">
        <ele>246.6</ele>
        <time>2021-12-18T15:09:32Z</time>
      </trkpt>
      <trkpt lat="49.17081" lon="6.84467">
        <ele>246.4</ele>
        <time>2021-12-18T15:09:40Z</time>
      </trkpt>
      <trkpt lat="49.17072" lon="6.8447">
        <ele>246.2</ele>
        <time>2021-12-18T15:09:48Z</time>
      </trkpt>
      <trkpt lat="49.17062" lon="6.84472">
        <ele>246</ele>
        <time>2021-12-18T15:09:56Z</time>
      </trkpt>
      <trkpt lat="49.17052" lon="6.8447">
        <ele>245.9</ele>
        <time>2021-12-18T15:10:01Z</time>
      </trkpt>
      <trkpt lat="49.17043" lon="6.84473">
        <ele>245.8</ele>
        <time>2021-12-18T15:10:08Z</time>
      </trkpt>
      <trkpt lat="49.17034" lon="6.84477">
        <ele>245.6</ele>
        <time>2021-12-18T15:10:16Z</time>
      </trkpt>
      <trkpt lat="49.17023" lon="6.84476">
        <ele>245.5</ele>
        <time>2021-12-18T15:10:24Z</time>
      </trkpt>
      <trkpt lat="49.17014" lon="6.84481">
        <ele>245.5</ele>
        <time>2021-12-18T15:10:35Z</time>
      </trkpt>
      <trkpt lat="49.17004" lon="6.84484">
        <ele>245.6</ele>
        <time>2021-12-18T15:10:43Z</time>
      </trkpt>
      <trkpt lat="49.16994" lon="6.84486">
        <ele>245.8</ele>
        <time>2021-12-18T15:10:51Z</time>
      </trkpt>
      <trkpt lat="49.16985" lon="6.8449">
        <ele>246</ele>
        <time>2021-12-18T15:10:59Z</time>
      </trkpt>
      <trkpt lat="49.16975" lon="6.84493">
        <ele>246.4</ele>
        <time>2021-12-18T15:11:07Z</time>
      </trkpt>
      <trkpt lat="49.16966" lon="6.84495">
        <ele>246.8</ele>
        <time>2021-12-18T15:11:15Z</time>
      </trkpt>
      <trkpt lat="49.16956" lon="6.84499">
        <ele>247.2</ele>
        <time>2021-12-18T15:11:24Z</time>
      </trkpt>
      <trkpt lat="49.16947" lon="6.84498">
        <ele>247.5</ele>
        <time>2021-12-18T15:11:31Z</time>
      </trkpt>
      <trkpt lat="49.16937" lon="6.84502">
        <ele>247.7</ele>
        <time>2021-12-18T15:11:40Z</time>
      </trkpt>
      <trkpt lat="49.16927" lon="6.84505">
        <ele>247.8</ele>
        <time>2021-12-18T15:11:48Z</time>
      </trkpt>
      <trkpt lat="49.16918" lon="6.84506">
        <ele>247.9</ele>
        <time>2021-12-18T15:11:55Z</time>
      </trkpt>
      <trkpt lat="49.16908" lon="6.84508">
        <ele>248.1</ele>
        <time>2021-12-18T15:12:02Z</time>
      </trkpt>
      <trkpt lat="49.16899" lon="6.84511">
        <ele>248.2</ele>
        <time>2021-12-18T15:12:10Z</time>
      </trkpt>
      <trkpt lat="49.1689" lon="6.84511">
        <ele>248.4</ele>
        <time>2021-12-18T15:12:19Z</time>
      </trkpt>
      <trkpt lat="49.16879" lon="6.84515">
        <ele>248.6</ele>
        <time>2021-12-18T15:12:26Z</time>
      </trkpt>
      <trkpt lat="49.16871" lon="6.84519">
        <ele>248.8</ele>
        <time>2021-12-18T15:12:34Z</time>
      </trkpt>
      <trkpt lat="49.16862" lon="6.8452">
        <ele>249</ele>
        <time>2021-12-18T15:12:42Z</time>
      </trkpt>
      <trkpt lat="49.16852" lon="6.84521">
        <ele>249.2</ele>
        <time>2021-12-18T15:12:50Z</time>
      </trkpt>
      <trkpt lat="49.16844" lon="6.84526">
        <ele>249.4</ele>
        <time>2021-12-18T15:13:00Z</time>
      </trkpt>
      <trkpt lat="49.16836" lon="6.84534">
        <ele>249.5</ele>
        <time>2021-12-18T15:13:18Z</time>
      </trkpt>
      <trkpt lat="49.16829" lon="6.84545">
        <ele>248.9</ele>
        <time>2021-12-18T15:13:27Z</time>
      </trkpt>
      <trkpt lat="49.16824" lon="6.84557">
        <ele>248.3</ele>
        <time>2021-12-18T15:13:37Z</time>
      </trkpt>
      <trkpt lat="49.16817" lon="6.84568">
        <ele>247.6</ele>
        <time>2021-12-18T15:13:47Z</time>
      </trkpt>
      <trkpt lat="49.1681" lon="6.84577">
        <ele>247.1</ele>
        <time>2021-12-18T15:13:56Z</time>
      </trkpt>
      <trkpt lat="49.16802" lon="6.84585">
        <ele>246.5</ele>
        <time>2021-12-18T15:14:08Z</time>
      </trkpt>
      <trkpt lat="49.16793" lon="6.84594">
        <ele>245.9</ele>
        <time>2021-12-18T15:14:19Z</time>
      </trkpt>
      <trkpt lat="49.16785" lon="6.84601">
        <ele>245.5</ele>
        <time>2021-12-18T15:14:28Z</time>
      </trkpt>
      <trkpt lat="49.16778" lon="6.84613">
        <ele>245.1</ele>
        <time>2021-12-18T15:14:37Z</time>
      </trkpt>
      <trkpt lat="49.1677" lon="6.84617">
        <ele>244.8</ele>
        <time>2021-12-18T15:15:08Z</time>
      </trkpt>
      <trkpt lat="49.16765" lon="6.84617">
        <ele>244.6</ele>
        <time>2021-12-18T15:15:18Z</time>
      </trkpt>
      <trkpt lat="49.16765" lon="6.84617">
        <ele>244.6</ele>
        <time>2021-12-18T15:15:19Z</time>
      </trkpt>
      <trkpt lat="49.16767" lon="6.84633">
        <ele>244.2</ele>
        <time>2021-12-18T15:15:28Z</time>
      </trkpt>
      <trkpt lat="49.16772" lon="6.84647">
        <ele>245.4</ele>
        <time>2021-12-18T15:15:37Z</time>
      </trkpt>
      <trkpt lat="49.16775" lon="6.8466">
        <ele>246.5</ele>
        <time>2021-12-18T15:15:44Z</time>
      </trkpt>
      <trkpt lat="49.1678" lon="6.84675">
        <ele>247.8</ele>
        <time>2021-12-18T15:15:51Z</time>
      </trkpt>
      <trkpt lat="49.1678" lon="6.8469">
        <ele>249.1</ele>
        <time>2021-12-18T15:15:59Z</time>
      </trkpt>
      <trkpt lat="49.16784" lon="6.84703">
        <ele>250.2</ele>
        <time>2021-12-18T15:16:06Z</time>
      </trkpt>
      <trkpt lat="49.1679" lon="6.84716">
        <ele>250.2</ele>
        <time>2021-12-18T15:16:14Z</time>
      </trkpt>
      <trkpt lat="49.16796" lon="6.84727">
        <ele>249.3</ele>
        <time>2021-12-18T15:16:23Z</time>
      </trkpt>
      <trkpt lat="49.16799" lon="6.84739">
        <ele>249.3</ele>
        <time>2021-12-18T15:16:32Z</time>
      </trkpt>
      <trkpt lat="49.16807" lon="6.84749">
        <ele>248.7</ele>
        <time>2021-12-18T15:16:40Z</time>
      </trkpt>
      <trkpt lat="49.16816" lon="6.84757">
        <ele>247.8</ele>
        <time>2021-12-18T15:16:47Z</time>
      </trkpt>
      <trkpt lat="49.16824" lon="6.84764">
        <ele>246.8</ele>
        <time>2021-12-18T15:16:54Z</time>
      </trkpt>
      <trkpt lat="49.16832" lon="6.84772">
        <ele>246.1</ele>
        <time>2021-12-18T15:17:00Z</time>
      </trkpt>
      <trkpt lat="49.16837" lon="6.84784">
        <ele>245.1</ele>
        <time>2021-12-18T15:17:10Z</time>
      </trkpt>
      <trkpt lat="49.16842" lon="6.84795">
        <ele>244.3</ele>
        <time>2021-12-18T15:17:17Z</time>
      </trkpt>
      <trkpt lat="49.16851" lon="6.84806">
        <ele>243.4</ele>
        <time>2021-12-18T15:17:26Z</time>
      </trkpt>
      <trkpt lat="49.16854" lon="6.84819">
        <ele>243.3</ele>
        <time>2021-12-18T15:17:32Z</time>
      </trkpt>
      <trkpt lat="49.16855" lon="6.84834">
        <ele>243.4</ele>
        <time>2021-12-18T15:17:40Z</time>
      </trkpt>
      <trkpt lat="49.16858" lon="6.84849">
        <ele>243.9</ele>
        <time>2021-12-18T15:17:50Z</time>
      </trkpt>
      <trkpt lat="49.16862" lon="6.84861">
        <ele>244.4</ele>
        <time>2021-12-18T15:17:59Z</time>
      </trkpt>
      <trkpt lat="49.16861" lon="6.84875">
        <ele>245.1</ele>
        <time>2021-12-18T15:18:09Z</time>
      </trkpt>
      <trkpt lat="49.16864" lon="6.8489">
        <ele>245.3</ele>
        <time>2021-12-18T15:18:17Z</time>
      </trkpt>
      <trkpt lat="49.1687" lon="6.84902">
        <ele>244.9</ele>
        <time>2021-12-18T15:18:23Z</time>
      </trkpt>
      <trkpt lat="49.16873" lon="6.84917">
        <ele>244.2</ele>
        <time>2021-12-18T15:18:30Z</time>
      </trkpt>
      <trkpt lat="49.16872" lon="6.84932">
        <ele>243.8</ele>
        <time>2021-12-18T15:18:38Z</time>
      </trkpt>
      <trkpt lat="49.16874" lon="6.84946">
        <ele>243.3</ele>
        <time>2021-12-18T15:18:48Z</time>
      </trkpt>
      <trkpt lat="49.16879" lon="6.84958">
        <ele>242</ele>
        <time>2021-12-18T15:18:56Z</time>
      </trkpt>
      <trkpt lat="49.16883" lon="6.84971">
        <ele>240.9</ele>
        <time>2021-12-18T15:19:04Z</time>
      </trkpt>
      <trkpt lat="49.16888" lon="6.84983">
        <ele>239.4</ele>
        <time>2021-12-18T15:19:13Z</time>
      </trkpt>
      <trkpt lat="49.16888" lon="6.84999">
        <ele>240.2</ele>
        <time>2021-12-18T15:19:21Z</time>
      </trkpt>
      <trkpt lat="49.1689" lon="6.85014">
        <ele>240.3</ele>
        <time>2021-12-18T15:19:29Z</time>
      </trkpt>
      <trkpt lat="49.16892" lon="6.85021">
        <ele>240</ele>
        <time>2021-12-18T15:19:37Z</time>
      </trkpt>
      <trkpt lat="49.16892" lon="6.85021">
        <ele>240</ele>
        <time>2021-12-18T15:19:38Z</time>
      </trkpt>
      <trkpt lat="49.16889" lon="6.85022">
        <ele>240.4</ele>
        <time>2021-12-18T15:19:44Z</time>
      </trkpt>
      <trkpt lat="49.16888" lon="6.85022">
        <ele>240.3</ele>
        <time>2021-12-18T15:19:49Z</time>
      </trkpt>
      <trkpt lat="49.16889" lon="6.85037">
        <ele>239.8</ele>
        <time>2021-12-18T15:19:58Z</time>
      </trkpt>
      <trkpt lat="49.16889" lon="6.85053">
        <ele>239.1</ele>
        <time>2021-12-18T15:20:09Z</time>
      </trkpt>
      <trkpt lat="49.16893" lon="6.85067">
        <ele>237.7</ele>
        <time>2021-12-18T15:20:22Z</time>
      </trkpt>
      <trkpt lat="49.16897" lon="6.85079">
        <ele>236.4</ele>
        <time>2021-12-18T15:20:33Z</time>
      </trkpt>
      <trkpt lat="49.169" lon="6.85093">
        <ele>235.4</ele>
        <time>2021-12-18T15:20:45Z</time>
      </trkpt>
      <trkpt lat="49.16896" lon="6.85106">
        <ele>235.5</ele>
        <time>2021-12-18T15:20:56Z</time>
      </trkpt>
      <trkpt lat="49.16903" lon="6.85117">
        <ele>233.6</ele>
        <time>2021-12-18T15:21:21Z</time>
      </trkpt>
      <trkpt lat="49.16912" lon="6.85116">
        <ele>232.2</ele>
        <time>2021-12-18T15:21:36Z</time>
      </trkpt>
      <trkpt lat="49.16912" lon="6.85116">
        <ele>232.2</ele>
        <time>2021-12-18T15:21:38Z</time>
      </trkpt>
      <trkpt lat="49.16912" lon="6.85116">
        <ele>232.2</ele>
        <time>2021-12-18T15:21:39Z</time>
      </trkpt>
      <trkpt lat="49.16912" lon="6.85117">
        <ele>232.2</ele>
        <time>2021-12-18T15:21:40Z</time>
      </trkpt>
      <trkpt lat="49.16912" lon="6.85117">
        <ele>232.1</ele>
        <time>2021-12-18T15:21:42Z</time>
      </trkpt>
      <trkpt lat="49.16911" lon="6.85117">
        <ele>232.1</ele>
        <time>2021-12-18T15:21:47Z</time>
      </trkpt>
      <trkpt lat="49.16911" lon="6.85117">
        <ele>232.1</ele>
        <time>2021-12-18T15:21:48Z</time>
      </trkpt>
      <trkpt lat="49.16902" lon="6.8512">
        <ele>233.5</ele>
        <time>2021-12-18T15:22:01Z</time>
      </trkpt>
      <trkpt lat="49.16892" lon="6.85123">
        <ele>234.6</ele>
        <time>2021-12-18T15:22:06Z</time>
      </trkpt>
      <trkpt lat="49.16883" lon="6.85123">
        <ele>236.3</ele>
        <time>2021-12-18T15:22:12Z</time>
      </trkpt>
      <trkpt lat="49.16876" lon="6.85131">
        <ele>237.3</ele>
        <time>2021-12-18T15:22:20Z</time>
      </trkpt>
      <trkpt lat="49.16872" lon="6.85144">
        <ele>236.8</ele>
        <time>2021-12-18T15:22:29Z</time>
      </trkpt>
      <trkpt lat="49.16864" lon="6.85151">
        <ele>238.1</ele>
        <time>2021-12-18T15:22:38Z</time>
      </trkpt>
      <trkpt lat="49.16858" lon="6.85162">
        <ele>238.5</ele>
        <time>2021-12-18T15:22:51Z</time>
      </trkpt>
      <trkpt lat="49.16855" lon="6.85175">
        <ele>238.3</ele>
        <time>2021-12-18T15:23:04Z</time>
      </trkpt>
      <trkpt lat="49.16857" lon="6.85176">
        <ele>238.3</ele>
        <time>2021-12-18T15:23:09Z</time>
      </trkpt>
      <trkpt lat="49.16856" lon="6.85177">
        <ele>238.3</ele>
        <time>2021-12-18T15:23:10Z</time>
      </trkpt>
      <trkpt lat="49.16851" lon="6.85165">
        <ele>239.7</ele>
        <time>2021-12-18T15:23:24Z</time>
      </trkpt>
      <trkpt lat="49.16849" lon="6.85159">
        <ele>240.3</ele>
        <time>2021-12-18T15:23:37Z</time>
      </trkpt>
      <trkpt lat="49.16849" lon="6.8516">
        <ele>240.7</ele>
        <time>2021-12-18T15:23:38Z</time>
      </trkpt>
      <trkpt lat="49.16841" lon="6.85152">
        <ele>241.9</ele>
        <time>2021-12-18T15:23:57Z</time>
      </trkpt>
      <trkpt lat="49.16833" lon="6.85145">
        <ele>244.3</ele>
        <time>2021-12-18T15:24:10Z</time>
      </trkpt>
      <trkpt lat="49.16826" lon="6.85136">
        <ele>246.9</ele>
        <time>2021-12-18T15:24:32Z</time>
      </trkpt>
      <trkpt lat="49.16824" lon="6.85122">
        <ele>248.5</ele>
        <time>2021-12-18T15:24:44Z</time>
      </trkpt>
      <trkpt lat="49.16822" lon="6.85119">
        <ele>249</ele>
        <time>2021-12-18T15:24:52Z</time>
      </trkpt>
      <trkpt lat="49.16822" lon="6.85119">
        <ele>249</ele>
        <time>2021-12-18T15:24:53Z</time>
      </trkpt>
      <trkpt lat="49.16818" lon="6.85106">
        <ele>251</ele>
        <time>2021-12-18T15:25:10Z</time>
      </trkpt>
      <trkpt lat="49.16815" lon="6.85109">
        <ele>250.9</ele>
        <time>2021-12-18T15:25:17Z</time>
      </trkpt>
      <trkpt lat="49.16815" lon="6.85109">
        <ele>251.5</ele>
        <time>2021-12-18T15:25:18Z</time>
      </trkpt>
      <trkpt lat="49.16812" lon="6.85096">
        <ele>252.5</ele>
        <time>2021-12-18T15:25:41Z</time>
      </trkpt>
      <trkpt lat="49.16815" lon="6.85081">
        <ele>251.4</ele>
        <time>2021-12-18T15:25:51Z</time>
      </trkpt>
      <trkpt lat="49.16814" lon="6.85066">
        <ele>251.9</ele>
        <time>2021-12-18T15:25:58Z</time>
      </trkpt>
      <trkpt lat="49.16809" lon="6.85054">
        <ele>253.2</ele>
        <time>2021-12-18T15:26:10Z</time>
      </trkpt>
      <trkpt lat="49.16804" lon="6.85043">
        <ele>254.4</ele>
        <time>2021-12-18T15:26:18Z</time>
      </trkpt>
      <trkpt lat="49.16796" lon="6.85035">
        <ele>255.3</ele>
        <time>2021-12-18T15:26:25Z</time>
      </trkpt>
      <trkpt lat="49.16789" lon="6.85024">
        <ele>256.5</ele>
        <time>2021-12-18T15:26:34Z</time>
      </trkpt>
      <trkpt lat="49.16779" lon="6.85022">
        <ele>258.6</ele>
        <time>2021-12-18T15:26:41Z</time>
      </trkpt>
      <trkpt lat="49.16771" lon="6.85015">
        <ele>259.8</ele>
        <time>2021-12-18T15:26:46Z</time>
      </trkpt>
      <trkpt lat="49.16767" lon="6.85002">
        <ele>261</ele>
        <time>2021-12-18T15:26:55Z</time>
      </trkpt>
      <trkpt lat="49.16762" lon="6.84989">
        <ele>261.6</ele>
        <time>2021-12-18T15:27:02Z</time>
      </trkpt>
      <trkpt lat="49.16755" lon="6.8498">
        <ele>263.2</ele>
        <time>2021-12-18T15:27:12Z</time>
      </trkpt>
      <trkpt lat="49.16746" lon="6.84975">
        <ele>265.2</ele>
        <time>2021-12-18T15:27:21Z</time>
      </trkpt>
      <trkpt lat="49.1674" lon="6.84965">
        <ele>266.4</ele>
        <time>2021-12-18T15:27:30Z</time>
      </trkpt>
      <trkpt lat="49.16737" lon="6.8495">
        <ele>266.9</ele>
        <time>2021-12-18T15:27:46Z</time>
      </trkpt>
      <trkpt lat="49.16736" lon="6.84936">
        <ele>267.4</ele>
        <time>2021-12-18T15:27:54Z</time>
      </trkpt>
      <trkpt lat="49.16731" lon="6.84923">
        <ele>268.4</ele>
        <time>2021-12-18T15:28:03Z</time>
      </trkpt>
      <trkpt lat="49.16728" lon="6.84909">
        <ele>269.5</ele>
        <time>2021-12-18T15:28:12Z</time>
      </trkpt>
      <trkpt lat="49.16724" lon="6.84897">
        <ele>269.9</ele>
        <time>2021-12-18T15:28:22Z</time>
      </trkpt>
      <trkpt lat="49.16715" lon="6.84892">
        <ele>271.3</ele>
        <time>2021-12-18T15:28:35Z</time>
      </trkpt>
      <trkpt lat="49.16706" lon="6.84895">
        <ele>271.9</ele>
        <time>2021-12-18T15:28:56Z</time>
      </trkpt>
      <trkpt lat="49.16697" lon="6.849">
        <ele>271.9</ele>
        <time>2021-12-18T15:29:02Z</time>
      </trkpt>
      <trkpt lat="49.16688" lon="6.84907">
        <ele>271.5</ele>
        <time>2021-12-18T15:29:09Z</time>
      </trkpt>
      <trkpt lat="49.16679" lon="6.84906">
        <ele>271.2</ele>
        <time>2021-12-18T15:29:17Z</time>
      </trkpt>
      <trkpt lat="49.16675" lon="6.84906">
        <ele>271.2</ele>
        <time>2021-12-18T15:29:26Z</time>
      </trkpt>
      <trkpt lat="49.16674" lon="6.84905">
        <ele>271.2</ele>
        <time>2021-12-18T15:29:27Z</time>
      </trkpt>
      <trkpt lat="49.16674" lon="6.84906">
        <ele>271.2</ele>
        <time>2021-12-18T15:30:26Z</time>
      </trkpt>
      <trkpt lat="49.16674" lon="6.84906">
        <ele>271.1</ele>
        <time>2021-12-18T15:30:28Z</time>
      </trkpt>
      <trkpt lat="49.16674" lon="6.84906">
        <ele>271.1</ele>
        <time>2021-12-18T15:30:32Z</time>
      </trkpt>
      <trkpt lat="49.16673" lon="6.84906">
        <ele>271.1</ele>
        <time>2021-12-18T15:30:33Z</time>
      </trkpt>
      <trkpt lat="49.16675" lon="6.84904">
        <ele>271.1</ele>
        <time>2021-12-18T15:30:45Z</time>
      </trkpt>
      <trkpt lat="49.16675" lon="6.84904">
        <ele>271</ele>
        <time>2021-12-18T15:30:46Z</time>
      </trkpt>
      <trkpt lat="49.16672" lon="6.849">
        <ele>271</ele>
        <time>2021-12-18T15:30:54Z</time>
      </trkpt>
      <trkpt lat="49.16673" lon="6.84899">
        <ele>271</ele>
        <time>2021-12-18T15:30:55Z</time>
      </trkpt>
      <trkpt lat="49.16676" lon="6.84896">
        <ele>271</ele>
        <time>2021-12-18T15:31:08Z</time>
      </trkpt>
      <trkpt lat="49.16676" lon="6.84896">
        <ele>271</ele>
        <time>2021-12-18T15:31:09Z</time>
      </trkpt>
      <trkpt lat="49.16667" lon="6.84903">
        <ele>271.1</ele>
        <time>2021-12-18T15:31:35Z</time>
      </trkpt>
      <trkpt lat="49.16659" lon="6.84909">
        <ele>271.5</ele>
        <time>2021-12-18T15:31:46Z</time>
      </trkpt>
      <trkpt lat="49.16649" lon="6.8491">
        <ele>272.2</ele>
        <time>2021-12-18T15:31:52Z</time>
      </trkpt>
      <trkpt lat="49.16641" lon="6.84903">
        <ele>272.4</ele>
        <time>2021-12-18T15:32:01Z</time>
      </trkpt>
      <trkpt lat="49.16637" lon="6.84917">
        <ele>272.3</ele>
        <time>2021-12-18T15:32:13Z</time>
      </trkpt>
      <trkpt lat="49.16633" lon="6.8493">
        <ele>271.8</ele>
        <time>2021-12-18T15:32:21Z</time>
      </trkpt>
      <trkpt lat="49.16627" lon="6.84943">
        <ele>271.4</ele>
        <time>2021-12-18T15:32:27Z</time>
      </trkpt>
      <trkpt lat="49.16623" lon="6.8495">
        <ele>270.8</ele>
        <time>2021-12-18T15:32:33Z</time>
      </trkpt>
      <trkpt lat="49.16622" lon="6.8495">
        <ele>270.8</ele>
        <time>2021-12-18T15:32:34Z</time>
      </trkpt>
      <trkpt lat="49.16615" lon="6.84958">
        <ele>269.4</ele>
        <time>2021-12-18T15:32:45Z</time>
      </trkpt>
      <trkpt lat="49.16606" lon="6.84958">
        <ele>268.1</ele>
        <time>2021-12-18T15:32:52Z</time>
      </trkpt>
      <trkpt lat="49.16597" lon="6.84955">
        <ele>266.9</ele>
        <time>2021-12-18T15:33:10Z</time>
      </trkpt>
      <trkpt lat="49.16606" lon="6.84957">
        <ele>268.1</ele>
        <time>2021-12-18T15:33:45Z</time>
      </trkpt>
      <trkpt lat="49.16606" lon="6.84957">
        <ele>268.1</ele>
        <time>2021-12-18T15:33:48Z</time>
      </trkpt>
      <trkpt lat="49.16609" lon="6.84958">
        <ele>268.5</ele>
        <time>2021-12-18T15:34:02Z</time>
      </trkpt>
      <trkpt lat="49.16609" lon="6.84957">
        <ele>268.5</ele>
        <time>2021-12-18T15:34:03Z</time>
      </trkpt>
      <trkpt lat="49.16608" lon="6.84955">
        <ele>268.4</ele>
        <time>2021-12-18T15:34:28Z</time>
      </trkpt>
      <trkpt lat="49.16608" lon="6.84955">
        <ele>268.4</ele>
        <time>2021-12-18T15:34:29Z</time>
      </trkpt>
      <trkpt lat="49.16609" lon="6.84954">
        <ele>268.6</ele>
        <time>2021-12-18T15:34:31Z</time>
      </trkpt>
      <trkpt lat="49.16608" lon="6.84955">
        <ele>268.4</ele>
        <time>2021-12-18T15:34:32Z</time>
      </trkpt>
      <trkpt lat="49.166" lon="6.84962">
        <ele>266.9</ele>
        <time>2021-12-18T15:34:43Z</time>
      </trkpt>
      <trkpt lat="49.16606" lon="6.84962">
        <ele>267.6</ele>
        <time>2021-12-18T15:35:16Z</time>
      </trkpt>
      <trkpt lat="49.16605" lon="6.84963">
        <ele>267.6</ele>
        <time>2021-12-18T15:35:17Z</time>
      </trkpt>
      <trkpt lat="49.16599" lon="6.84966">
        <ele>266.2</ele>
        <time>2021-12-18T15:35:30Z</time>
      </trkpt>
      <trkpt lat="49.16596" lon="6.84967">
        <ele>265.7</ele>
        <time>2021-12-18T15:35:31Z</time>
      </trkpt>
      <trkpt lat="49.16606" lon="6.84964">
        <ele>267.3</ele>
        <time>2021-12-18T15:36:02Z</time>
      </trkpt>
      <trkpt lat="49.16598" lon="6.84958">
        <ele>266.6</ele>
        <time>2021-12-18T15:36:23Z</time>
      </trkpt>
      <trkpt lat="49.16598" lon="6.84973">
        <ele>265.5</ele>
        <time>2021-12-18T15:36:54Z</time>
      </trkpt>
      <trkpt lat="49.16599" lon="6.84988">
        <ele>265.1</ele>
        <time>2021-12-18T15:37:04Z</time>
      </trkpt>
      <trkpt lat="49.16594" lon="6.85001">
        <ele>263.7</ele>
        <time>2021-12-18T15:37:14Z</time>
      </trkpt>
      <trkpt lat="49.16586" lon="6.85008">
        <ele>262.1</ele>
        <time>2021-12-18T15:37:23Z</time>
      </trkpt>
      <trkpt lat="49.16576" lon="6.85011">
        <ele>259.9</ele>
        <time>2021-12-18T15:37:33Z</time>
      </trkpt>
      <trkpt lat="49.16568" lon="6.85003">
        <ele>258.7</ele>
        <time>2021-12-18T15:37:42Z</time>
      </trkpt>
      <trkpt lat="49.16562" lon="6.84993">
        <ele>258</ele>
        <time>2021-12-18T15:37:52Z</time>
      </trkpt>
      <trkpt lat="49.16555" lon="6.84983">
        <ele>257.1</ele>
        <time>2021-12-18T15:38:05Z</time>
      </trkpt>
      <trkpt lat="49.1655" lon="6.8497">
        <ele>256.1</ele>
        <time>2021-12-18T15:38:15Z</time>
      </trkpt>
      <trkpt lat="49.16541" lon="6.84965">
        <ele>254.4</ele>
        <time>2021-12-18T15:38:29Z</time>
      </trkpt>
      <trkpt lat="49.16532" lon="6.84961">
        <ele>251.8</ele>
        <time>2021-12-18T15:38:43Z</time>
      </trkpt>
      <trkpt lat="49.16522" lon="6.84964">
        <ele>249.5</ele>
        <time>2021-12-18T15:38:53Z</time>
      </trkpt>
      <trkpt lat="49.16513" lon="6.8496">
        <ele>247.4</ele>
        <time>2021-12-18T15:39:09Z</time>
      </trkpt>
      <trkpt lat="49.16507" lon="6.84949">
        <ele>246</ele>
        <time>2021-12-18T15:39:18Z</time>
      </trkpt>
      <trkpt lat="49.16498" lon="6.84946">
        <ele>243.4</ele>
        <time>2021-12-18T15:39:27Z</time>
      </trkpt>
      <trkpt lat="49.16489" lon="6.84948">
        <ele>239.8</ele>
        <time>2021-12-18T15:39:34Z</time>
      </trkpt>
      <trkpt lat="49.1648" lon="6.84946">
        <ele>237.3</ele>
        <time>2021-12-18T15:39:45Z</time>
      </trkpt>
      <trkpt lat="49.16471" lon="6.84948">
        <ele>233.9</ele>
        <time>2021-12-18T15:39:51Z</time>
      </trkpt>
      <trkpt lat="49.16462" lon="6.84949">
        <ele>230.6</ele>
        <time>2021-12-18T15:39:59Z</time>
      </trkpt>
      <trkpt lat="49.16455" lon="6.84958">
        <ele>227.4</ele>
        <time>2021-12-18T15:40:06Z</time>
      </trkpt>
      <trkpt lat="49.16454" lon="6.84972">
        <ele>227.2</ele>
        <time>2021-12-18T15:40:19Z</time>
      </trkpt>
      <trkpt lat="49.16449" lon="6.8497">
        <ele>224.9</ele>
        <time>2021-12-18T15:40:28Z</time>
      </trkpt>
      <trkpt lat="49.16448" lon="6.84969">
        <ele>224.9</ele>
        <time>2021-12-18T15:40:29Z</time>
      </trkpt>
      <trkpt lat="49.16439" lon="6.84973">
        <ele>219.9</ele>
        <time>2021-12-18T15:40:40Z</time>
      </trkpt>
      <trkpt lat="49.16437" lon="6.84976">
        <ele>219.8</ele>
        <time>2021-12-18T15:40:46Z</time>
      </trkpt>
      <trkpt lat="49.16437" lon="6.84976">
        <ele>219.8</ele>
        <time>2021-12-18T15:40:47Z</time>
      </trkpt>
      <trkpt lat="49.16435" lon="6.84978">
        <ele>218.7</ele>
        <time>2021-12-18T15:40:51Z</time>
      </trkpt>
      <trkpt lat="49.16435" lon="6.84978">
        <ele>218.7</ele>
        <time>2021-12-18T15:40:52Z</time>
      </trkpt>
      <trkpt lat="49.16426" lon="6.84983">
        <ele>215.6</ele>
        <time>2021-12-18T15:41:00Z</time>
      </trkpt>
      <trkpt lat="49.16418" lon="6.84989">
        <ele>215.7</ele>
        <time>2021-12-18T15:41:07Z</time>
      </trkpt>
      <trkpt lat="49.16422" lon="6.85003">
        <ele>215.7</ele>
        <time>2021-12-18T15:41:20Z</time>
      </trkpt>
      <trkpt lat="49.16423" lon="6.85017">
        <ele>215.6</ele>
        <time>2021-12-18T15:41:28Z</time>
      </trkpt>
      <trkpt lat="49.16425" lon="6.8503">
        <ele>215.2</ele>
        <time>2021-12-18T15:41:38Z</time>
      </trkpt>
      <trkpt lat="49.1643" lon="6.85042">
        <ele>214.6</ele>
        <time>2021-12-18T15:41:44Z</time>
      </trkpt>
      <trkpt lat="49.16429" lon="6.85056">
        <ele>213.9</ele>
        <time>2021-12-18T15:41:52Z</time>
      </trkpt>
      <trkpt lat="49.16423" lon="6.85069">
        <ele>213.1</ele>
        <time>2021-12-18T15:42:02Z</time>
      </trkpt>
      <trkpt lat="49.16426" lon="6.85082">
        <ele>212.4</ele>
        <time>2021-12-18T15:42:10Z</time>
      </trkpt>
      <trkpt lat="49.16428" lon="6.85097">
        <ele>211.7</ele>
        <time>2021-12-18T15:42:20Z</time>
      </trkpt>
      <trkpt lat="49.16432" lon="6.85112">
        <ele>210.6</ele>
        <time>2021-12-18T15:42:27Z</time>
      </trkpt>
      <trkpt lat="49.16435" lon="6.85125">
        <ele>209.4</ele>
        <time>2021-12-18T15:42:35Z</time>
      </trkpt>
      <trkpt lat="49.16432" lon="6.85138">
        <ele>208.2</ele>
        <time>2021-12-18T15:42:45Z</time>
      </trkpt>
      <trkpt lat="49.16424" lon="6.85145">
        <ele>206.8</ele>
        <time>2021-12-18T15:42:55Z</time>
      </trkpt>
      <trkpt lat="49.16417" lon="6.85154">
        <ele>205.9</ele>
        <time>2021-12-18T15:43:05Z</time>
      </trkpt>
      <trkpt lat="49.16408" lon="6.85162">
        <ele>205.3</ele>
        <time>2021-12-18T15:43:15Z</time>
      </trkpt>
      <trkpt lat="49.16402" lon="6.85173">
        <ele>205.1</ele>
        <time>2021-12-18T15:43:24Z</time>
      </trkpt>
      <trkpt lat="49.16407" lon="6.85177">
        <ele>204.9</ele>
        <time>2021-12-18T15:43:47Z</time>
      </trkpt>
      <trkpt lat="49.16407" lon="6.85177">
        <ele>204.9</ele>
        <time>2021-12-18T15:43:48Z</time>
      </trkpt>
      <trkpt lat="49.164" lon="6.85168">
        <ele>204.7</ele>
        <time>2021-12-18T15:44:04Z</time>
      </trkpt>
      <trkpt lat="49.16391" lon="6.85162">
        <ele>204.5</ele>
        <time>2021-12-18T15:44:13Z</time>
      </trkpt>
      <trkpt lat="49.16383" lon="6.85155">
        <ele>204.4</ele>
        <time>2021-12-18T15:44:22Z</time>
      </trkpt>
      <trkpt lat="49.16373" lon="6.8516">
        <ele>204.1</ele>
        <time>2021-12-18T15:44:32Z</time>
      </trkpt>
      <trkpt lat="49.16366" lon="6.85171">
        <ele>203.7</ele>
        <time>2021-12-18T15:44:41Z</time>
      </trkpt>
      <trkpt lat="49.16359" lon="6.85181">
        <ele>203.4</ele>
        <time>2021-12-18T15:44:49Z</time>
      </trkpt>
      <trkpt lat="49.16353" lon="6.85191">
        <ele>203.2</ele>
        <time>2021-12-18T15:44:58Z</time>
      </trkpt>
      <trkpt lat="49.16346" lon="6.85201">
        <ele>203.1</ele>
        <time>2021-12-18T15:45:08Z</time>
      </trkpt>
      <trkpt lat="49.16339" lon="6.85212">
        <ele>202.9</ele>
        <time>2021-12-18T15:45:18Z</time>
      </trkpt>
      <trkpt lat="49.16333" lon="6.85223">
        <ele>202.8</ele>
        <time>2021-12-18T15:45:26Z</time>
      </trkpt>
      <trkpt lat="49.16326" lon="6.85233">
        <ele>202.7</ele>
        <time>2021-12-18T15:45:34Z</time>
      </trkpt>
      <trkpt lat="49.1632" lon="6.85244">
        <ele>202.6</ele>
        <time>2021-12-18T15:45:44Z</time>
      </trkpt>
      <trkpt lat="49.16317" lon="6.85258">
        <ele>202.6</ele>
        <time>2021-12-18T15:45:53Z</time>
      </trkpt>
      <trkpt lat="49.1631" lon="6.85269">
        <ele>202.7</ele>
        <time>2021-12-18T15:46:02Z</time>
      </trkpt>
      <trkpt lat="49.16304" lon="6.8528">
        <ele>202.8</ele>
        <time>2021-12-18T15:46:10Z</time>
      </trkpt>
      <trkpt lat="49.16298" lon="6.85285">
        <ele>202.9</ele>
        <time>2021-12-18T15:46:19Z</time>
      </trkpt>
      <trkpt lat="49.16297" lon="6.85286">
        <ele>202.9</ele>
        <time>2021-12-18T15:46:20Z</time>
      </trkpt>
      <trkpt lat="49.16287" lon="6.85288">
        <ele>203</ele>
        <time>2021-12-18T15:46:28Z</time>
      </trkpt>
      <trkpt lat="49.16277" lon="6.85288">
        <ele>203</ele>
        <time>2021-12-18T15:46:36Z</time>
      </trkpt>
      <trkpt lat="49.16267" lon="6.85291">
        <ele>203</ele>
        <time>2021-12-18T15:46:44Z</time>
      </trkpt>
      <trkpt lat="49.16258" lon="6.85291">
        <ele>203</ele>
        <time>2021-12-18T15:46:53Z</time>
      </trkpt>
      <trkpt lat="49.16249" lon="6.85294">
        <ele>203</ele>
        <time>2021-12-18T15:47:01Z</time>
      </trkpt>
      <trkpt lat="49.1624" lon="6.85295">
        <ele>203.1</ele>
        <time>2021-12-18T15:47:09Z</time>
      </trkpt>
      <trkpt lat="49.1623" lon="6.85297">
        <ele>203.1</ele>
        <time>2021-12-18T15:47:17Z</time>
      </trkpt>
      <trkpt lat="49.16222" lon="6.85302">
        <ele>203.1</ele>
        <time>2021-12-18T15:47:26Z</time>
      </trkpt>
      <trkpt lat="49.16216" lon="6.85312">
        <ele>203.1</ele>
        <time>2021-12-18T15:47:33Z</time>
      </trkpt>
      <trkpt lat="49.16211" lon="6.85325">
        <ele>203.1</ele>
        <time>2021-12-18T15:47:40Z</time>
      </trkpt>
      <trkpt lat="49.16208" lon="6.85338">
        <ele>203</ele>
        <time>2021-12-18T15:47:49Z</time>
      </trkpt>
      <trkpt lat="49.16203" lon="6.85351">
        <ele>203</ele>
        <time>2021-12-18T15:47:57Z</time>
      </trkpt>
      <trkpt lat="49.16203" lon="6.85356">
        <ele>203</ele>
        <time>2021-12-18T15:48:04Z</time>
      </trkpt>
      <trkpt lat="49.16202" lon="6.85355">
        <ele>203</ele>
        <time>2021-12-18T15:48:05Z</time>
      </trkpt>
      <trkpt lat="49.16197" lon="6.85368">
        <ele>203</ele>
        <time>2021-12-18T15:48:19Z</time>
      </trkpt>
      <trkpt lat="49.16193" lon="6.85382">
        <ele>203.1</ele>
        <time>2021-12-18T15:48:26Z</time>
      </trkpt>
      <trkpt lat="49.1619" lon="6.85396">
        <ele>203.1</ele>
        <time>2021-12-18T15:48:33Z</time>
      </trkpt>
      <trkpt lat="49.16182" lon="6.85407">
        <ele>203</ele>
        <time>2021-12-18T15:48:43Z</time>
      </trkpt>
      <trkpt lat="49.16173" lon="6.85412">
        <ele>202.8</ele>
        <time>2021-12-18T15:48:51Z</time>
      </trkpt>
      <trkpt lat="49.16166" lon="6.85403">
        <ele>202.6</ele>
        <time>2021-12-18T15:49:00Z</time>
      </trkpt>
      <trkpt lat="49.16159" lon="6.85393">
        <ele>202.4</ele>
        <time>2021-12-18T15:49:10Z</time>
      </trkpt>
      <trkpt lat="49.16154" lon="6.85381">
        <ele>202.6</ele>
        <time>2021-12-18T15:49:17Z</time>
      </trkpt>
      <trkpt lat="49.16152" lon="6.85366">
        <ele>202.8</ele>
        <time>2021-12-18T15:49:24Z</time>
      </trkpt>
      <trkpt lat="49.16148" lon="6.85353">
        <ele>203.2</ele>
        <time>2021-12-18T15:49:32Z</time>
      </trkpt>
      <trkpt lat="49.16143" lon="6.8534">
        <ele>203.6</ele>
        <time>2021-12-18T15:49:41Z</time>
      </trkpt>
      <trkpt lat="49.16139" lon="6.85328">
        <ele>204.1</ele>
        <time>2021-12-18T15:49:49Z</time>
      </trkpt>
      <trkpt lat="49.16133" lon="6.85316">
        <ele>204.6</ele>
        <time>2021-12-18T15:49:57Z</time>
      </trkpt>
      <trkpt lat="49.16126" lon="6.85306">
        <ele>205</ele>
        <time>2021-12-18T15:50:05Z</time>
      </trkpt>
      <trkpt lat="49.16125" lon="6.85306">
        <ele>205</ele>
        <time>2021-12-18T15:50:14Z</time>
      </trkpt>
      <trkpt lat="49.16124" lon="6.85306">
        <ele>205.1</ele>
        <time>2021-12-18T15:50:22Z</time>
      </trkpt>
      <trkpt lat="49.16124" lon="6.85306">
        <ele>205.1</ele>
        <time>2021-12-18T15:50:30Z</time>
      </trkpt>
      <trkpt lat="49.16123" lon="6.85306">
        <ele>205.2</ele>
        <time>2021-12-18T15:50:38Z</time>
      </trkpt>
      <trkpt lat="49.16122" lon="6.85306">
        <ele>205.2</ele>
        <time>2021-12-18T15:50:46Z</time>
      </trkpt>
      <trkpt lat="49.16121" lon="6.85307">
        <ele>205.3</ele>
        <time>2021-12-18T15:50:54Z</time>
      </trkpt>
      <trkpt lat="49.1612" lon="6.85307">
        <ele>205.3</ele>
        <time>2021-12-18T15:51:04Z</time>
      </trkpt>
      <trkpt lat="49.16119" lon="6.85307">
        <ele>205.3</ele>
        <time>2021-12-18T15:51:27Z</time>
      </trkpt>
      <trkpt lat="49.16118" lon="6.85307">
        <ele>205.4</ele>
        <time>2021-12-18T15:51:38Z</time>
      </trkpt>
      <trkpt lat="49.16117" lon="6.85307">
        <ele>205.4</ele>
        <time>2021-12-18T15:51:39Z</time>
      </trkpt>
      <trkpt lat="49.16116" lon="6.85307">
        <ele>205.5</ele>
        <time>2021-12-18T15:51:41Z</time>
      </trkpt>
      <trkpt lat="49.16116" lon="6.85308">
        <ele>205.5</ele>
        <time>2021-12-18T15:51:43Z</time>
      </trkpt>
      <trkpt lat="49.16115" lon="6.85308">
        <ele>205.5</ele>
        <time>2021-12-18T15:51:53Z</time>
      </trkpt>
      <trkpt lat="49.16114" lon="6.85308">
        <ele>205.6</ele>
        <time>2021-12-18T15:51:54Z</time>
      </trkpt>
      <trkpt lat="49.16113" lon="6.85308">
        <ele>205.6</ele>
        <time>2021-12-18T15:51:58Z</time>
      </trkpt>
      <trkpt lat="49.16112" lon="6.85308">
        <ele>205.6</ele>
        <time>2021-12-18T15:51:59Z</time>
      </trkpt>
      <trkpt lat="49.16111" lon="6.85308">
        <ele>205.7</ele>
        <time>2021-12-18T15:52:02Z</time>
      </trkpt>
      <trkpt lat="49.1611" lon="6.85309">
        <ele>205.7</ele>
        <time>2021-12-18T15:52:05Z</time>
      </trkpt>
      <trkpt lat="49.16109" lon="6.85309">
        <ele>205.7</ele>
        <time>2021-12-18T15:52:08Z</time>
      </trkpt>
      <trkpt lat="49.16109" lon="6.85309">
        <ele>205.8</ele>
        <time>2021-12-18T15:52:09Z</time>
      </trkpt>
      <trkpt lat="49.16108" lon="6.85309">
        <ele>205.8</ele>
        <time>2021-12-18T15:52:10Z</time>
      </trkpt>
      <trkpt lat="49.16107" lon="6.85309">
        <ele>205.8</ele>
        <time>2021-12-18T15:52:11Z</time>
      </trkpt>
      <trkpt lat="49.16106" lon="6.85309">
        <ele>205.9</ele>
        <time>2021-12-18T15:52:12Z</time>
      </trkpt>
      <trkpt lat="49.16105" lon="6.8531">
        <ele>205.9</ele>
        <time>2021-12-18T15:52:13Z</time>
      </trkpt>
      <trkpt lat="49.16104" lon="6.8531">
        <ele>205.9</ele>
        <time>2021-12-18T15:52:14Z</time>
      </trkpt>
      <trkpt lat="49.16103" lon="6.8531">
        <ele>206</ele>
        <time>2021-12-18T15:52:15Z</time>
      </trkpt>
      <trkpt lat="49.16102" lon="6.8531">
        <ele>206</ele>
        <time>2021-12-18T15:52:20Z</time>
      </trkpt>
      <trkpt lat="49.16102" lon="6.8531">
        <ele>206</ele>
        <time>2021-12-18T15:52:21Z</time>
      </trkpt>
      <trkpt lat="49.16101" lon="6.85311">
        <ele>206.1</ele>
        <time>2021-12-18T15:52:29Z</time>
      </trkpt>
      <trkpt lat="49.161" lon="6.85311">
        <ele>206.1</ele>
        <time>2021-12-18T15:52:30Z</time>
      </trkpt>
      <trkpt lat="49.16099" lon="6.85311">
        <ele>206.1</ele>
        <time>2021-12-18T15:52:32Z</time>
      </trkpt>
      <trkpt lat="49.16098" lon="6.85311">
        <ele>206.2</ele>
        <time>2021-12-18T15:52:34Z</time>
      </trkpt>
      <trkpt lat="49.16097" lon="6.85311">
        <ele>206.2</ele>
        <time>2021-12-18T15:52:46Z</time>
      </trkpt>
      <trkpt lat="49.16096" lon="6.85311">
        <ele>206.2</ele>
        <time>2021-12-18T15:52:51Z</time>
      </trkpt>
      <trkpt lat="49.16095" lon="6.85312">
        <ele>206.3</ele>
        <time>2021-12-18T15:52:51Z</time>
      </trkpt>
      <trkpt lat="49.16095" lon="6.85312">
        <ele>206.3</ele>
        <time>2021-12-18T15:52:51Z</time>
      </trkpt>
      <trkpt lat="49.16095" lon="6.85312">
        <ele>206.3</ele>
        <time>2021-12-18T15:52:51Z</time>
      </trkpt>
    </trkseg>
  </trk>
</gpx>